Pression Relative Température INT. Humidité INT. Température EXT. Humidité EXT. Point de rosée Windchill Vitesse du vent Direction du Vent Pluie / Total Heure Date
[hPa] [°C] [%] [°C] [%] [°C] [°C] [km/h] [mm]
994,2 21,0 55 11,9 76 7,8 --- --- --- 0,5 00:06 01.05.2004
994,1 20,9 56 11,7 77 7,8 --- --- --- 0,5 00:21 01.05.2004
994,2 20,8 56 11,4 78 7,7 --- --- --- 0,5 00:36 01.05.2004
994,1 20,8 56 11,2 79 7,7 --- --- --- 0,5 00:51 01.05.2004
994,1 20,8 57 10,9 79 7,4 --- --- --- 0,5 01:06 01.05.2004
994,3 20,8 57 10,7 80 7,4 --- --- --- 0,5 01:21 01.05.2004
994,3 20,7 56 10,5 80 7,2 --- --- --- 0,5 01:36 01.05.2004
994,2 20,7 56 10,4 81 7,2 --- --- --- 0,5 01:51 01.05.2004
994,2 20,7 56 10,2 81 7,0 --- --- --- 0,5 02:06 01.05.2004
994,2 20,6 56 10,2 82 7,2 --- --- --- 0,5 02:21 01.05.2004
994,1 20,5 56 10,2 82 7,2 --- --- --- 0,5 02:36 01.05.2004
993,9 20,5 56 10,1 82 7,1 --- --- --- 0,5 02:51 01.05.2004
994,0 20,5 56 10,2 83 7,4 --- --- --- 0,5 03:06 01.05.2004
993,9 20,5 56 10,3 84 7,7 --- --- --- 0,5 03:21 01.05.2004
994,1 20,5 57 10,5 83 7,7 --- --- --- 0,5 03:36 01.05.2004
994,6 20,4 56 10,5 83 7,7 --- --- --- 0,5 03:51 01.05.2004
994,8 20,3 56 10,9 85 8,4 --- --- --- 0,5 04:06 01.05.2004
994,7 20,2 56 11,0 86 8,7 --- --- --- 0,5 04:21 01.05.2004
994,8 20,2 56 10,9 87 8,8 --- --- --- 0,5 04:36 01.05.2004
995,0 20,1 56 10,8 86 8,5 --- --- --- 0,5 04:51 01.05.2004
995,5 20,1 56 10,6 86 8,3 --- --- --- 0,5 05:06 01.05.2004
995,9 20,0 56 10,1 85 7,7 --- --- --- 0,5 05:21 01.05.2004
996,1 20,0 56 9,5 84 6,9 --- --- --- 0,5 05:36 01.05.2004
996,2 20,0 56 9,1 84 6,5 --- --- --- 0,5 05:51 01.05.2004
996,3 19,9 55 8,8 84 6,2 --- --- --- 0,5 06:06 01.05.2004
996,2 19,8 55 8,7 85 6,3 --- --- --- 0,5 06:21 01.05.2004
996,4 19,8 55 8,5 85 6,1 --- --- --- 0,5 06:36 01.05.2004
996,3 19,7 55 8,3 86 6,1 --- --- --- 0,5 06:51 01.05.2004
996,4 19,7 55 8,1 86 5,9 --- --- --- 0,5 07:06 01.05.2004
996,7 19,6 55 8,1 86 5,9 --- --- --- 0,5 07:21 01.05.2004
997,0 19,6 55 8,1 86 5,9 --- --- --- 0,5 07:36 01.05.2004
997,3 19,5 55 8,2 87 6,1 --- --- --- 0,5 07:51 01.05.2004
997,6 19,4 55 8,5 87 6,4 --- --- --- 0,5 08:06 01.05.2004
997,7 19,4 55 8,8 86 6,5 --- --- --- 0,5 08:21 01.05.2004
997,8 19,4 55 9,2 85 6,8 --- --- --- 0,5 08:36 01.05.2004
998,0 19,4 55 9,7 84 7,1 --- --- --- 0,5 08:51 01.05.2004
998,1 19,3 55 10,4 84 7,8 --- --- --- 0,5 09:06 01.05.2004
998,2 19,3 55 10,8 81 7,6 --- --- --- 0,5 09:21 01.05.2004
998,2 19,3 55 11,1 80 7,7 --- --- --- 0,5 09:36 01.05.2004
998,3 19,4 56 11,4 79 7,9 --- --- --- 0,5 09:51 01.05.2004
998,4 19,4 55 11,5 76 7,4 --- --- --- 0,5 10:06 01.05.2004
998,6 19,5 55 11,4 76 7,3 --- --- --- 0,5 10:21 01.05.2004
998,7 19,6 55 11,8 75 7,5 --- --- --- 0,5 10:36 01.05.2004
998,8 19,7 55 12,4 74 7,9 --- --- --- 0,5 10:51 01.05.2004
999,0 19,8 55 13,1 71 7,9 --- --- --- 0,5 11:06 01.05.2004
998,9 19,9 55 13,4 68 7,6 --- --- --- 0,5 11:21 01.05.2004
998,8 20,0 55 13,2 67 7,2 --- --- --- 0,5 11:36 01.05.2004
998,9 20,2 55 13,6 66 7,3 --- --- --- 0,5 11:51 01.05.2004
999,0 20,3 55 14,2 64 7,5 --- --- --- 0,5 12:06 01.05.2004
998,9 20,4 55 14,7 61 7,2 --- --- --- 0,5 12:21 01.05.2004
999,0 20,5 55 15,4 60 7,6 --- --- --- 0,5 12:36 01.05.2004
999,0 20,5 55 15,6 56 6,8 --- --- --- 0,5 12:51 01.05.2004
999,0 20,5 55 17,6 54 8,2 --- --- --- 0,5 13:06 01.05.2004
999,0 20,6 55 18,8 47 7,2 --- --- --- 0,5 13:21 01.05.2004
999,0 20,6 55 18,7 46 6,8 --- --- --- 0,5 13:36 01.05.2004
999,0 20,6 54 18,8 47 7,2 --- --- --- 0,5 13:51 01.05.2004
999,0 20,7 55 21,4 42 7,9 --- --- --- 0,5 14:06 01.05.2004
999,0 20,8 55 21,8 38 6,8 --- --- --- 0,5 14:21 01.05.2004
999,2 20,8 54 22,5 34 5,8 --- --- --- 0,5 14:36 01.05.2004
999,2 21,0 54 23,7 32 6,0 --- --- --- 0,5 14:51 01.05.2004
999,3 21,0 53 22,4 32 4,9 --- --- --- 0,5 15:06 01.05.2004
999,2 20,9 54 22,4 35 6,2 --- --- --- 0,5 15:21 01.05.2004
999,2 21,0 53 24,5 33 7,2 --- --- --- 0,5 15:36 01.05.2004
999,3 21,2 53 24,6 31 6,3 --- --- --- 0,5 15:51 01.05.2004
999,4 21,3 53 26,2 31 7,7 --- --- --- 0,5 16:06 01.05.2004
999,4 21,5 53 28,2 29 8,5 --- --- --- 0,5 16:21 01.05.2004
999,3 21,5 52 28,2 28 7,9 --- --- --- 0,5 16:36 01.05.2004
999,3 21,6 52 27,7 22 4,0 --- --- --- 0,5 16:51 01.05.2004
999,3 21,6 52 28,2 24 5,7 --- --- --- 0,5 17:06 01.05.2004
999,3 21,7 52 29,7 23 6,3 --- --- --- 0,5 17:21 01.05.2004
999,3 21,8 51 30,8 22 6,6 --- --- --- 0,5 17:36 01.05.2004
999,2 21,9 50 31,8 19 5,3 --- --- --- 0,5 17:51 01.05.2004
999,1 22,0 48 32,1 19 5,6 --- --- --- 0,5 18:06 01.05.2004
999,2 22,2 48 32,2 19 5,6 --- --- --- 0,5 18:21 01.05.2004
999,1 22,3 47 31,6 19 5,2 --- --- --- 0,5 18:36 01.05.2004
999,2 22,4 47 30,5 19 4,3 --- --- --- 0,5 18:51 01.05.2004
999,3 22,5 47 28,7 20 3,5 --- --- --- 0,5 19:06 01.05.2004
999,2 22,7 48 27,5 22 3,9 --- --- --- 0,5 19:21 01.05.2004
999,3 22,7 49 26,4 22 3,0 --- --- --- 0,5 19:36 01.05.2004
999,4 22,8 49 25,2 25 3,8 --- --- --- 0,5 19:51 01.05.2004
999,5 22,8 48 23,5 27 3,4 --- --- --- 0,5 20:06 01.05.2004
999,6 22,8 49 21,3 29 2,5 --- --- --- 0,5 20:21 01.05.2004
999,6 22,7 49 20,1 35 4,1 --- --- --- 0,5 20:36 01.05.2004
999,8 22,6 49 18,7 39 4,4 --- --- --- 0,5 20:51 01.05.2004
999,9 22,6 49 17,4 42 4,3 --- --- --- 0,5 21:06 01.05.2004
999,9 22,6 49 16,2 45 4,2 --- --- --- 0,5 21:21 01.05.2004
1000,0 22,5 49 15,3 48 4,3 --- --- --- 0,5 21:36 01.05.2004
1000,0 22,8 50 14,5 50 4,2 --- --- --- 0,5 21:51 01.05.2004
1000,2 22,7 50 13,8 53 4,4 --- --- --- 0,5 22:06 01.05.2004
1000,2 22,6 50 13,3 55 4,4 --- --- --- 0,5 22:21 01.05.2004
1000,2 22,6 50 12,8 57 4,5 --- --- --- 0,5 22:36 01.05.2004
1000,4 22,5 50 12,4 59 4,6 --- --- --- 0,5 22:51 01.05.2004
1000,5 22,4 50 12,0 60 4,4 --- --- --- 0,5 23:06 01.05.2004
1000,6 22,3 50 11,7 61 4,4 --- --- --- 0,5 23:21 01.05.2004
1000,7 22,2 49 11,4 63 4,6 --- --- --- 0,5 23:36 01.05.2004
1000,7 22,1 49 11,1 64 4,5 --- --- --- 0,5 23:51 01.05.2004
1000,8 22,1 49 10,8 66 4,7 --- --- --- 0,5 00:06 02.05.2004
1000,8 22,2 49 10,5 67 4,6 --- --- --- 0,5 00:21 02.05.2004
1000,8 22,4 49 10,4 68 4,7 --- --- --- 0,5 00:36 02.05.2004
1000,8 22,4 48 10,2 70 4,9 --- --- --- 0,5 00:51 02.05.2004
1000,9 22,5 48 10,1 70 4,8 --- --- --- 0,5 01:06 02.05.2004
1000,8 22,4 48 9,8 71 4,8 --- --- --- 0,5 01:21 02.05.2004
1000,9 22,4 48 9,5 72 4,7 --- --- --- 0,5 01:36 02.05.2004
1000,8 22,3 48 9,3 73 4,7 --- --- --- 0,5 01:51 02.05.2004
1000,9 22,3 48 9,1 73 4,5 --- --- --- 0,5 02:06 02.05.2004
1000,8 22,2 48 8,9 73 4,3 --- --- --- 0,5 02:21 02.05.2004
1000,6 22,1 48 8,8 74 4,4 --- --- --- 0,5 02:36 02.05.2004
1000,5 21,9 49 8,7 74 4,3 --- --- --- 0,5 02:51 02.05.2004
1000,5 21,7 48 8,4 74 4,0 --- --- --- 0,5 03:06 02.05.2004
1000,4 21,5 48 8,2 76 4,2 --- --- --- 0,5 03:21 02.05.2004
1000,3 21,4 49 7,9 76 3,9 --- --- --- 0,5 03:36 02.05.2004
1000,3 21,2 48 7,8 77 4,0 --- --- --- 0,5 03:51 02.05.2004
1000,4 21,1 48 7,8 77 4,0 --- --- --- 0,5 04:06 02.05.2004
1000,3 21,0 49 7,4 77 3,6 --- --- --- 0,5 04:21 02.05.2004
1000,4 20,9 50 7,3 78 3,7 --- --- --- 0,5 04:36 02.05.2004
1000,4 20,8 50 7,2 78 3,6 --- --- --- 0,5 04:51 02.05.2004
1000,4 20,7 50 7,1 78 3,5 --- --- --- 0,5 05:06 02.05.2004
1000,5 20,6 50 6,9 79 3,5 --- --- --- 0,5 05:21 02.05.2004
1000,6 20,6 50 6,7 79 3,3 --- --- --- 0,5 05:36 02.05.2004
1000,4 20,5 50 6,6 79 3,2 --- --- --- 0,5 05:51 02.05.2004
1000,4 20,5 50 6,5 79 3,1 --- --- --- 0,5 06:06 02.05.2004
1000,3 20,4 50 6,5 80 3,3 --- --- --- 0,5 06:21 02.05.2004
1000,3 20,4 50 6,4 80 3,2 --- --- --- 0,5 06:36 02.05.2004
1000,2 20,3 50 6,5 81 3,4 --- --- --- 0,5 06:51 02.05.2004
1000,7 20,3 50 6,5 81 3,4 --- --- --- 0,5 07:06 02.05.2004
1000,6 20,2 50 6,7 81 3,6 --- --- --- 0,5 07:21 02.05.2004
1000,7 20,1 50 6,7 81 3,6 --- --- --- 0,5 07:36 02.05.2004
1000,8 20,0 50 7,0 82 4,1 --- --- --- 0,5 07:51 02.05.2004
1000,9 19,9 50 7,4 82 4,5 --- --- --- 0,5 08:06 02.05.2004
1000,8 19,9 50 7,8 83 5,1 --- --- --- 0,5 08:21 02.05.2004
1000,9 20,0 50 8,5 82 5,6 --- --- --- 0,5 08:36 02.05.2004
1001,0 19,9 50 9,2 83 6,4 --- --- --- 0,5 08:51 02.05.2004
1001,1 19,8 50 10,1 83 7,3 --- --- --- 0,5 09:06 02.05.2004
1001,0 19,8 50 10,8 83 8,0 --- --- --- 0,5 09:21 02.05.2004
1001,0 20,0 51 11,7 81 8,5 --- --- --- 0,5 09:36 02.05.2004
1001,0 20,1 51 12,5 76 8,4 --- --- --- 0,5 09:51 02.05.2004
1000,9 20,3 51 13,4 71 8,2 --- --- --- 0,5 10:06 02.05.2004
1000,9 20,1 51 14,1 66 7,8 --- --- --- 0,5 10:21 02.05.2004
1000,8 20,0 51 14,8 62 7,6 --- --- --- 0,5 10:36 02.05.2004
1000,9 20,0 50 15,2 60 7,5 --- --- --- 0,5 10:51 02.05.2004
1000,9 20,0 51 15,8 56 7,0 --- --- --- 0,5 11:06 02.05.2004
1000,8 20,2 53 16,4 54 7,0 --- --- --- 0,5 11:21 02.05.2004
1000,6 20,5 52 16,8 51 6,6 --- --- --- 0,5 11:36 02.05.2004
1000,9 20,7 52 17,4 51 7,1 --- --- --- 0,5 11:51 02.05.2004
1000,9 20,9 53 18,0 49 7,1 --- --- --- 0,5 12:06 02.05.2004
1000,6 21,1 52 18,5 46 6,6 --- --- --- 0,5 12:21 02.05.2004
1000,5 21,2 52 20,4 45 8,0 --- --- --- 0,5 12:36 02.05.2004
1000,3 21,4 52 23,4 37 7,9 --- --- --- 0,5 12:51 02.05.2004
1000,2 21,3 52 22,1 37 6,7 --- --- --- 0,5 13:06 02.05.2004
1000,2 21,2 52 21,0 39 6,5 --- --- --- 0,5 13:21 02.05.2004
1000,0 21,2 52 21,1 39 6,6 --- --- --- 0,5 13:36 02.05.2004
1000,0 21,2 52 20,4 37 5,2 --- --- --- 0,5 13:51 02.05.2004
999,9 21,2 51 19,2 40 5,2 --- --- --- 0,5 14:06 02.05.2004
999,8 21,3 51 19,7 40 5,7 --- --- --- 0,5 14:21 02.05.2004
999,8 21,3 50 20,4 40 6,3 --- --- --- 0,5 14:36 02.05.2004
999,7 21,4 50 20,8 38 5,9 --- --- --- 0,5 14:51 02.05.2004
999,6 21,4 50 20,4 39 6,0 --- --- --- 0,5 15:06 02.05.2004
999,6 21,5 51 21,7 34 5,1 --- --- --- 0,5 15:21 02.05.2004
999,5 21,4 51 20,5 35 4,5 --- --- --- 0,5 15:36 02.05.2004
999,4 21,4 50 19,7 37 4,6 --- --- --- 0,5 15:51 02.05.2004
999,3 21,4 50 19,2 38 4,5 --- --- --- 0,5 16:06 02.05.2004
999,2 21,4 50 18,9 39 4,6 --- --- --- 0,5 16:21 02.05.2004
999,1 21,5 50 18,6 39 4,3 --- --- --- 0,5 16:36 02.05.2004
998,9 21,5 50 18,5 39 4,3 --- --- --- 0,5 16:51 02.05.2004
998,9 21,6 50 18,7 40 4,8 --- --- --- 0,5 17:06 02.05.2004
998,7 21,7 49 19,3 40 5,3 --- --- --- 0,5 17:21 02.05.2004
998,3 21,9 49 23,4 37 7,9 --- --- --- 0,5 17:36 02.05.2004
998,4 22,0 48 23,2 31 5,1 --- --- --- 0,5 17:51 02.05.2004
998,4 22,0 47 21,6 33 4,6 --- --- --- 0,5 18:06 02.05.2004
998,3 21,9 49 20,5 34 4,1 --- --- --- 0,5 18:21 02.05.2004
998,6 21,9 49 19,2 38 4,5 --- --- --- 0,5 18:36 02.05.2004
998,5 21,8 49 18,1 41 4,6 --- --- --- 0,5 18:51 02.05.2004
998,4 21,8 50 17,5 44 5,1 --- --- --- 0,5 19:06 02.05.2004
998,4 21,8 50 17,2 48 6,1 --- --- --- 0,5 19:21 02.05.2004
998,3 21,8 50 17,2 49 6,4 --- --- --- 0,5 19:36 02.05.2004
998,3 21,8 50 17,1 51 6,9 --- --- --- 0,5 19:51 02.05.2004
998,5 21,8 51 16,8 52 6,9 --- --- --- 0,5 20:06 02.05.2004
998,4 21,9 51 16,5 53 6,9 --- --- --- 0,5 20:21 02.05.2004
998,9 22,0 51 16,1 54 6,8 --- --- --- 0,5 20:36 02.05.2004
999,0 22,0 51 15,8 53 6,2 --- --- --- 0,5 20:51 02.05.2004
999,0 21,9 51 15,5 55 6,5 --- --- --- 0,5 21:06 02.05.2004
999,1 22,4 50 14,8 59 6,8 --- --- --- 0,5 21:21 02.05.2004
998,9 22,8 51 14,3 62 7,1 --- --- --- 0,5 21:36 02.05.2004
998,8 23,1 50 13,9 65 7,4 --- --- --- 0,5 21:51 02.05.2004
998,9 23,3 50 13,5 66 7,2 --- --- --- 0,5 22:06 02.05.2004
999,0 23,5 49 13,2 68 7,4 --- --- --- 0,5 22:21 02.05.2004
998,6 23,7 49 13,2 69 7,6 --- --- --- 0,5 22:36 02.05.2004
998,7 23,5 48 13,1 70 7,7 --- --- --- 0,5 22:51 02.05.2004
998,9 23,4 48 12,8 70 7,4 --- --- --- 0,5 23:06 02.05.2004
998,7 23,5 47 12,5 71 7,4 --- --- --- 0,5 23:21 02.05.2004
998,8 23,5 47 12,3 72 7,4 --- --- --- 0,5 23:36 02.05.2004
998,7 23,2 47 12,1 72 7,2 --- --- --- 0,5 23:51 02.05.2004
998,7 22,5 48 11,8 72 6,9 --- --- --- 0,5 00:06 03.05.2004
999,0 22,1 48 11,7 73 7,0 --- --- --- 0,5 00:21 03.05.2004
998,9 21,8 50 11,5 73 6,8 --- --- --- 0,5 00:36 03.05.2004
998,8 21,5 50 11,4 74 6,9 --- --- --- 0,5 00:51 03.05.2004
999,0 21,3 50 11,3 74 6,8 --- --- --- 0,5 01:06 03.05.2004
999,0 21,2 50 11,3 75 7,0 --- --- --- 0,5 01:21 03.05.2004
998,8 21,1 51 11,4 76 7,3 --- --- --- 0,5 01:36 03.05.2004
998,8 21,0 51 11,4 77 7,5 --- --- --- 0,5 01:51 03.05.2004
998,5 20,9 52 11,5 76 7,4 --- --- --- 0,5 02:06 03.05.2004
998,3 20,8 52 11,5 76 7,4 --- --- --- 0,5 02:21 03.05.2004
998,1 20,7 53 11,6 77 7,7 --- --- --- 0,5 02:36 03.05.2004
998,0 20,6 53 11,5 77 7,6 --- --- --- 0,5 02:51 03.05.2004
997,8 20,6 53 11,6 77 7,7 --- --- --- 0,5 03:06 03.05.2004
997,7 20,5 53 11,5 77 7,6 --- --- --- 0,5 03:21 03.05.2004
997,6 20,4 53 11,5 78 7,8 --- --- --- 0,5 03:36 03.05.2004
997,4 20,3 53 11,5 78 7,8 --- --- --- 0,5 03:51 03.05.2004
997,4 20,3 53 11,5 78 7,8 --- --- --- 0,5 04:06 03.05.2004
997,4 20,3 54 11,5 79 7,9 --- --- --- 0,5 04:21 03.05.2004
997,3 20,3 54 11,4 80 8,0 --- --- --- 0,5 04:36 03.05.2004
997,3 20,3 54 11,2 80 7,8 --- --- --- 0,5 04:51 03.05.2004
997,1 20,2 54 10,9 80 7,5 --- --- --- 0,5 05:06 03.05.2004
997,1 20,2 54 10,7 80 7,4 --- --- --- 0,5 05:21 03.05.2004
996,9 20,1 53 10,5 80 7,2 --- --- --- 0,5 05:36 03.05.2004
996,6 20,0 54 10,4 81 7,2 --- --- --- 0,5 05:51 03.05.2004
996,6 20,0 54 10,2 82 7,2 --- --- --- 0,5 06:06 03.05.2004
996,6 20,0 54 10,1 82 7,1 --- --- --- 0,5 06:21 03.05.2004
996,6 20,0 54 9,9 82 6,9 --- --- --- 0,5 06:36 03.05.2004
996,6 19,9 53 9,8 82 6,8 --- --- --- 0,5 06:51 03.05.2004
996,6 19,9 54 9,8 83 7,0 --- --- --- 0,5 07:06 03.05.2004
996,6 20,4 55 10,0 83 7,2 --- --- --- 0,5 07:21 03.05.2004
996,7 20,8 55 10,2 84 7,6 --- --- --- 0,5 07:36 03.05.2004
996,7 21,0 53 10,4 84 7,8 --- --- --- 0,5 07:51 03.05.2004
996,6 21,3 53 11,1 84 8,5 --- --- --- 0,5 08:06 03.05.2004
996,5 20,8 53 11,9 84 9,2 --- --- --- 0,5 08:21 03.05.2004
996,7 20,4 53 12,8 83 10,0 --- --- --- 0,5 08:36 03.05.2004
996,7 20,3 53 13,3 81 10,1 --- --- --- 0,5 08:51 03.05.2004
996,6 20,1 54 13,5 79 9,9 --- --- --- 0,5 09:06 03.05.2004
996,6 20,0 53 13,8 76 9,6 --- --- --- 0,5 09:21 03.05.2004
996,5 19,9 53 14,2 74 9,6 --- --- --- 0,5 09:36 03.05.2004
996,4 19,8 53 14,7 71 9,5 --- --- --- 0,5 09:51 03.05.2004
996,5 19,7 52 15,3 68 9,4 --- --- --- 0,5 10:06 03.05.2004
996,2 19,7 52 15,7 63 8,6 --- --- --- 0,5 10:21 03.05.2004
996,1 19,6 52 15,7 63 8,6 --- --- --- 0,5 10:36 03.05.2004
996,3 19,6 52 16,1 62 8,8 --- --- --- 0,5 10:51 03.05.2004
996,3 19,6 53 16,5 60 8,7 --- --- --- 0,5 11:06 03.05.2004
996,3 19,5 53 16,7 56 7,9 --- --- --- 0,5 11:21 03.05.2004
996,1 19,6 53 17,2 57 8,6 --- --- --- 0,5 11:36 03.05.2004
995,9 19,6 53 17,0 56 8,1 --- --- --- 0,5 11:51 03.05.2004
995,9 19,6 53 16,8 56 7,9 --- --- --- 0,5 12:06 03.05.2004
995,9 19,6 53 17,2 57 8,6 --- --- --- 0,5 12:21 03.05.2004
995,8 19,6 53 18,2 54 8,7 --- --- --- 0,5 12:36 03.05.2004
995,7 19,7 53 20,7 47 9,0 --- --- --- 0,5 12:51 03.05.2004
995,6 19,7 53 22,2 44 9,3 --- --- --- 0,5 13:06 03.05.2004
995,4 19,8 53 24,7 35 8,2 --- --- --- 0,5 13:21 03.05.2004
995,3 19,8 54 25,4 35 8,8 --- --- --- 0,5 13:36 03.05.2004
995,2 19,9 54 26,1 31 7,6 --- --- --- 0,5 13:51 03.05.2004
994,9 20,0 54 25,8 29 6,4 --- --- --- 0,5 14:06 03.05.2004
994,9 20,1 54 26,7 29 7,2 --- --- --- 0,5 14:21 03.05.2004
994,8 20,2 54 26,4 27 5,9 --- --- --- 0,5 14:36 03.05.2004
994,9 20,3 54 25,5 28 5,6 --- --- --- 0,5 14:51 03.05.2004
994,8 20,4 54 27,3 26 6,1 --- --- --- 0,5 15:06 03.05.2004
994,5 20,4 52 25,1 28 5,3 --- --- --- 0,5 15:21 03.05.2004
994,3 20,4 50 27,3 28 7,2 --- --- --- 0,5 15:36 03.05.2004
994,1 20,5 50 28,7 24 6,1 --- --- --- 0,5 15:51 03.05.2004
993,9 20,6 48 29,7 19 3,6 --- --- --- 0,5 16:06 03.05.2004
993,7 20,7 47 31,3 19 4,9 --- --- --- 0,5 16:21 03.05.2004
993,6 20,9 47 31,6 19 5,2 --- --- --- 0,5 16:36 03.05.2004
993,5 21,0 46 28,7 19 2,8 --- --- --- 0,5 16:51 03.05.2004
993,3 21,1 46 27,7 21 3,4 --- --- --- 0,5 17:06 03.05.2004
993,3 21,1 45 24,2 26 3,5 --- --- --- 0,5 17:21 03.05.2004
993,2 21,6 44 22,5 28 3,1 --- --- --- 0,5 17:36 03.05.2004
993,3 22,0 41 21,7 30 3,3 --- --- --- 0,5 17:51 03.05.2004
993,1 22,3 41 21,1 32 3,7 --- --- --- 0,5 18:06 03.05.2004
993,3 22,7 41 20,5 35 4,5 --- --- --- 0,5 18:21 03.05.2004
993,3 22,4 42 20,4 38 5,6 --- --- --- 0,5 18:36 03.05.2004
993,4 21,9 42 20,1 40 6,1 --- --- --- 0,5 18:51 03.05.2004
993,4 21,7 43 19,4 41 5,8 --- --- --- 0,5 19:06 03.05.2004
993,3 21,6 44 19,7 43 6,7 --- --- --- 0,5 19:21 03.05.2004
993,3 21,6 45 19,3 46 7,4 --- --- --- 0,5 19:36 03.05.2004
993,6 21,6 46 18,6 48 7,3 --- --- --- 0,5 19:51 03.05.2004
993,6 21,6 46 17,6 50 7,0 --- --- --- 0,5 20:06 03.05.2004
993,6 21,6 47 17,2 50 6,7 --- --- --- 0,5 20:21 03.05.2004
993,7 21,6 46 16,5 49 5,7 --- --- --- 0,5 20:36 03.05.2004
993,9 21,6 46 16,0 51 5,8 --- --- --- 0,5 20:51 03.05.2004
994,0 21,5 46 15,5 52 5,7 --- --- --- 0,5 21:06 03.05.2004
994,0 21,5 47 15,1 54 5,8 --- --- --- 0,5 21:21 03.05.2004
994,1 21,5 47 14,7 55 5,7 --- --- --- 0,5 21:36 03.05.2004
994,2 21,5 48 14,5 56 5,8 --- --- --- 0,5 21:51 03.05.2004
994,2 21,6 48 14,1 59 6,2 --- --- --- 0,5 22:06 03.05.2004
994,1 21,5 48 13,8 60 6,1 --- --- --- 0,5 22:21 03.05.2004
994,2 21,5 49 13,5 61 6,1 --- --- --- 0,5 22:36 03.05.2004
994,1 21,6 49 13,2 62 6,0 --- --- --- 0,5 22:51 03.05.2004
994,2 21,6 49 13,1 62 6,0 --- --- --- 0,5 23:06 03.05.2004
994,0 21,6 49 12,8 63 5,9 --- --- --- 0,5 23:21 03.05.2004
994,2 21,6 49 12,5 64 5,8 --- --- --- 0,5 23:36 03.05.2004
994,3 21,6 49 12,3 66 6,1 --- --- --- 0,5 23:51 03.05.2004
994,4 21,6 49 12,3 68 6,5 --- --- --- 0,5 00:06 04.05.2004
994,3 21,6 50 12,3 69 6,7 --- --- --- 0,5 00:21 04.05.2004
994,2 21,6 49 12,3 70 7,0 --- --- --- 0,5 00:36 04.05.2004
994,1 21,5 50 12,2 70 6,9 --- --- --- 0,5 00:51 04.05.2004
994,0 21,4 50 12,1 71 7,0 --- --- --- 0,5 01:06 04.05.2004
994,0 21,4 50 11,9 70 6,6 --- --- --- 0,5 01:21 04.05.2004
993,8 21,3 50 11,7 70 6,4 --- --- --- 0,5 01:36 04.05.2004
993,7 21,3 50 11,4 70 6,1 --- --- --- 0,5 01:51 04.05.2004
993,7 21,3 50 11,4 72 6,5 --- --- --- 0,5 02:06 04.05.2004
993,5 21,2 50 11,3 72 6,4 --- --- --- 0,5 02:21 04.05.2004
993,0 21,2 51 11,2 72 6,3 --- --- --- 0,5 02:36 04.05.2004
992,8 21,2 51 10,9 72 6,0 --- --- --- 0,5 02:51 04.05.2004
992,7 21,2 51 10,6 72 5,7 --- --- --- 0,5 03:06 04.05.2004
992,6 21,1 50 10,4 73 5,7 --- --- --- 0,5 03:21 04.05.2004
992,4 21,0 50 10,2 74 5,7 --- --- --- 0,5 03:36 04.05.2004
992,2 20,9 51 10,0 74 5,5 --- --- --- 0,5 03:51 04.05.2004
992,0 20,8 51 9,8 75 5,5 --- --- --- 0,5 04:06 04.05.2004
991,8 20,7 51 9,5 75 5,3 --- --- --- 0,5 04:21 04.05.2004
991,6 20,6 51 9,4 77 5,5 --- --- --- 0,5 04:36 04.05.2004
991,4 20,5 51 9,1 77 5,2 --- --- --- 0,5 04:51 04.05.2004
991,2 20,4 51 8,8 77 5,0 --- --- --- 0,5 05:06 04.05.2004
990,7 20,3 51 8,6 76 4,6 --- --- --- 0,5 05:21 04.05.2004
990,5 20,3 51 8,4 77 4,6 --- --- --- 0,5 05:36 04.05.2004
990,2 20,1 51 8,4 78 4,7 --- --- --- 0,5 05:51 04.05.2004
990,0 20,1 51 8,4 78 4,7 --- --- --- 0,5 06:06 04.05.2004
990,0 20,0 51 8,4 78 4,7 --- --- --- 0,5 06:21 04.05.2004
990,0 19,9 51 8,2 78 4,6 --- --- --- 0,5 06:36 04.05.2004
990,0 19,9 51 8,0 80 4,7 --- --- --- 0,5 06:51 04.05.2004
990,0 19,8 51 8,1 81 5,0 --- --- --- 0,5 07:06 04.05.2004
990,0 19,8 51 8,1 81 5,0 --- --- --- 0,5 07:21 04.05.2004
989,8 19,7 50 8,2 81 5,1 --- --- --- 0,5 07:36 04.05.2004
989,6 19,8 52 8,2 81 5,1 --- --- --- 0,5 07:51 04.05.2004
989,0 19,7 51 8,4 81 5,3 --- --- --- 0,5 08:06 04.05.2004
988,7 19,7 51 8,5 80 5,2 --- --- --- 0,5 08:21 04.05.2004
988,6 19,6 51 9,1 80 5,8 --- --- --- 0,5 08:36 04.05.2004
988,6 19,5 50 9,5 78 5,8 --- --- --- 0,5 08:51 04.05.2004
988,6 19,5 50 10,2 76 6,1 --- --- --- 0,5 09:06 04.05.2004
988,5 19,5 50 10,5 74 6,0 --- --- --- 0,5 09:21 04.05.2004
988,2 19,4 50 10,7 72 5,8 --- --- --- 0,5 09:36 04.05.2004
988,2 19,4 49 10,8 70 5,5 --- --- --- 0,5 09:51 04.05.2004
987,9 19,4 49 11,4 69 5,9 --- --- --- 0,5 10:06 04.05.2004
987,7 19,3 48 11,6 66 5,4 --- --- --- 0,5 10:21 04.05.2004
987,2 19,3 48 11,8 63 5,0 --- --- --- 0,5 10:36 04.05.2004
987,1 19,3 49 12,0 60 4,4 --- --- --- 0,5 10:51 04.05.2004
987,0 19,3 49 12,1 58 4,1 --- --- --- 0,5 11:06 04.05.2004
986,8 19,3 49 12,3 57 4,0 --- --- --- 0,5 11:21 04.05.2004
986,6 19,3 49 12,7 53 3,3 --- --- --- 0,5 11:36 04.05.2004
986,5 19,3 49 12,9 52 3,2 --- --- --- 0,5 11:51 04.05.2004
986,6 19,3 49 13,1 50 2,9 --- --- --- 0,5 12:06 04.05.2004
986,5 19,3 49 12,7 51 2,8 --- --- --- 0,5 12:21 04.05.2004
986,2 19,3 49 13,0 52 3,3 --- --- --- 0,5 12:36 04.05.2004
986,0 19,3 48 13,2 51 3,2 --- --- --- 0,5 12:51 04.05.2004
985,6 19,3 48 13,4 51 3,4 --- --- --- 0,5 13:06 04.05.2004
985,6 19,3 48 13,3 50 3,1 --- --- --- 0,5 13:21 04.05.2004
985,3 19,2 48 12,7 50 2,5 --- --- --- 0,5 13:36 04.05.2004
984,9 19,2 48 12,3 53 3,0 --- --- --- 0,5 13:51 04.05.2004
984,7 19,2 48 12,4 54 3,3 --- --- --- 0,5 14:06 04.05.2004
984,6 19,1 47 12,4 54 3,3 --- --- --- 0,5 14:21 04.05.2004
984,0 19,1 47 12,3 55 3,5 --- --- --- 0,5 14:36 04.05.2004
983,5 19,0 47 12,2 57 3,9 --- --- --- 0,5 14:51 04.05.2004
983,4 19,0 47 12,3 58 4,2 --- --- --- 0,5 15:06 04.05.2004
983,0 19,0 47 12,4 58 4,3 --- --- --- 0,5 15:21 04.05.2004
982,8 18,9 48 12,4 58 4,3 --- --- --- 0,5 15:36 04.05.2004
982,4 18,9 48 12,3 59 4,5 --- --- --- 0,5 15:51 04.05.2004
981,9 18,9 48 12,2 59 4,4 --- --- --- 0,5 16:06 04.05.2004
981,6 18,9 48 12,1 60 4,5 --- --- --- 0,5 16:21 04.05.2004
981,4 18,8 48 11,9 63 5,0 --- --- --- 0,5 16:36 04.05.2004
981,1 18,8 48 11,8 66 5,6 --- --- --- 0,5 16:51 04.05.2004
980,9 18,8 48 11,5 68 5,8 --- --- --- 0,5 17:06 04.05.2004
980,7 18,8 48 11,4 72 6,5 --- --- --- 0,5 17:21 04.05.2004
980,2 18,8 48 11,2 74 6,7 --- --- --- 0,5 17:36 04.05.2004
980,0 18,7 48 11,1 76 7,0 --- --- --- 0,5 17:51 04.05.2004
979,8 18,7 48 11,1 77 7,2 --- --- --- 0,5 18:06 04.05.2004
979,5 18,7 49 10,8 78 7,1 --- --- --- 0,5 18:21 04.05.2004
979,5 18,7 49 10,6 80 7,3 --- --- --- 0,5 18:36 04.05.2004
979,2 18,6 49 10,5 82 7,5 --- --- --- 0,5 18:51 04.05.2004
979,0 18,6 49 10,4 84 7,8 --- --- --- 0,5 19:06 04.05.2004
978,9 18,6 50 10,2 85 7,8 --- --- --- 0,5 19:21 04.05.2004
978,9 18,5 51 10,1 87 8,0 --- --- --- 0,5 19:36 04.05.2004
978,7 18,5 51 9,7 87 7,6 --- --- --- 0,5 19:51 04.05.2004
978,4 18,6 52 9,3 87 7,2 --- --- --- 0,5 20:06 04.05.2004
978,5 18,7 52 9,4 88 7,5 --- --- --- 0,5 20:21 04.05.2004
978,3 18,8 52 9,3 88 7,4 --- --- --- 0,5 20:36 04.05.2004
978,2 18,8 52 9,1 88 7,2 --- --- --- 0,5 20:51 04.05.2004
977,9 18,9 52 8,8 87 6,7 --- --- --- 0,5 21:06 04.05.2004
978,0 18,9 52 8,7 87 6,6 --- --- --- 0,5 21:21 04.05.2004
977,9 19,0 51 8,4 87 6,3 --- --- --- 0,5 21:36 04.05.2004
978,0 19,0 51 8,3 88 6,4 --- --- --- 0,5 21:51 04.05.2004
978,0 19,1 51 8,2 88 6,3 --- --- --- 0,5 22:06 04.05.2004
978,1 19,3 51 8,2 88 6,3 --- --- --- 0,5 22:21 04.05.2004
978,1 19,4 51 8,1 88 6,2 --- --- --- 0,5 22:36 04.05.2004
978,0 19,5 51 8,1 88 6,2 --- --- --- 0,5 22:51 04.05.2004
978,4 19,6 52 8,2 87 6,1 --- --- --- 0,5 23:06 04.05.2004
978,2 19,6 51 7,8 84 5,2 --- --- --- 0,5 23:21 04.05.2004
978,0 19,6 52 7,7 83 5,0 --- --- --- 0,5 23:36 04.05.2004
977,8 19,6 52 7,5 84 4,9 --- --- --- 0,5 23:51 04.05.2004
977,8 19,6 52 7,5 84 4,9 --- --- --- 0,5 00:06 05.05.2004
977,8 19,5 52 7,4 85 5,0 --- --- --- 0,5 00:21 05.05.2004
977,8 19,4 52 7,2 85 4,8 --- --- --- 0,5 00:36 05.05.2004
977,6 19,3 52 7,0 86 4,8 --- --- --- 0,5 00:51 05.05.2004
977,7 19,2 52 6,9 86 4,7 --- --- --- 0,5 01:06 05.05.2004
977,8 19,2 52 6,7 87 4,6 --- --- --- 0,5 01:21 05.05.2004
977,6 19,2 52 6,7 87 4,6 --- --- --- 0,5 01:36 05.05.2004
977,8 19,2 52 6,6 87 4,5 --- --- --- 0,5 01:51 05.05.2004
977,8 19,1 52 6,5 87 4,5 --- --- --- 0,5 02:06 05.05.2004
977,8 19,1 52 6,4 88 4,5 --- --- --- 0,5 02:21 05.05.2004
977,7 19,1 52 6,1 88 4,2 --- --- --- 0,5 02:36 05.05.2004
977,6 19,0 52 5,9 88 4,0 --- --- --- 0,5 02:51 05.05.2004
977,5 19,0 53 5,8 88 3,9 --- --- --- 0,5 03:06 05.05.2004
977,5 19,1 53 5,5 89 3,8 --- --- --- 0,5 03:21 05.05.2004
977,5 19,0 53 5,5 89 3,8 --- --- --- 0,5 03:36 05.05.2004
977,4 18,9 53 5,4 90 3,8 --- --- --- 0,5 03:51 05.05.2004
977,3 18,9 54 5,4 91 4,0 --- --- --- 0,5 04:06 05.05.2004
977,1 18,8 53 5,5 90 3,9 --- --- --- 0,5 04:21 05.05.2004
977,2 18,7 53 5,5 90 3,9 --- --- --- 0,5 04:36 05.05.2004
977,2 18,6 53 5,8 91 4,4 --- --- --- 0,5 04:51 05.05.2004
977,1 18,6 53 6,0 91 4,6 --- --- --- 0,5 05:06 05.05.2004
977,1 18,5 53 6,1 90 4,5 --- --- --- 0,5 05:21 05.05.2004
976,8 18,5 53 6,1 88 4,2 --- --- --- 0,5 05:36 05.05.2004
976,7 18,5 52 5,7 87 3,7 --- --- --- 0,5 05:51 05.05.2004
976,8 18,4 52 5,7 87 3,7 --- --- --- 0,5 06:06 05.05.2004
976,9 18,3 52 5,8 87 3,8 --- --- --- 0,5 06:21 05.05.2004
976,8 18,2 52 5,7 87 3,7 --- --- --- 0,5 06:36 05.05.2004
976,9 18,2 52 5,8 87 3,8 --- --- --- 0,5 06:51 05.05.2004
977,0 18,2 52 5,8 87 3,8 --- --- --- 0,5 07:06 05.05.2004
976,8 18,2 52 5,9 86 3,7 --- --- --- 0,5 07:21 05.05.2004
977,0 18,2 52 6,0 86 3,8 --- --- --- 0,5 07:36 05.05.2004
976,9 18,2 51 6,2 86 4,0 --- --- --- 0,5 07:51 05.05.2004
977,0 18,2 51 6,5 85 4,1 --- --- --- 0,5 08:06 05.05.2004
976,9 18,1 51 6,7 84 4,1 --- --- --- 0,5 08:21 05.05.2004
976,9 18,0 51 7,0 84 4,4 --- --- --- 0,5 08:36 05.05.2004
977,1 17,9 52 7,1 84 4,5 --- --- --- 0,5 08:51 05.05.2004
977,3 17,9 52 6,9 84 4,3 --- --- --- 0,5 09:06 05.05.2004
977,3 17,8 52 7,1 84 4,5 --- --- --- 0,5 09:21 05.05.2004
977,3 17,7 52 7,1 84 4,5 --- --- --- 0,5 09:36 05.05.2004
977,4 17,7 52 7,4 84 4,8 --- --- --- 0,5 09:51 05.05.2004
977,5 17,6 52 7,7 83 5,0 --- --- --- 0,5 10:06 05.05.2004
977,7 17,6 52 7,7 84 5,1 --- --- --- 0,5 10:21 05.05.2004
977,7 17,6 52 7,5 85 5,1 --- --- --- 0,5 10:36 05.05.2004
977,6 17,5 52 7,7 86 5,5 --- --- --- 0,5 10:51 05.05.2004
977,7 17,5 53 8,0 86 5,8 --- --- --- 0,5 11:06 05.05.2004
977,9 17,6 53 8,5 85 6,1 --- --- --- 0,5 11:21 05.05.2004
978,1 17,6 53 9,1 83 6,3 --- --- --- 0,5 11:36 05.05.2004
978,1 17,6 54 9,5 81 6,4 --- --- --- 0,5 11:51 05.05.2004
978,1 17,7 54 9,4 83 6,6 --- --- --- 0,5 12:06 05.05.2004
978,1 17,8 54 10,3 83 7,5 --- --- --- 0,5 12:21 05.05.2004
978,3 17,9 54 11,5 77 7,6 --- --- --- 0,5 12:36 05.05.2004
978,2 17,9 54 11,5 71 6,4 --- --- --- 0,5 12:51 05.05.2004
978,3 17,9 54 11,4 71 6,3 --- --- --- 0,5 13:06 05.05.2004
978,3 18,1 53 13,4 69 7,8 --- --- --- 0,5 13:21 05.05.2004
978,1 18,2 53 14,0 60 6,3 --- --- --- 0,5 13:36 05.05.2004
978,2 18,2 53 14,2 61 6,8 --- --- --- 0,5 13:51 05.05.2004
978,2 18,4 53 15,8 52 5,9 --- --- --- 0,5 14:06 05.05.2004
978,0 18,4 53 15,3 53 5,7 --- --- --- 0,5 14:21 05.05.2004
978,3 18,4 52 15,1 53 5,6 --- --- --- 0,5 14:36 05.05.2004
978,7 18,4 52 12,6 58 4,5 --- --- --- 0,5 14:51 05.05.2004
978,7 18,5 52 14,2 70 8,8 --- --- --- 0,5 15:06 05.05.2004
978,5 18,6 52 17,0 56 8,1 --- --- --- 0,5 15:21 05.05.2004
978,5 18,5 52 15,4 57 6,9 --- --- --- 0,5 15:36 05.05.2004
978,6 18,5 52 14,0 57 5,6 --- --- --- 0,5 15:51 05.05.2004
979,0 18,5 52 13,2 58 5,1 --- --- --- 0,5 16:06 05.05.2004
979,1 18,4 52 11,8 58 3,8 --- --- --- 0,5 16:21 05.05.2004
979,1 18,5 52 14,2 63 7,2 --- --- --- 0,5 16:36 05.05.2004
979,1 18,6 52 18,6 50 7,9 --- --- --- 0,5 16:51 05.05.2004
979,3 18,6 52 16,7 47 5,3 --- --- --- 0,5 17:06 05.05.2004
979,2 18,5 52 14,5 54 5,3 --- --- --- 0,5 17:21 05.05.2004
979,2 18,5 52 13,9 58 5,7 --- --- --- 0,5 17:36 05.05.2004
979,3 18,5 52 14,8 55 5,8 --- --- --- 0,5 17:51 05.05.2004
979,6 18,5 52 13,2 55 4,3 --- --- --- 0,5 18:06 05.05.2004
979,9 18,6 52 11,7 59 3,9 --- --- --- 0,5 18:21 05.05.2004
980,3 18,5 51 10,1 69 4,6 --- --- --- 0,5 18:36 05.05.2004
979,9 18,5 52 10,1 75 5,8 --- --- --- 0,5 18:51 05.05.2004
979,8 18,6 52 11,8 76 7,7 --- --- --- 0,5 19:06 05.05.2004
980,2 18,8 52 14,7 68 8,8 --- --- --- 0,5 19:21 05.05.2004
980,1 19,0 51 16,6 60 8,8 --- --- --- 0,5 19:36 05.05.2004
980,3 19,2 51 16,4 55 7,3 --- --- --- 0,5 19:51 05.05.2004
980,3 19,2 51 14,8 55 5,8 --- --- --- 0,5 20:06 05.05.2004
980,6 19,2 51 12,6 60 5,0 --- --- --- 0,5 20:21 05.05.2004
980,8 19,2 51 11,4 65 5,0 --- --- --- 0,5 20:36 05.05.2004
980,9 19,2 51 10,4 70 5,1 --- --- --- 0,5 20:51 05.05.2004
981,1 19,3 51 9,5 72 4,7 --- --- --- 0,5 21:06 05.05.2004
981,1 19,3 51 9,0 75 4,8 --- --- --- 0,5 21:21 05.05.2004
981,3 19,3 51 8,4 78 4,7 --- --- --- 0,5 21:36 05.05.2004
981,4 19,3 52 7,8 79 4,3 --- --- --- 0,5 21:51 05.05.2004
981,7 19,4 51 7,4 80 4,1 --- --- --- 0,5 22:06 05.05.2004
982,0 19,4 51 7,2 81 4,1 --- --- --- 0,5 22:21 05.05.2004
982,3 19,4 51 7,0 82 4,1 --- --- --- 0,5 22:36 05.05.2004
982,3 19,6 52 6,6 82 3,7 --- --- --- 0,5 22:51 05.05.2004
982,3 19,8 52 6,5 83 3,8 --- --- --- 0,5 23:06 05.05.2004
982,6 19,7 51 6,6 84 4,0 --- --- --- 0,5 23:21 05.05.2004
982,6 19,5 51 6,7 85 4,3 --- --- --- 0,5 23:36 05.05.2004
982,7 19,4 51 6,7 86 4,5 --- --- --- 0,5 23:51 05.05.2004
982,7 19,4 51 6,7 86 4,5 --- --- --- 0,5 00:06 06.05.2004
982,7 19,3 51 6,5 86 4,3 --- --- --- 0,5 00:21 06.05.2004
982,9 19,2 51 6,5 86 4,3 --- --- --- 0,5 00:36 06.05.2004
983,0 19,2 51 6,5 87 4,5 --- --- --- 0,5 00:51 06.05.2004
983,3 19,1 51 6,3 88 4,4 --- --- --- 0,5 01:06 06.05.2004
983,1 19,1 52 6,0 87 4,0 --- --- --- 0,5 01:21 06.05.2004
983,2 19,3 52 5,5 87 3,5 --- --- --- 0,5 01:36 06.05.2004
983,3 19,2 51 5,3 89 3,6 --- --- --- 0,5 01:51 06.05.2004
983,3 19,1 51 5,0 89 3,3 --- --- --- 0,5 02:06 06.05.2004
983,4 19,0 51 4,9 89 3,2 --- --- --- 0,5 02:21 06.05.2004
983,4 18,9 52 4,8 90 3,3 --- --- --- 0,5 02:36 06.05.2004
983,4 18,9 52 4,6 90 3,1 --- --- --- 0,5 02:51 06.05.2004
983,6 18,9 52 4,5 90 3,0 --- --- --- 0,5 03:06 06.05.2004
983,8 18,8 51 4,4 90 2,9 --- --- --- 0,5 03:21 06.05.2004
983,9 18,7 51 4,3 90 2,8 --- --- --- 0,5 03:36 06.05.2004
983,9 18,5 51 4,1 90 2,6 --- --- --- 0,5 03:51 06.05.2004
983,9 18,5 51 4,0 90 2,5 --- --- --- 0,5 04:06 06.05.2004
984,1 18,4 51 3,8 91 2,4 --- --- --- 0,5 04:21 06.05.2004
984,3 18,3 51 3,7 91 2,3 --- --- --- 0,5 04:36 06.05.2004
984,6 18,3 51 3,5 91 2,1 --- --- --- 0,5 04:51 06.05.2004
984,6 18,2 51 3,4 91 2,0 --- --- --- 0,5 05:06 06.05.2004
984,7 18,2 51 3,3 91 1,9 --- --- --- 0,5 05:21 06.05.2004
984,9 18,1 50 3,2 91 1,8 --- --- --- 0,5 05:36 06.05.2004
984,9 18,1 50 3,1 91 1,7 --- --- --- 0,5 05:51 06.05.2004
985,0 18,0 50 3,0 91 1,6 --- --- --- 0,5 06:06 06.05.2004
985,1 17,9 50 2,8 91 1,4 --- --- --- 0,5 06:21 06.05.2004
985,5 17,9 50 2,8 91 1,4 --- --- --- 0,5 06:36 06.05.2004
985,7 17,9 50 2,7 91 1,3 --- --- --- 0,5 06:51 06.05.2004
985,7 17,9 50 2,8 91 1,4 --- --- --- 0,5 07:06 06.05.2004
985,9 17,9 50 2,8 91 1,4 --- --- --- 0,5 07:21 06.05.2004
986,0 17,8 50 3,1 92 1,9 --- --- --- 0,5 07:36 06.05.2004
986,4 17,7 50 3,2 92 2,0 --- --- --- 0,5 07:51 06.05.2004
986,3 17,6 50 3,6 93 2,5 --- --- --- 0,5 08:06 06.05.2004
986,7 17,5 49 4,1 93 3,0 --- --- --- 0,5 08:21 06.05.2004
986,8 17,3 49 4,6 94 3,7 --- --- --- 0,5 08:36 06.05.2004
986,7 17,3 49 5,3 94 4,4 --- --- --- 0,5 08:51 06.05.2004
986,8 17,3 49 6,2 93 5,1 --- --- --- 0,5 09:06 06.05.2004
987,0 17,3 49 6,8 91 5,4 --- --- --- 0,5 09:21 06.05.2004
987,1 17,3 50 7,5 90 5,9 --- --- --- 0,5 09:36 06.05.2004
987,2 17,3 50 8,3 88 6,4 --- --- --- 0,5 09:51 06.05.2004
987,4 17,3 50 9,1 82 6,2 --- --- --- 0,5 10:06 06.05.2004
987,4 17,3 50 9,8 76 5,7 --- --- --- 0,5 10:21 06.05.2004
987,4 17,3 50 10,4 74 5,9 --- --- --- 0,5 10:36 06.05.2004
987,4 17,3 50 10,9 70 5,6 --- --- --- 0,5 10:51 06.05.2004
987,6 17,3 50 11,1 66 5,0 --- --- --- 0,5 11:06 06.05.2004
987,7 17,3 50 11,1 65 4,7 --- --- --- 0,5 11:21 06.05.2004
987,6 17,3 49 11,1 64 4,5 --- --- --- 0,5 11:36 06.05.2004
987,7 17,3 49 11,5 63 4,7 --- --- --- 0,5 11:51 06.05.2004
987,8 17,4 49 12,5 60 4,9 --- --- --- 0,5 12:06 06.05.2004
987,8 17,4 49 13,3 58 5,2 --- --- --- 0,5 12:21 06.05.2004
987,8 17,4 49 14,3 55 5,3 --- --- --- 0,5 12:36 06.05.2004
987,9 17,4 49 15,2 51 5,1 --- --- --- 0,5 12:51 06.05.2004
987,9 17,5 49 15,7 48 4,7 --- --- --- 0,5 13:06 06.05.2004
988,0 17,5 49 16,7 43 4,0 --- --- --- 0,5 13:21 06.05.2004
988,2 17,5 49 14,7 45 2,9 --- --- --- 0,5 13:36 06.05.2004
988,3 17,5 49 14,5 49 3,9 --- --- --- 0,5 13:51 06.05.2004
988,2 17,5 48 14,4 45 2,6 --- --- --- 0,5 14:06 06.05.2004
988,3 17,4 48 13,7 47 2,6 --- --- --- 0,5 14:21 06.05.2004
988,6 17,4 48 13,5 49 3,0 --- --- --- 0,5 14:36 06.05.2004
988,6 17,4 48 13,7 50 3,4 --- --- --- 0,5 14:51 06.05.2004
988,8 17,5 48 14,1 50 3,8 --- --- --- 0,5 15:06 06.05.2004
988,9 17,5 48 15,1 50 4,7 --- --- --- 0,5 15:21 06.05.2004
988,7 17,6 48 17,2 47 5,8 --- --- --- 0,5 15:36 06.05.2004
988,5 17,6 48 18,7 42 5,5 --- --- --- 0,5 15:51 06.05.2004
988,5 17,7 48 20,4 41 6,7 --- --- --- 0,5 16:06 06.05.2004
988,4 17,9 48 20,4 34 4,0 --- --- --- 0,5 16:21 06.05.2004
988,3 17,8 48 17,4 38 2,9 --- --- --- 0,5 16:36 06.05.2004
988,2 17,9 48 18,8 43 5,9 --- --- --- 0,5 16:51 06.05.2004
988,5 18,2 48 24,1 31 5,9 --- --- --- 0,5 17:06 06.05.2004
988,4 18,4 48 24,6 28 4,9 --- --- --- 0,5 17:21 06.05.2004
988,5 18,7 49 27,4 23 4,4 --- --- --- 0,5 17:36 06.05.2004
988,7 18,8 48 23,7 26 3,0 --- --- --- 0,5 17:51 06.05.2004
988,9 19,0 47 23,1 25 2,0 --- --- --- 0,5 18:06 06.05.2004
988,9 18,8 48 18,3 33 1,7 --- --- --- 0,5 18:21 06.05.2004
988,9 18,8 48 16,5 38 2,1 --- --- --- 0,5 18:36 06.05.2004
989,0 19,0 47 18,9 40 5,0 --- --- --- 0,5 18:51 06.05.2004
989,0 19,2 47 21,8 33 4,8 --- --- --- 0,5 19:06 06.05.2004
989,1 19,3 47 20,5 32 3,2 --- --- --- 0,5 19:21 06.05.2004
989,3 19,4 47 20,2 36 4,6 --- --- --- 0,5 19:36 06.05.2004
989,3 19,5 47 19,7 35 3,8 --- --- --- 0,5 19:51 06.05.2004
989,6 19,3 47 16,7 39 2,6 --- --- --- 0,5 20:06 06.05.2004
989,8 19,2 47 14,7 44 2,5 --- --- --- 0,5 20:21 06.05.2004
989,9 19,2 48 13,5 47 2,4 --- --- --- 0,5 20:36 06.05.2004
990,0 19,3 48 12,8 52 3,2 --- --- --- 0,5 20:51 06.05.2004
990,2 19,4 48 12,4 55 3,6 --- --- --- 0,5 21:06 06.05.2004
990,5 19,5 49 11,9 57 3,6 --- --- --- 0,5 21:21 06.05.2004
990,8 19,5 48 11,5 59 3,7 --- --- --- 0,5 21:36 06.05.2004
991,0 19,5 48 11,5 60 4,0 --- --- --- 0,5 21:51 06.05.2004
991,0 19,5 48 11,4 62 4,3 --- --- --- 0,5 22:06 06.05.2004
991,2 19,5 48 11,3 63 4,5 --- --- --- 0,5 22:21 06.05.2004
991,3 19,6 49 11,2 64 4,6 --- --- --- 0,5 22:36 06.05.2004
991,3 19,6 48 10,9 65 4,5 --- --- --- 0,5 22:51 06.05.2004
991,5 19,7 48 10,6 66 4,5 --- --- --- 0,5 23:06 06.05.2004
991,5 19,8 48 10,4 68 4,7 --- --- --- 0,5 23:21 06.05.2004
991,6 19,8 48 10,2 70 4,9 --- --- --- 0,5 23:36 06.05.2004
991,5 19,8 48 10,1 71 5,0 --- --- --- 0,5 23:51 06.05.2004
991,5 19,7 48 10,0 72 5,1 --- --- --- 0,5 00:06 07.05.2004
991,5 19,7 48 9,8 73 5,2 --- --- --- 0,5 00:21 07.05.2004
991,6 19,7 48 9,7 74 5,3 --- --- --- 0,5 00:36 07.05.2004
991,6 19,6 48 9,5 74 5,1 --- --- --- 0,5 00:51 07.05.2004
991,9 19,5 48 9,4 77 5,5 --- --- --- 0,5 01:06 07.05.2004
992,0 19,5 48 9,3 77 5,4 --- --- --- 0,5 01:21 07.05.2004
991,9 19,4 48 9,2 77 5,3 --- --- --- 0,5 01:36 07.05.2004
992,0 19,4 49 9,2 78 5,5 --- --- --- 0,5 01:51 07.05.2004
992,1 19,5 49 9,2 78 5,5 --- --- --- 0,5 02:06 07.05.2004
992,3 19,4 48 9,2 78 5,5 --- --- --- 0,5 02:21 07.05.2004
992,2 19,3 48 9,3 77 5,4 --- --- --- 0,5 02:36 07.05.2004
992,3 19,2 48 9,4 77 5,5 --- --- --- 0,5 02:51 07.05.2004
992,5 19,1 48 9,3 77 5,4 --- --- --- 0,5 03:06 07.05.2004
992,4 19,0 48 9,3 77 5,4 --- --- --- 0,5 03:21 07.05.2004
992,5 19,0 49 9,0 77 5,1 --- --- --- 0,5 03:36 07.05.2004
992,6 18,9 49 8,8 77 5,0 --- --- --- 0,5 03:51 07.05.2004
992,6 18,8 49 8,7 78 5,0 --- --- --- 0,5 04:06 07.05.2004
992,6 18,9 50 8,5 78 4,8 --- --- --- 0,5 04:21 07.05.2004
992,7 18,8 50 8,4 80 5,1 --- --- --- 0,5 04:36 07.05.2004
992,9 18,8 49 8,2 80 4,9 --- --- --- 0,5 04:51 07.05.2004
992,8 18,7 49 8,2 80 4,9 --- --- --- 0,5 05:06 07.05.2004
992,9 18,6 49 8,1 81 5,0 --- --- --- 0,5 05:21 07.05.2004
992,9 18,5 49 8,1 81 5,0 --- --- --- 0,5 05:36 07.05.2004
993,0 18,6 50 7,9 81 4,8 --- --- --- 0,5 05:51 07.05.2004
993,0 18,5 49 7,8 82 4,9 --- --- --- 0,5 06:06 07.05.2004
993,2 18,4 49 7,5 81 4,4 --- --- --- 0,5 06:21 07.05.2004
993,2 18,4 49 7,1 82 4,2 --- --- --- 0,5 06:36 07.05.2004
993,3 18,3 49 6,7 83 4,0 --- --- --- 0,5 06:51 07.05.2004
993,3 18,3 49 6,5 83 3,8 --- --- --- 0,5 07:06 07.05.2004
993,3 18,2 49 6,5 84 4,0 --- --- --- 0,5 07:21 07.05.2004
993,4 18,2 49 6,6 85 4,2 --- --- --- 0,5 07:36 07.05.2004
993,5 18,2 49 6,8 85 4,4 --- --- --- 0,5 07:51 07.05.2004
993,6 18,2 49 7,2 85 4,8 --- --- --- 0,5 08:06 07.05.2004
993,7 18,1 49 7,6 85 5,2 --- --- --- 0,5 08:21 07.05.2004
994,0 17,9 49 7,8 84 5,2 --- --- --- 0,5 08:36 07.05.2004
994,3 17,7 49 8,2 84 5,6 --- --- --- 0,5 08:51 07.05.2004
994,3 17,7 49 8,6 83 5,8 --- --- --- 0,5 09:06 07.05.2004
994,5 17,6 49 9,1 82 6,2 --- --- --- 0,5 09:21 07.05.2004
994,6 17,6 49 9,4 81 6,3 --- --- --- 0,5 09:36 07.05.2004
994,5 17,6 49 9,8 79 6,3 --- --- --- 0,5 09:51 07.05.2004
994,5 17,6 50 10,3 77 6,4 --- --- --- 0,5 10:06 07.05.2004
994,6 17,6 50 10,7 75 6,4 --- --- --- 0,5 10:21 07.05.2004
994,6 17,6 50 11,2 71 6,1 --- --- --- 0,5 10:36 07.05.2004
994,6 17,6 50 11,7 68 6,0 --- --- --- 0,5 10:51 07.05.2004
994,7 17,6 50 12,5 65 6,1 --- --- --- 0,5 11:06 07.05.2004
994,6 17,6 50 13,1 64 6,4 --- --- --- 0,5 11:21 07.05.2004
994,6 17,6 50 13,7 62 6,5 --- --- --- 0,5 11:36 07.05.2004
994,6 17,6 50 13,9 60 6,2 --- --- --- 0,5 11:51 07.05.2004
994,6 17,6 50 13,4 62 6,2 --- --- --- 0,5 12:06 07.05.2004
994,7 17,7 50 14,3 61 6,8 --- --- --- 0,5 12:21 07.05.2004
994,9 17,7 50 13,8 60 6,1 --- --- --- 0,5 12:36 07.05.2004
994,8 17,7 50 13,2 63 6,3 --- --- --- 0,5 12:51 07.05.2004
994,9 17,7 50 13,6 63 6,7 --- --- --- 0,5 13:06 07.05.2004
994,9 17,7 50 13,2 64 6,5 --- --- --- 0,5 13:21 07.05.2004
994,8 17,7 50 13,8 63 6,8 --- --- --- 0,5 13:36 07.05.2004
994,8 17,8 50 17,2 48 6,1 --- --- --- 0,5 13:51 07.05.2004
994,6 17,8 50 18,8 44 6,3 --- --- --- 0,5 14:06 07.05.2004
994,7 17,9 50 18,2 44 5,7 --- --- --- 0,5 14:21 07.05.2004
994,4 17,9 50 17,4 50 6,8 --- --- --- 0,5 14:36 07.05.2004
994,2 18,0 49 19,2 46 7,3 --- --- --- 0,5 14:51 07.05.2004
994,2 18,1 49 20,2 43 7,2 --- --- --- 0,5 15:06 07.05.2004
994,1 18,1 49 18,6 42 5,4 --- --- --- 0,5 15:21 07.05.2004
994,1 18,1 49 16,9 45 4,9 --- --- --- 0,5 15:36 07.05.2004
994,0 18,1 49 16,2 51 6,0 --- --- --- 0,5 15:51 07.05.2004
994,3 18,1 49 15,1 50 4,7 --- --- --- 0,5 16:06 07.05.2004
994,3 18,1 49 13,8 58 5,6 --- --- --- 0,5 16:21 07.05.2004
994,3 18,1 49 12,4 65 6,0 --- --- --- 0,5 16:36 07.05.2004
994,2 18,1 49 12,8 68 7,0 --- --- --- 0,5 16:51 07.05.2004
994,4 18,1 49 13,5 62 6,3 --- --- --- 0,5 17:06 07.05.2004
994,4 18,1 49 14,0 61 6,6 --- --- --- 0,5 17:21 07.05.2004
994,4 18,2 49 16,2 58 7,9 --- --- --- 0,5 17:36 07.05.2004
994,4 18,3 50 18,8 51 8,4 --- --- --- 0,5 17:51 07.05.2004
994,5 18,4 50 18,9 49 7,9 --- --- --- 0,5 18:06 07.05.2004
994,4 18,6 50 20,1 45 7,8 --- --- --- 0,5 18:21 07.05.2004
994,5 18,6 50 17,5 48 6,3 --- --- --- 0,5 18:36 07.05.2004
994,5 18,6 50 15,5 51 5,4 --- --- --- 0,5 18:51 07.05.2004
994,7 18,7 50 14,6 54 5,4 --- --- --- 0,5 19:06 07.05.2004
994,8 18,8 50 14,4 56 5,7 --- --- --- 0,5 19:21 07.05.2004
994,9 18,9 50 14,4 56 5,7 --- --- --- 0,5 19:36 07.05.2004
995,0 19,0 49 14,3 54 5,1 --- --- --- 0,5 19:51 07.05.2004
995,1 19,0 49 14,0 54 4,8 --- --- --- 0,5 20:06 07.05.2004
995,2 19,0 49 13,5 53 4,1 --- --- --- 0,5 20:21 07.05.2004
995,4 19,0 49 13,0 54 3,9 --- --- --- 0,5 20:36 07.05.2004
995,5 19,1 49 12,7 54 3,6 --- --- --- 0,5 20:51 07.05.2004
995,6 19,2 49 12,3 57 4,0 --- --- --- 0,5 21:06 07.05.2004
995,6 19,3 49 12,0 58 4,0 --- --- --- 0,5 21:21 07.05.2004
995,8 19,3 48 11,7 59 3,9 --- --- --- 0,5 21:36 07.05.2004
995,8 19,5 48 11,5 58 3,5 --- --- --- 0,5 21:51 07.05.2004
995,8 19,5 48 11,3 59 3,5 --- --- --- 0,5 22:06 07.05.2004
996,0 19,5 48 11,1 60 3,6 --- --- --- 0,5 22:21 07.05.2004
995,9 19,5 47 11,0 59 3,3 --- --- --- 0,5 22:36 07.05.2004
995,9 19,5 47 10,8 57 2,6 --- --- --- 0,5 22:51 07.05.2004
995,8 19,4 46 10,7 57 2,5 --- --- --- 0,5 23:06 07.05.2004
995,9 19,5 46 10,5 59 2,8 --- --- --- 0,5 23:21 07.05.2004
995,9 19,5 46 10,5 60 3,0 --- --- --- 0,5 23:36 07.05.2004
995,9 19,4 46 10,4 63 3,6 --- --- --- 0,5 23:51 07.05.2004
995,9 19,3 46 10,3 65 4,0 --- --- --- 0,5 00:06 08.05.2004
995,8 19,5 47 10,2 67 4,3 --- --- --- 0,5 00:21 08.05.2004
995,8 19,6 47 10,2 68 4,5 --- --- --- 0,5 00:36 08.05.2004
995,9 19,8 49 10,2 69 4,7 --- --- --- 0,5 00:51 08.05.2004
995,7 19,8 48 10,1 70 4,8 --- --- --- 0,5 01:06 08.05.2004
995,5 19,6 47 9,8 70 4,6 --- --- --- 0,5 01:21 08.05.2004
995,4 19,5 48 9,8 71 4,8 --- --- --- 0,5 01:36 08.05.2004
995,2 19,5 48 9,8 71 4,8 --- --- --- 0,5 01:51 08.05.2004
995,1 19,4 48 9,7 72 4,9 --- --- --- 0,5 02:06 08.05.2004
995,1 19,4 48 9,7 72 4,9 --- --- --- 0,5 02:21 08.05.2004
995,0 19,3 47 9,7 72 4,9 --- --- --- 0,5 02:36 08.05.2004
994,9 19,2 47 9,8 72 5,0 --- --- --- 0,5 02:51 08.05.2004
994,8 19,2 47 9,7 73 5,1 --- --- --- 0,5 03:06 08.05.2004
994,7 19,1 47 9,7 73 5,1 --- --- --- 0,5 03:21 08.05.2004
994,8 19,1 47 9,5 74 5,1 --- --- --- 0,5 03:36 08.05.2004
994,6 19,0 47 9,5 74 5,1 --- --- --- 0,5 03:51 08.05.2004
994,6 19,0 47 9,5 76 5,4 --- --- --- 0,5 04:06 08.05.2004
994,2 18,9 47 9,5 77 5,6 --- --- --- 0,5 04:21 08.05.2004
994,2 18,9 48 9,5 79 6,0 --- --- --- 0,5 04:36 08.05.2004
994,2 18,8 48 9,3 80 6,0 --- --- --- 0,5 04:51 08.05.2004
993,9 18,8 49 9,5 80 6,2 --- --- --- 0,5 05:06 08.05.2004
993,9 18,8 49 9,5 83 6,7 --- --- --- 0,5 05:21 08.05.2004
993,6 18,8 49 9,3 85 6,9 --- --- --- 0,5 05:36 08.05.2004
993,5 18,8 49 9,2 86 6,9 --- --- --- 0,5 05:51 08.05.2004
993,4 18,8 49 9,1 87 7,0 --- --- --- 0,5 06:06 08.05.2004
993,4 18,8 49 9,1 88 7,2 --- --- --- 0,5 06:21 08.05.2004
993,6 18,8 50 9,2 88 7,3 --- --- --- 0,5 06:36 08.05.2004
993,6 18,8 50 9,4 88 7,5 --- --- --- 0,5 06:51 08.05.2004
993,8 18,8 50 9,3 88 7,4 --- --- --- 0,5 07:06 08.05.2004
993,8 18,8 50 9,2 89 7,4 --- --- --- 0,5 07:21 08.05.2004
994,0 18,8 51 9,2 89 7,4 --- --- --- 0,5 07:36 08.05.2004
994,0 18,9 51 9,1 89 7,3 --- --- --- 0,5 07:51 08.05.2004
993,7 18,9 51 9,1 89 7,3 --- --- --- 0,5 08:06 08.05.2004
993,8 19,0 50 9,1 89 7,3 --- --- --- 0,5 08:21 08.05.2004
993,6 19,0 50 8,9 89 7,1 --- --- --- 0,5 08:36 08.05.2004
993,7 19,1 50 8,7 89 6,9 --- --- --- 0,5 08:51 08.05.2004
993,6 19,2 50 8,5 90 6,9 --- --- --- 0,5 09:06 08.05.2004
993,4 19,2 50 8,5 90 6,9 --- --- --- 0,5 09:21 08.05.2004
993,2 19,2 50 8,6 90 7,0 --- --- --- 0,5 09:36 08.05.2004
993,0 19,2 50 8,7 91 7,3 --- --- --- 0,5 09:51 08.05.2004
993,0 19,2 50 8,8 90 7,2 --- --- --- 0,5 10:06 08.05.2004
992,9 19,2 50 9,1 90 7,5 --- --- --- 0,5 10:21 08.05.2004
992,9 19,2 50 9,1 90 7,5 --- --- --- 0,5 10:36 08.05.2004
993,0 19,2 50 9,1 90 7,5 --- --- --- 0,5 10:51 08.05.2004
993,0 19,2 50 9,3 90 7,7 --- --- --- 0,5 11:06 08.05.2004
993,0 19,2 51 9,5 89 7,7 --- --- --- 0,5 11:21 08.05.2004
993,1 19,2 51 9,7 89 7,9 --- --- --- 0,5 11:36 08.05.2004
993,1 19,4 51 9,8 89 8,0 --- --- --- 0,5 11:51 08.05.2004
993,2 19,5 51 10,1 90 8,5 --- --- --- 0,5 12:06 08.05.2004
993,2 19,5 51 10,2 90 8,6 --- --- --- 0,5 12:21 08.05.2004
993,3 19,5 52 10,2 90 8,6 --- --- --- 0,5 12:36 08.05.2004
993,4 19,5 53 10,2 90 8,6 --- --- --- 0,5 12:51 08.05.2004
993,5 19,6 53 10,2 91 8,8 --- --- --- 0,5 13:06 08.05.2004
993,5 19,6 53 10,1 91 8,7 --- --- --- 0,5 13:21 08.05.2004
993,5 19,7 53 10,1 91 8,7 --- --- --- 0,5 13:36 08.05.2004
993,6 19,6 53 10,2 92 8,9 --- --- --- 0,5 13:51 08.05.2004
993,6 19,6 53 10,1 92 8,8 --- --- --- 0,5 14:06 08.05.2004
993,7 19,6 53 10,1 91 8,7 --- --- --- 0,5 14:21 08.05.2004
993,6 19,6 52 10,2 91 8,8 --- --- --- 0,5 14:36 08.05.2004
993,7 19,6 52 10,2 91 8,8 --- --- --- 0,5 14:51 08.05.2004
993,7 19,7 52 10,3 91 8,9 --- --- --- 0,5 15:06 08.05.2004
993,8 19,6 52 10,4 91 9,0 --- --- --- 0,5 15:21 08.05.2004
994,0 19,6 52 10,3 90 8,7 --- --- --- 0,5 15:36 08.05.2004
993,9 19,6 52 10,3 89 8,5 --- --- --- 0,5 15:51 08.05.2004
994,0 19,6 52 10,2 90 8,6 --- --- --- 0,5 16:06 08.05.2004
994,1 19,6 52 10,1 90 8,5 --- --- --- 0,5 16:21 08.05.2004
994,2 19,6 52 10,2 90 8,6 --- --- --- 0,5 16:36 08.05.2004
994,3 19,6 52 10,1 90 8,5 --- --- --- 0,5 16:51 08.05.2004
994,4 19,6 51 9,9 90 8,3 --- --- --- 0,5 17:06 08.05.2004
994,5 19,6 51 10,1 89 8,3 --- --- --- 0,5 17:21 08.05.2004
994,6 19,6 51 10,1 88 8,2 --- --- --- 0,5 17:36 08.05.2004
994,7 19,6 51 10,1 87 8,0 --- --- --- 0,5 17:51 08.05.2004
994,9 19,6 51 10,1 87 8,0 --- --- --- 0,5 18:06 08.05.2004
994,9 19,6 51 10,0 86 7,7 --- --- --- 0,5 18:21 08.05.2004
995,0 19,6 51 10,0 86 7,7 --- --- --- 0,5 18:36 08.05.2004
995,1 19,7 51 9,9 86 7,6 --- --- --- 0,5 18:51 08.05.2004
995,3 19,7 51 9,6 86 7,3 --- --- --- 0,5 19:06 08.05.2004
995,3 19,7 51 9,4 88 7,5 --- --- --- 0,5 19:21 08.05.2004
995,2 19,6 51 9,4 89 7,6 --- --- --- 0,5 19:36 08.05.2004
995,5 19,7 51 9,4 89 7,6 --- --- --- 0,5 19:51 08.05.2004
995,5 19,7 51 9,3 90 7,7 --- --- --- 0,5 20:06 08.05.2004
995,7 19,7 51 9,4 90 7,8 --- --- --- 0,5 20:21 08.05.2004
995,7 19,8 51 9,4 90 7,8 --- --- --- 0,5 20:36 08.05.2004
995,8 19,8 51 9,4 90 7,8 --- --- --- 0,5 20:51 08.05.2004
995,9 19,7 50 9,5 88 7,6 --- --- --- 0,5 21:06 08.05.2004
995,9 19,7 51 9,5 88 7,6 --- --- --- 0,5 21:21 08.05.2004
995,9 19,7 51 9,6 87 7,5 --- --- --- 0,5 21:36 08.05.2004
996,0 19,8 51 9,5 87 7,4 --- --- --- 0,5 21:51 08.05.2004
996,1 19,7 50 9,4 89 7,6 --- --- --- 0,5 22:06 08.05.2004
996,1 19,7 50 9,3 90 7,7 --- --- --- 0,5 22:21 08.05.2004
996,3 19,7 51 9,2 91 7,8 --- --- --- 0,5 22:36 08.05.2004
996,3 19,7 51 9,2 91 7,8 --- --- --- 0,5 22:51 08.05.2004
996,5 19,7 50 9,1 90 7,5 --- --- --- 0,5 23:06 08.05.2004
996,5 19,7 50 8,7 90 7,1 --- --- --- 0,5 23:21 08.05.2004
996,6 19,7 50 8,7 91 7,3 --- --- --- 0,5 23:36 08.05.2004
996,6 19,7 50 8,7 92 7,4 --- --- --- 0,5 23:51 08.05.2004
996,5 19,7 50 8,5 96 7,9 --- --- --- 0,5 00:06 09.05.2004
996,6 19,7 50 8,5 96 7,9 --- --- --- 0,5 00:21 09.05.2004
996,6 19,6 50 8,6 96 8,0 --- --- --- 0,5 00:36 09.05.2004
996,8 19,6 50 8,7 96 8,1 --- --- --- 0,5 00:51 09.05.2004
996,8 19,5 50 8,7 96 8,1 --- --- --- 0,5 01:06 09.05.2004
996,7 19,5 50 8,7 96 8,1 --- --- --- 0,5 01:21 09.05.2004
996,8 19,5 50 8,7 96 8,1 --- --- --- 0,5 01:36 09.05.2004
996,8 19,4 50 8,7 96 8,1 --- --- --- 0,5 01:51 09.05.2004
996,7 19,3 50 8,5 96 7,9 --- --- --- 0,5 02:06 09.05.2004
996,9 19,2 50 8,5 96 7,9 --- --- --- 0,5 02:21 09.05.2004
997,0 19,1 50 8,5 96 7,9 --- --- --- 0,5 02:36 09.05.2004
997,0 19,0 50 8,5 96 7,9 --- --- --- 0,5 02:51 09.05.2004
997,2 19,0 50 8,5 96 7,9 --- --- --- 0,5 03:06 09.05.2004
997,0 18,9 51 8,5 96 7,9 --- --- --- 0,5 03:21 09.05.2004
997,0 18,8 51 8,6 96 8,0 --- --- --- 0,5 03:36 09.05.2004
997,0 18,7 51 8,6 96 8,0 --- --- --- 0,5 03:51 09.05.2004
996,9 18,7 51 8,7 96 8,1 --- --- --- 0,5 04:06 09.05.2004
996,9 18,6 52 8,7 96 8,1 --- --- --- 0,5 04:21 09.05.2004
997,1 18,6 52 8,8 96 8,2 --- --- --- 0,5 04:36 09.05.2004
997,0 18,6 52 8,8 92 7,5 --- --- --- 0,5 04:51 09.05.2004
997,1 18,5 52 8,8 91 7,4 --- --- --- 0,5 05:06 09.05.2004
997,1 18,5 52 8,8 91 7,4 --- --- --- 0,5 05:21 09.05.2004
997,2 18,5 52 8,8 91 7,4 --- --- --- 0,5 05:36 09.05.2004
997,3 18,4 52 8,8 91 7,4 --- --- --- 0,5 05:51 09.05.2004
997,5 18,3 52 8,8 91 7,4 --- --- --- 0,5 06:06 09.05.2004
997,5 18,3 52 8,8 91 7,4 --- --- --- 0,5 06:21 09.05.2004
997,5 18,4 52 8,9 91 7,5 --- --- --- 0,5 06:36 09.05.2004
997,5 18,3 52 9,0 91 7,6 --- --- --- 0,5 06:51 09.05.2004
997,7 18,3 52 9,0 91 7,6 --- --- --- 0,5 07:06 09.05.2004
997,8 18,3 53 9,1 91 7,7 --- --- --- 0,5 07:21 09.05.2004
997,8 18,2 53 9,0 91 7,6 --- --- --- 0,5 07:36 09.05.2004
997,8 18,2 53 9,1 91 7,7 --- --- --- 0,5 07:51 09.05.2004
997,9 18,2 53 9,1 91 7,7 --- --- --- 0,5 08:06 09.05.2004
998,0 18,1 53 9,2 92 7,9 --- --- --- 0,5 08:21 09.05.2004
998,2 18,1 53 9,2 92 7,9 --- --- --- 0,5 08:36 09.05.2004
998,3 18,1 53 9,4 92 8,1 --- --- --- 0,5 08:51 09.05.2004
998,5 18,1 53 9,4 91 8,0 --- --- --- 0,5 09:06 09.05.2004
993,5 18,8 49 9,2 86 6,9 --- --- --- 0,5 05:51 08.05.2004
993,4 18,8 49 9,1 87 7,0 --- --- --- 0,5 06:06 08.05.2004
993,4 18,8 49 9,1 88 7,2 --- --- --- 0,5 06:21 08.05.2004
993,6 18,8 50 9,2 88 7,3 --- --- --- 0,5 06:36 08.05.2004
993,6 18,8 50 9,4 88 7,5 --- --- --- 0,5 06:51 08.05.2004
993,8 18,8 50 9,3 88 7,4 --- --- --- 0,5 07:06 08.05.2004
993,8 18,8 50 9,2 89 7,4 --- --- --- 0,5 07:21 08.05.2004
994,0 18,8 51 9,2 89 7,4 --- --- --- 0,5 07:36 08.05.2004
994,0 18,9 51 9,1 89 7,3 --- --- --- 0,5 07:51 08.05.2004
993,7 18,9 51 9,1 89 7,3 --- --- --- 0,5 08:06 08.05.2004
993,8 19,0 50 9,1 89 7,3 --- --- --- 0,5 08:21 08.05.2004
993,6 19,0 50 8,9 89 7,1 --- --- --- 0,5 08:36 08.05.2004
993,7 19,1 50 8,7 89 6,9 --- --- --- 0,5 08:51 08.05.2004
993,6 19,2 50 8,5 90 6,9 --- --- --- 0,5 09:06 08.05.2004
993,4 19,2 50 8,5 90 6,9 --- --- --- 0,5 09:21 08.05.2004
993,2 19,2 50 8,6 90 7,0 --- --- --- 0,5 09:36 08.05.2004
993,0 19,2 50 8,7 91 7,3 --- --- --- 0,5 09:51 08.05.2004
993,0 19,2 50 8,8 90 7,2 --- --- --- 0,5 10:06 08.05.2004
992,9 19,2 50 9,1 90 7,5 --- --- --- 0,5 10:21 08.05.2004
992,9 19,2 50 9,1 90 7,5 --- --- --- 0,5 10:36 08.05.2004
993,0 19,2 50 9,1 90 7,5 --- --- --- 0,5 10:51 08.05.2004
993,0 19,2 50 9,3 90 7,7 --- --- --- 0,5 11:06 08.05.2004
993,0 19,2 51 9,5 89 7,7 --- --- --- 0,5 11:21 08.05.2004
993,1 19,2 51 9,7 89 7,9 --- --- --- 0,5 11:36 08.05.2004
993,1 19,4 51 9,8 89 8,0 --- --- --- 0,5 11:51 08.05.2004
993,2 19,5 51 10,1 90 8,5 --- --- --- 0,5 12:06 08.05.2004
993,2 19,5 51 10,2 90 8,6 --- --- --- 0,5 12:21 08.05.2004
993,3 19,5 52 10,2 90 8,6 --- --- --- 0,5 12:36 08.05.2004
993,4 19,5 53 10,2 90 8,6 --- --- --- 0,5 12:51 08.05.2004
993,5 19,6 53 10,2 91 8,8 --- --- --- 0,5 13:06 08.05.2004
993,5 19,6 53 10,1 91 8,7 --- --- --- 0,5 13:21 08.05.2004
993,5 19,7 53 10,1 91 8,7 --- --- --- 0,5 13:36 08.05.2004
993,6 19,6 53 10,2 92 8,9 --- --- --- 0,5 13:51 08.05.2004
993,6 19,6 53 10,1 92 8,8 --- --- --- 0,5 14:06 08.05.2004
993,7 19,6 53 10,1 91 8,7 --- --- --- 0,5 14:21 08.05.2004
993,6 19,6 52 10,2 91 8,8 --- --- --- 0,5 14:36 08.05.2004
993,7 19,6 52 10,2 91 8,8 --- --- --- 0,5 14:51 08.05.2004
993,7 19,7 52 10,3 91 8,9 --- --- --- 0,5 15:06 08.05.2004
993,8 19,6 52 10,4 91 9,0 --- --- --- 0,5 15:21 08.05.2004
994,0 19,6 52 10,3 90 8,7 --- --- --- 0,5 15:36 08.05.2004
993,9 19,6 52 10,3 89 8,5 --- --- --- 0,5 15:51 08.05.2004
994,0 19,6 52 10,2 90 8,6 --- --- --- 0,5 16:06 08.05.2004
994,1 19,6 52 10,1 90 8,5 --- --- --- 0,5 16:21 08.05.2004
994,2 19,6 52 10,2 90 8,6 --- --- --- 0,5 16:36 08.05.2004
994,3 19,6 52 10,1 90 8,5 --- --- --- 0,5 16:51 08.05.2004
994,4 19,6 51 9,9 90 8,3 --- --- --- 0,5 17:06 08.05.2004
994,5 19,6 51 10,1 89 8,3 --- --- --- 0,5 17:21 08.05.2004
994,6 19,6 51 10,1 88 8,2 --- --- --- 0,5 17:36 08.05.2004
994,7 19,6 51 10,1 87 8,0 --- --- --- 0,5 17:51 08.05.2004
994,9 19,6 51 10,1 87 8,0 --- --- --- 0,5 18:06 08.05.2004
994,9 19,6 51 10,0 86 7,7 --- --- --- 0,5 18:21 08.05.2004
995,0 19,6 51 10,0 86 7,7 --- --- --- 0,5 18:36 08.05.2004
995,1 19,7 51 9,9 86 7,6 --- --- --- 0,5 18:51 08.05.2004
995,3 19,7 51 9,6 86 7,3 --- --- --- 0,5 19:06 08.05.2004
995,3 19,7 51 9,4 88 7,5 --- --- --- 0,5 19:21 08.05.2004
995,2 19,6 51 9,4 89 7,6 --- --- --- 0,5 19:36 08.05.2004
995,5 19,7 51 9,4 89 7,6 --- --- --- 0,5 19:51 08.05.2004
995,5 19,7 51 9,3 90 7,7 --- --- --- 0,5 20:06 08.05.2004
995,7 19,7 51 9,4 90 7,8 --- --- --- 0,5 20:21 08.05.2004
995,7 19,8 51 9,4 90 7,8 --- --- --- 0,5 20:36 08.05.2004
995,8 19,8 51 9,4 90 7,8 --- --- --- 0,5 20:51 08.05.2004
995,9 19,7 50 9,5 88 7,6 --- --- --- 0,5 21:06 08.05.2004
995,9 19,7 51 9,5 88 7,6 --- --- --- 0,5 21:21 08.05.2004
995,9 19,7 51 9,6 87 7,5 --- --- --- 0,5 21:36 08.05.2004
996,0 19,8 51 9,5 87 7,4 --- --- --- 0,5 21:51 08.05.2004
996,1 19,7 50 9,4 89 7,6 --- --- --- 0,5 22:06 08.05.2004
996,1 19,7 50 9,3 90 7,7 --- --- --- 0,5 22:21 08.05.2004
996,3 19,7 51 9,2 91 7,8 --- --- --- 0,5 22:36 08.05.2004
996,3 19,7 51 9,2 91 7,8 --- --- --- 0,5 22:51 08.05.2004
996,5 19,7 50 9,1 90 7,5 --- --- --- 0,5 23:06 08.05.2004
996,5 19,7 50 8,7 90 7,1 --- --- --- 0,5 23:21 08.05.2004
996,6 19,7 50 8,7 91 7,3 --- --- --- 0,5 23:36 08.05.2004
996,6 19,7 50 8,7 92 7,4 --- --- --- 0,5 23:51 08.05.2004
996,5 19,7 50 8,5 96 7,9 --- --- --- 0,5 00:06 09.05.2004
996,6 19,7 50 8,5 96 7,9 --- --- --- 0,5 00:21 09.05.2004
996,6 19,6 50 8,6 96 8,0 --- --- --- 0,5 00:36 09.05.2004
996,8 19,6 50 8,7 96 8,1 --- --- --- 0,5 00:51 09.05.2004
996,8 19,5 50 8,7 96 8,1 --- --- --- 0,5 01:06 09.05.2004
996,7 19,5 50 8,7 96 8,1 --- --- --- 0,5 01:21 09.05.2004
996,8 19,5 50 8,7 96 8,1 --- --- --- 0,5 01:36 09.05.2004
996,8 19,4 50 8,7 96 8,1 --- --- --- 0,5 01:51 09.05.2004
996,7 19,3 50 8,5 96 7,9 --- --- --- 0,5 02:06 09.05.2004
996,9 19,2 50 8,5 96 7,9 --- --- --- 0,5 02:21 09.05.2004
997,0 19,1 50 8,5 96 7,9 --- --- --- 0,5 02:36 09.05.2004
997,0 19,0 50 8,5 96 7,9 --- --- --- 0,5 02:51 09.05.2004
997,2 19,0 50 8,5 96 7,9 --- --- --- 0,5 03:06 09.05.2004
997,0 18,9 51 8,5 96 7,9 --- --- --- 0,5 03:21 09.05.2004
997,0 18,8 51 8,6 96 8,0 --- --- --- 0,5 03:36 09.05.2004
997,0 18,7 51 8,6 96 8,0 --- --- --- 0,5 03:51 09.05.2004
996,9 18,7 51 8,7 96 8,1 --- --- --- 0,5 04:06 09.05.2004
996,9 18,6 52 8,7 96 8,1 --- --- --- 0,5 04:21 09.05.2004
997,1 18,6 52 8,8 96 8,2 --- --- --- 0,5 04:36 09.05.2004
997,0 18,6 52 8,8 92 7,5 --- --- --- 0,5 04:51 09.05.2004
997,1 18,5 52 8,8 91 7,4 --- --- --- 0,5 05:06 09.05.2004
997,1 18,5 52 8,8 91 7,4 --- --- --- 0,5 05:21 09.05.2004
997,2 18,5 52 8,8 91 7,4 --- --- --- 0,5 05:36 09.05.2004
997,3 18,4 52 8,8 91 7,4 --- --- --- 0,5 05:51 09.05.2004
997,5 18,3 52 8,8 91 7,4 --- --- --- 0,5 06:06 09.05.2004
997,5 18,3 52 8,8 91 7,4 --- --- --- 0,5 06:21 09.05.2004
997,5 18,4 52 8,9 91 7,5 --- --- --- 0,5 06:36 09.05.2004
997,5 18,3 52 9,0 91 7,6 --- --- --- 0,5 06:51 09.05.2004
997,7 18,3 52 9,0 91 7,6 --- --- --- 0,5 07:06 09.05.2004
997,8 18,3 53 9,1 91 7,7 --- --- --- 0,5 07:21 09.05.2004
997,8 18,2 53 9,0 91 7,6 --- --- --- 0,5 07:36 09.05.2004
997,8 18,2 53 9,1 91 7,7 --- --- --- 0,5 07:51 09.05.2004
997,9 18,2 53 9,1 91 7,7 --- --- --- 0,5 08:06 09.05.2004
998,0 18,1 53 9,2 92 7,9 --- --- --- 0,5 08:21 09.05.2004
998,2 18,1 53 9,2 92 7,9 --- --- --- 0,5 08:36 09.05.2004
998,3 18,1 53 9,4 92 8,1 --- --- --- 0,5 08:51 09.05.2004
998,5 18,1 53 9,4 91 8,0 --- --- --- 0,5 09:06 09.05.2004
998,6 18,2 53 9,4 91 8,0 --- --- --- 0,5 09:21 09.05.2004
998,9 18,2 53 9,4 91 8,0 --- --- --- 0,5 09:36 09.05.2004
999,0 18,3 53 9,5 90 7,9 --- --- --- 0,5 09:51 09.05.2004
999,1 18,3 53 9,4 91 8,0 --- --- --- 0,5 10:06 09.05.2004
999,1 18,4 53 9,4 92 8,1 --- --- --- 0,5 10:21 09.05.2004
999,0 18,4 53 9,5 96 8,9 --- --- --- 0,5 10:36 09.05.2004
999,2 18,4 53 9,7 91 8,3 --- --- --- 0,5 10:51 09.05.2004
999,4 18,4 53 9,8 91 8,4 --- --- --- 0,5 11:06 09.05.2004
999,4 18,4 53 10,0 91 8,6 --- --- --- 0,5 11:21 09.05.2004
999,5 18,4 53 10,0 90 8,4 --- --- --- 0,5 11:36 09.05.2004
999,8 18,4 53 10,2 90 8,6 --- --- --- 0,5 11:51 09.05.2004
999,9 18,4 53 10,3 90 8,7 --- --- --- 0,5 12:06 09.05.2004
999,8 18,5 53 10,4 90 8,8 --- --- --- 0,5 12:21 09.05.2004
999,8 18,6 54 10,5 88 8,6 --- --- --- 0,5 12:36 09.05.2004
999,9 18,7 54 10,7 88 8,8 --- --- --- 0,5 12:51 09.05.2004
1000,0 18,8 54 10,8 87 8,7 --- --- --- 0,5 13:06 09.05.2004
1000,0 18,9 54 10,8 87 8,7 --- --- --- 0,5 13:21 09.05.2004
1000,1 19,0 54 10,9 86 8,6 --- --- --- 0,5 13:36 09.05.2004
1000,2 19,1 53 11,1 85 8,6 --- --- --- 0,5 13:51 09.05.2004
1000,2 19,1 53 11,3 84 8,7 --- --- --- 0,5 14:06 09.05.2004
1000,4 19,1 53 11,4 83 8,6 --- --- --- 0,5 14:21 09.05.2004
1000,4 19,0 54 11,3 83 8,5 --- --- --- 0,5 14:36 09.05.2004
1000,3 18,9 54 11,3 82 8,3 --- --- --- 0,5 14:51 09.05.2004
1000,4 18,9 55 11,5 81 8,3 --- --- --- 0,5 15:06 09.05.2004
1000,4 18,9 55 11,7 81 8,5 --- --- --- 0,5 15:21 09.05.2004
1000,5 18,8 54 11,5 80 8,1 --- --- --- 0,5 15:36 09.05.2004
1000,6 18,8 54 11,4 82 8,4 --- --- --- 0,5 15:51 09.05.2004
1000,7 18,8 54 11,5 81 8,3 --- --- --- 0,5 16:06 09.05.2004
1000,7 18,8 54 11,6 81 8,4 --- --- --- 0,5 16:21 09.05.2004
1000,7 18,7 54 11,4 82 8,4 --- --- --- 0,5 16:36 09.05.2004
1000,7 18,7 54 11,3 82 8,3 --- --- --- 0,5 16:51 09.05.2004
1000,7 18,8 55 11,2 83 8,4 --- --- --- 0,5 17:06 09.05.2004
1000,9 18,9 55 11,2 83 8,4 --- --- --- 0,5 17:21 09.05.2004
1000,7 19,1 54 11,3 83 8,5 --- --- --- 0,5 17:36 09.05.2004
1000,9 19,2 54 11,4 83 8,6 --- --- --- 0,5 17:51 09.05.2004
1000,7 19,3 54 11,4 83 8,6 --- --- --- 0,5 18:06 09.05.2004
1000,7 19,4 54 11,4 83 8,6 --- --- --- 0,5 18:21 09.05.2004
1000,8 19,4 54 11,4 83 8,6 --- --- --- 0,5 18:36 09.05.2004
1000,7 19,3 53 11,4 83 8,6 --- --- --- 0,5 18:51 09.05.2004
1000,8 19,3 53 11,4 84 8,8 --- --- --- 0,5 19:06 09.05.2004
1000,8 19,5 54 11,4 84 8,8 --- --- --- 0,5 19:21 09.05.2004
1001,0 19,6 54 11,4 84 8,8 --- --- --- 0,5 19:36 09.05.2004
1001,1 19,7 54 11,4 84 8,8 --- --- --- 0,5 19:51 09.05.2004
1001,2 19,7 54 11,4 84 8,8 --- --- --- 0,5 20:06 09.05.2004
1001,3 19,7 53 11,4 84 8,8 --- --- --- 0,5 20:21 09.05.2004
1001,4 19,6 53 11,3 84 8,7 --- --- --- 0,5 20:36 09.05.2004
1001,5 19,5 53 11,2 84 8,6 --- --- --- 0,5 20:51 09.05.2004
1001,4 19,6 53 11,2 85 8,7 --- --- --- 0,5 21:06 09.05.2004
1001,5 19,6 53 11,2 85 8,7 --- --- --- 0,5 21:21 09.05.2004
1001,6 19,7 54 11,2 85 8,7 --- --- --- 0,5 21:36 09.05.2004
1001,7 19,8 54 11,2 85 8,7 --- --- --- 0,5 21:51 09.05.2004
1001,8 19,8 54 11,1 85 8,6 --- --- --- 0,5 22:06 09.05.2004
1001,8 19,9 54 11,1 86 8,8 --- --- --- 0,5 22:21 09.05.2004
1001,8 20,0 54 11,1 86 8,8 --- --- --- 0,5 22:36 09.05.2004
1002,0 20,1 54 11,1 86 8,8 --- --- --- 0,5 22:51 09.05.2004
1001,9 20,1 53 11,1 86 8,8 --- --- --- 0,5 23:06 09.05.2004
1001,9 20,2 53 11,1 86 8,8 --- --- --- 0,5 23:21 09.05.2004
1001,9 20,2 53 11,1 86 8,8 --- --- --- 0,5 23:36 09.05.2004
1002,0 20,3 53 11,1 86 8,8 --- --- --- 0,5 23:51 09.05.2004
1002,0 20,3 53 11,1 86 8,8 --- --- --- 0,5 00:06 10.05.2004
1002,0 20,3 53 11,1 86 8,8 --- --- --- 0,5 00:21 10.05.2004
1002,0 20,3 53 11,1 86 8,8 --- --- --- 0,5 00:36 10.05.2004
1002,0 20,3 53 11,1 86 8,8 --- --- --- 0,5 00:51 10.05.2004
1002,0 20,3 53 11,0 86 8,7 --- --- --- 0,5 01:06 10.05.2004
1001,9 20,3 53 10,8 86 8,5 --- --- --- 0,5 01:21 10.05.2004
1001,9 20,2 52 10,5 85 8,0 --- --- --- 0,5 01:36 10.05.2004
1001,8 20,1 53 10,3 87 8,2 --- --- --- 0,5 01:51 10.05.2004
1001,8 20,1 53 10,3 88 8,4 --- --- --- 0,5 02:06 10.05.2004
1001,7 19,9 53 10,2 88 8,3 --- --- --- 0,5 02:21 10.05.2004
1001,7 19,8 53 10,2 89 8,4 --- --- --- 0,5 02:36 10.05.2004
1001,7 19,8 53 10,2 89 8,4 --- --- --- 0,5 02:51 10.05.2004
1001,6 19,7 53 10,2 89 8,4 --- --- --- 0,5 03:06 10.05.2004
1001,6 19,5 53 10,2 90 8,6 --- --- --- 0,5 03:21 10.05.2004
1001,5 19,5 53 10,3 90 8,7 --- --- --- 0,5 03:36 10.05.2004
1001,6 19,4 54 10,4 90 8,8 --- --- --- 0,5 03:51 10.05.2004
1001,7 19,3 54 10,4 90 8,8 --- --- --- 0,5 04:06 10.05.2004
1001,7 19,3 55 10,5 89 8,7 --- --- --- 0,5 04:21 10.05.2004
1001,6 19,3 55 10,6 89 8,8 --- --- --- 0,5 04:36 10.05.2004
1001,5 19,2 55 10,6 89 8,8 --- --- --- 0,5 04:51 10.05.2004
1001,4 19,1 55 10,6 89 8,8 --- --- --- 0,5 05:06 10.05.2004
1001,5 19,0 55 10,6 88 8,7 --- --- --- 0,5 05:21 10.05.2004
1001,4 19,0 55 10,7 88 8,8 --- --- --- 0,5 05:36 10.05.2004
1001,4 18,9 55 10,6 88 8,7 --- --- --- 0,5 05:51 10.05.2004
1001,5 18,9 56 10,6 89 8,8 --- --- --- 0,5 06:06 10.05.2004
1001,5 18,9 56 10,6 89 8,8 --- --- --- 0,5 06:21 10.05.2004
1001,6 18,8 56 10,5 89 8,7 --- --- --- 0,5 06:36 10.05.2004
1001,7 18,7 56 10,5 90 8,9 --- --- --- 0,5 06:51 10.05.2004
1001,8 18,7 56 10,5 90 8,9 --- --- --- 0,5 07:06 10.05.2004
1001,9 18,6 56 10,5 90 8,9 --- --- --- 0,5 07:21 10.05.2004
1001,8 18,5 56 10,5 90 8,9 --- --- --- 0,5 07:36 10.05.2004
1002,0 18,5 56 10,5 91 9,1 --- --- --- 0,5 07:51 10.05.2004
1002,1 18,5 56 10,8 91 9,4 --- --- --- 0,5 08:06 10.05.2004
1002,1 18,5 56 10,7 91 9,3 --- --- --- 0,5 08:21 10.05.2004
1002,1 18,4 56 10,8 91 9,4 --- --- --- 0,5 08:36 10.05.2004
1002,1 18,4 56 11,0 91 9,6 --- --- --- 0,5 08:51 10.05.2004
1002,2 18,4 56 11,1 91 9,7 --- --- --- 0,5 09:06 10.05.2004
1002,3 18,4 56 11,2 91 9,7 --- --- --- 0,5 09:21 10.05.2004
1002,4 18,5 57 11,3 91 9,8 --- --- --- 0,5 09:36 10.05.2004
1002,4 18,5 57 11,4 91 9,9 --- --- --- 0,5 09:51 10.05.2004
1002,5 18,6 57 11,4 91 9,9 --- --- --- 0,5 10:06 10.05.2004
1002,4 18,6 57 11,5 90 9,9 --- --- --- 0,5 10:21 10.05.2004
1002,5 18,7 57 11,6 90 10,0 --- --- --- 0,5 10:36 10.05.2004
1002,6 18,7 57 11,8 90 10,2 --- --- --- 0,5 10:51 10.05.2004
1002,7 18,8 57 12,1 90 10,5 --- --- --- 0,5 11:06 10.05.2004
1002,9 18,9 56 12,4 90 10,8 --- --- --- 0,5 11:21 10.05.2004
1002,8 18,9 56 12,7 88 10,7 --- --- --- 0,5 11:36 10.05.2004
1002,9 19,0 55 13,1 88 11,1 --- --- --- 0,5 11:51 10.05.2004
1003,0 19,0 55 13,3 87 11,1 --- --- --- 0,5 12:06 10.05.2004
1003,0 19,0 55 13,5 85 11,0 --- --- --- 0,5 12:21 10.05.2004
1003,0 19,0 55 14,1 85 11,6 --- --- --- 0,5 12:36 10.05.2004
1003,2 19,1 55 14,4 83 11,5 --- --- --- 0,5 12:51 10.05.2004
1003,2 19,1 55 14,7 81 11,4 --- --- --- 0,5 13:06 10.05.2004
1003,3 19,2 55 14,9 81 11,6 --- --- --- 0,5 13:21 10.05.2004
1003,3 19,2 55 14,7 79 11,1 --- --- --- 0,5 13:36 10.05.2004
1003,3 19,1 55 14,2 81 11,0 --- --- --- 0,5 13:51 10.05.2004
1003,4 19,1 55 14,7 81 11,4 --- --- --- 0,5 14:06 10.05.2004
1003,4 19,1 55 15,1 80 11,6 --- --- --- 0,5 14:21 10.05.2004
1003,3 19,2 55 16,0 78 12,1 --- --- --- 0,5 14:36 10.05.2004
1003,4 19,3 55 17,1 76 12,8 --- --- --- 0,5 14:51 10.05.2004
1003,5 19,5 55 18,8 70 13,2 --- --- --- 0,5 15:06 10.05.2004
1003,3 19,7 55 20,2 64 13,1 --- --- --- 0,5 15:21 10.05.2004
1003,4 19,7 55 20,8 61 13,0 --- --- --- 0,5 15:36 10.05.2004
1003,2 19,8 55 21,5 57 12,6 --- --- --- 0,5 15:51 10.05.2004
1003,2 20,0 56 21,2 57 12,3 --- --- --- 0,5 16:06 10.05.2004
1003,3 20,1 55 20,4 57 11,6 --- --- --- 0,5 16:21 10.05.2004
1003,3 20,2 55 24,8 51 14,0 --- --- --- 0,5 16:36 10.05.2004
1003,2 20,2 55 22,8 48 11,2 --- --- --- 0,5 16:51 10.05.2004
1003,4 20,2 55 19,8 54 10,2 --- --- --- 0,5 17:06 10.05.2004
1003,5 20,2 55 17,6 60 9,7 --- --- --- 0,5 17:21 10.05.2004
1003,5 20,3 55 16,7 63 9,6 --- --- --- 0,5 17:36 10.05.2004
1003,5 20,3 55 16,1 67 9,9 --- --- --- 0,5 17:51 10.05.2004
1003,7 20,3 56 15,6 69 9,9 --- --- --- 0,5 18:06 10.05.2004
1003,7 20,3 56 15,2 72 10,2 --- --- --- 0,5 18:21 10.05.2004
1003,8 20,3 56 15,0 74 10,4 --- --- --- 0,5 18:36 10.05.2004
1003,9 20,4 56 14,8 76 10,6 --- --- --- 0,5 18:51 10.05.2004
1003,9 20,4 56 14,6 76 10,4 --- --- --- 0,5 19:06 10.05.2004
1003,9 20,4 56 14,5 77 10,5 --- --- --- 0,5 19:21 10.05.2004
1004,0 20,4 56 14,4 79 10,8 --- --- --- 0,5 19:36 10.05.2004
1004,0 20,4 56 14,4 79 10,8 --- --- --- 0,5 19:51 10.05.2004
1004,1 20,4 56 14,3 80 10,9 --- --- --- 0,5 20:06 10.05.2004
1004,2 20,5 56 14,2 80 10,8 --- --- --- 0,5 20:21 10.05.2004
1004,3 20,5 56 14,2 80 10,8 --- --- --- 0,5 20:36 10.05.2004
1004,5 20,6 57 14,0 81 10,8 --- --- --- 0,5 20:51 10.05.2004
1004,5 20,6 57 13,8 81 10,6 --- --- --- 0,5 21:06 10.05.2004
1004,7 20,7 57 13,7 81 10,5 --- --- --- 0,5 21:21 10.05.2004
1004,9 20,7 57 13,5 82 10,5 --- --- --- 0,5 21:36 10.05.2004
1005,1 20,7 57 13,4 84 10,7 --- --- --- 0,5 21:51 10.05.2004
1005,2 20,6 57 13,1 84 10,4 --- --- --- 0,5 22:06 10.05.2004
1005,3 20,5 57 12,9 84 10,2 --- --- --- 0,5 22:21 10.05.2004
1005,6 20,5 57 12,7 85 10,2 --- --- --- 0,5 22:36 10.05.2004
1005,6 20,5 57 12,7 86 10,4 --- --- --- 0,5 22:51 10.05.2004
1005,7 20,4 57 12,8 86 10,5 --- --- --- 0,5 23:06 10.05.2004
1005,9 20,4 57 12,7 86 10,4 --- --- --- 0,5 23:21 10.05.2004
1006,0 20,5 58 12,8 86 10,5 --- --- --- 0,5 23:36 10.05.2004
1006,1 20,5 58 12,7 86 10,4 --- --- --- 0,5 23:51 10.05.2004
1006,3 20,4 58 12,5 87 10,4 --- --- --- 0,5 00:06 11.05.2004
1006,3 20,3 58 12,4 87 10,3 --- --- --- 0,5 00:21 11.05.2004
1006,4 20,3 58 12,2 87 10,1 --- --- --- 0,5 00:36 11.05.2004
1006,4 20,3 58 12,1 87 10,0 --- --- --- 0,5 00:51 11.05.2004
1006,6 20,3 58 11,8 88 9,8 --- --- --- 0,5 01:06 11.05.2004
1006,7 20,2 58 11,7 88 9,7 --- --- --- 0,5 01:21 11.05.2004
1006,7 20,2 58 11,7 88 9,7 --- --- --- 0,5 01:36 11.05.2004
1006,8 20,1 59 11,6 88 9,6 --- --- --- 0,5 01:51 11.05.2004
1006,8 20,1 59 11,6 88 9,6 --- --- --- 0,5 02:06 11.05.2004
1006,7 20,1 59 11,5 88 9,5 --- --- --- 0,5 02:21 11.05.2004
1006,7 20,1 60 11,4 89 9,6 --- --- --- 0,5 02:36 11.05.2004
1006,8 20,0 59 11,3 89 9,5 --- --- --- 0,5 02:51 11.05.2004
1006,7 20,1 60 11,2 90 9,6 --- --- --- 0,5 03:06 11.05.2004
1006,7 20,0 60 11,1 90 9,5 --- --- --- 0,5 03:21 11.05.2004
1006,6 20,0 59 10,9 90 9,3 --- --- --- 0,5 03:36 11.05.2004
1006,6 20,0 60 10,9 90 9,3 --- --- --- 0,5 03:51 11.05.2004
1006,5 20,0 60 10,8 90 9,2 --- --- --- 0,5 04:06 11.05.2004
1006,6 20,0 60 10,9 90 9,3 --- --- --- 0,5 04:21 11.05.2004
1006,6 20,0 60 10,9 91 9,5 --- --- --- 0,5 04:36 11.05.2004
1006,8 19,9 60 11,0 91 9,6 --- --- --- 0,5 04:51 11.05.2004
1006,8 19,9 59 11,0 91 9,6 --- --- --- 0,5 05:06 11.05.2004
1006,8 19,9 59 10,9 91 9,5 --- --- --- 0,5 05:21 11.05.2004
1006,9 19,8 59 10,8 91 9,4 --- --- --- 0,5 05:36 11.05.2004
1006,9 19,7 59 10,7 90 9,1 --- --- --- 0,5 05:51 11.05.2004
1007,0 19,7 59 10,6 90 9,0 --- --- --- 0,5 06:06 11.05.2004
1007,2 19,6 59 10,5 90 8,9 --- --- --- 0,5 06:21 11.05.2004
1007,2 19,5 59 10,2 91 8,8 --- --- --- 0,5 06:36 11.05.2004
1007,6 19,5 59 10,1 91 8,7 --- --- --- 0,5 06:51 11.05.2004
1007,5 19,5 59 10,1 92 8,8 --- --- --- 0,5 07:06 11.05.2004
1007,7 19,5 59 10,1 92 8,8 --- --- --- 0,5 07:21 11.05.2004
1007,8 19,5 58 10,4 93 9,3 --- --- --- 0,5 07:36 11.05.2004
1008,0 19,4 58 11,0 92 9,7 --- --- --- 0,5 07:51 11.05.2004
1008,2 19,4 58 11,5 91 10,0 --- --- --- 0,5 08:06 11.05.2004
1008,3 19,6 58 12,1 91 10,6 --- --- --- 0,5 08:21 11.05.2004
1008,4 19,6 58 12,2 91 10,7 --- --- --- 0,5 08:36 11.05.2004
1008,7 19,6 58 12,4 90 10,8 --- --- --- 0,5 08:51 11.05.2004
1008,7 19,5 58 12,6 90 11,0 --- --- --- 0,5 09:06 11.05.2004
1008,8 19,5 58 13,3 91 11,8 --- --- --- 0,5 09:21 11.05.2004
1008,9 19,5 58 13,9 89 12,1 --- --- --- 0,5 09:36 11.05.2004
1009,1 19,6 59 14,4 87 12,2 --- --- --- 0,5 09:51 11.05.2004
1009,1 19,7 59 14,8 84 12,1 --- --- --- 0,5 10:06 11.05.2004
1009,3 19,8 59 15,3 82 12,2 --- --- --- 0,5 10:21 11.05.2004
1009,3 19,8 59 15,5 79 11,8 --- --- --- 0,5 10:36 11.05.2004
1009,5 19,9 59 15,7 78 11,8 --- --- --- 0,5 10:51 11.05.2004
1009,6 20,0 59 16,2 77 12,1 --- --- --- 0,5 11:06 11.05.2004
1009,6 20,0 59 16,7 74 12,0 --- --- --- 0,5 11:21 11.05.2004
1009,7 20,1 59 17,4 73 12,5 --- --- --- 0,5 11:36 11.05.2004
1009,8 20,1 59 18,0 70 12,4 --- --- --- 0,5 11:51 11.05.2004
1009,9 20,2 59 18,1 69 12,3 --- --- --- 0,5 12:06 11.05.2004
1009,9 20,2 59 18,2 68 12,2 --- --- --- 0,5 12:21 11.05.2004
1009,9 20,2 59 18,9 67 12,6 --- --- --- 0,5 12:36 11.05.2004
1009,8 20,3 59 20,1 63 12,8 --- --- --- 0,5 12:51 11.05.2004
1009,8 20,3 59 20,9 61 13,1 --- --- --- 0,5 13:06 11.05.2004
1009,8 20,3 59 23,5 54 13,6 --- --- --- 0,5 13:21 11.05.2004
1009,7 20,3 59 26,5 42 12,5 --- --- --- 0,5 13:36 11.05.2004
1009,6 20,3 59 28,4 39 13,1 --- --- --- 0,5 13:51 11.05.2004
1009,6 20,4 59 28,8 38 13,1 --- --- --- 0,5 14:06 11.05.2004
1009,5 20,5 59 29,5 33 11,5 --- --- --- 0,5 14:21 11.05.2004
1009,5 20,5 59 25,8 39 10,8 --- --- --- 0,5 14:36 11.05.2004
1009,3 20,6 58 24,5 41 10,4 --- --- --- 0,5 14:51 11.05.2004
1009,1 20,7 58 25,3 40 10,7 --- --- --- 0,5 15:06 11.05.2004
1009,2 20,7 58 26,3 39 11,2 --- --- --- 0,5 15:21 11.05.2004
1009,2 20,8 58 25,1 41 10,9 --- --- --- 0,5 15:36 11.05.2004
1009,1 20,9 58 25,6 39 10,6 --- --- --- 0,5 15:51 11.05.2004
1009,2 21,1 57 27,9 34 10,6 --- --- --- 0,5 16:06 11.05.2004
1008,9 21,2 57 29,2 33 11,3 --- --- --- 0,5 16:21 11.05.2004
1008,7 21,3 57 29,2 34 11,7 --- --- --- 0,5 16:36 11.05.2004
1008,8 21,4 56 31,2 30 11,6 --- --- --- 0,5 16:51 11.05.2004
1008,7 21,5 57 29,8 30 10,3 --- --- --- 0,5 17:06 11.05.2004
1008,7 21,5 57 28,1 33 10,3 --- --- --- 0,5 17:21 11.05.2004
1008,7 21,6 57 30,4 33 12,3 --- --- --- 0,5 17:36 11.05.2004
1008,7 21,6 57 28,8 33 10,9 --- --- --- 0,5 17:51 11.05.2004
1008,9 21,6 56 27,9 33 10,1 --- --- --- 0,5 18:06 11.05.2004
1008,7 21,6 57 27,7 33 10,0 --- --- --- 0,5 18:21 11.05.2004
1008,8 21,6 57 25,4 36 9,2 --- --- --- 0,5 18:36 11.05.2004
1008,9 21,8 55 25,1 39 10,2 --- --- --- 0,5 18:51 11.05.2004
1008,9 21,9 54 24,1 41 10,0 --- --- --- 0,5 19:06 11.05.2004
1008,9 21,8 53 23,5 41 9,5 --- --- --- 0,5 19:21 11.05.2004
1009,2 21,7 53 22,5 43 9,3 --- --- --- 0,5 19:36 11.05.2004
1009,1 21,7 53 21,8 45 9,3 --- --- --- 0,5 19:51 11.05.2004
1009,2 21,6 52 21,5 46 9,4 --- --- --- 0,5 20:06 11.05.2004
1009,3 21,5 52 20,3 50 9,5 --- --- --- 0,5 20:21 11.05.2004
1009,5 21,3 52 19,1 52 9,0 --- --- --- 0,5 20:36 11.05.2004
1009,8 21,2 52 18,1 55 8,9 --- --- --- 0,5 20:51 11.05.2004
1010,0 21,1 52 17,2 58 8,8 --- --- --- 0,5 21:06 11.05.2004
1010,2 20,9 53 16,5 60 8,7 --- --- --- 0,5 21:21 11.05.2004
1010,3 20,7 53 15,7 62 8,4 --- --- --- 0,5 21:36 11.05.2004
1010,5 20,7 53 15,2 64 8,4 --- --- --- 0,5 21:51 11.05.2004
1010,6 20,6 53 14,8 65 8,3 --- --- --- 0,5 22:06 11.05.2004
1010,8 20,5 54 14,4 67 8,3 --- --- --- 0,5 22:21 11.05.2004
1010,9 20,6 54 14,2 68 8,3 --- --- --- 0,5 22:36 11.05.2004
1010,9 20,7 55 14,1 69 8,5 --- --- --- 0,5 22:51 11.05.2004
1011,0 20,8 56 13,8 70 8,4 --- --- --- 0,5 23:06 11.05.2004
1011,1 21,0 55 13,5 71 8,3 --- --- --- 0,5 23:21 11.05.2004
1011,3 21,0 55 13,3 72 8,3 --- --- --- 0,5 23:36 11.05.2004
1011,4 20,9 56 13,2 73 8,4 --- --- --- 0,5 23:51 11.05.2004
1011,4 20,9 56 13,1 73 8,3 --- --- --- 0,5 00:06 12.05.2004
1011,4 20,9 56 13,0 73 8,2 --- --- --- 0,5 00:21 12.05.2004
1011,4 20,9 56 12,9 74 8,3 --- --- --- 0,5 00:36 12.05.2004
1011,5 20,9 56 12,8 74 8,2 --- --- --- 0,5 00:51 12.05.2004
1011,5 20,9 56 12,7 75 8,3 --- --- --- 0,5 01:06 12.05.2004
1011,3 20,9 56 12,5 75 8,2 --- --- --- 0,5 01:21 12.05.2004
1011,4 20,9 56 12,5 76 8,4 --- --- --- 0,5 01:36 12.05.2004
1011,3 20,9 57 12,4 76 8,3 --- --- --- 0,5 01:51 12.05.2004
1011,4 20,9 57 12,2 75 7,9 --- --- --- 0,5 02:06 12.05.2004
1011,3 20,9 57 12,1 75 7,8 --- --- --- 0,5 02:21 12.05.2004
1011,2 20,9 57 11,9 76 7,8 --- --- --- 0,5 02:36 12.05.2004
1011,1 20,9 57 11,8 75 7,5 --- --- --- 0,5 02:51 12.05.2004
1011,1 20,9 57 11,7 76 7,6 --- --- --- 0,5 03:06 12.05.2004
1011,1 21,0 56 11,5 76 7,4 --- --- --- 0,5 03:21 12.05.2004
1011,1 21,0 56 11,4 76 7,3 --- --- --- 0,5 03:36 12.05.2004
1011,1 20,9 57 11,4 77 7,5 --- --- --- 0,5 03:51 12.05.2004
1011,2 20,8 56 11,3 77 7,4 --- --- --- 0,5 04:06 12.05.2004
1011,2 20,7 56 11,1 74 6,6 --- --- --- 0,5 04:21 12.05.2004
1011,1 20,7 56 10,8 73 6,1 --- --- --- 0,5 04:36 12.05.2004
1011,0 20,6 56 10,7 72 5,8 --- --- --- 0,5 04:51 12.05.2004
1010,9 20,6 55 10,4 73 5,7 --- --- --- 0,5 05:06 12.05.2004
1011,0 20,5 55 10,2 72 5,3 --- --- --- 0,5 05:21 12.05.2004
1011,0 20,5 55 10,0 72 5,1 --- --- --- 0,5 05:36 12.05.2004
1011,1 20,4 55 9,7 71 4,7 --- --- --- 0,5 05:51 12.05.2004
1011,2 20,4 55 9,4 72 4,6 --- --- --- 0,5 06:06 12.05.2004
1011,2 20,3 55 9,3 73 4,7 --- --- --- 0,5 06:21 12.05.2004
1011,4 20,3 55 9,2 73 4,6 --- --- --- 0,5 06:36 12.05.2004
1011,3 20,2 54 9,2 73 4,6 --- --- --- 0,5 06:51 12.05.2004
1011,4 20,1 54 9,2 73 4,6 --- --- --- 0,5 07:06 12.05.2004
1011,5 20,1 54 9,2 72 4,4 --- --- --- 0,5 07:21 12.05.2004
1011,6 20,0 54 9,2 72 4,4 --- --- --- 0,5 07:36 12.05.2004
1011,5 19,9 54 9,4 72 4,6 --- --- --- 0,5 07:51 12.05.2004
1011,5 19,9 54 9,7 71 4,7 --- --- --- 0,5 08:06 12.05.2004
1011,8 19,8 53 10,1 71 5,0 --- --- --- 0,5 08:21 12.05.2004
1011,9 19,6 52 10,2 70 4,9 --- --- --- 0,5 08:36 12.05.2004
1011,9 19,4 51 10,5 70 5,2 --- --- --- 0,5 08:51 12.05.2004
1012,1 19,2 49 10,6 68 4,9 --- --- --- 0,5 09:06 12.05.2004
1012,1 19,2 49 11,2 68 5,5 --- --- --- 0,5 09:21 12.05.2004
1012,1 19,2 49 11,4 66 5,2 --- --- --- 0,5 09:36 12.05.2004
1012,1 19,0 48 11,2 65 4,8 --- --- --- 0,5 09:51 12.05.2004
1012,0 19,0 48 11,1 65 4,7 --- --- --- 0,5 10:06 12.05.2004
1011,9 19,0 48 11,1 66 5,0 --- --- --- 0,5 10:21 12.05.2004
1012,0 19,0 48 11,4 66 5,2 --- --- --- 0,5 10:36 12.05.2004
1011,9 19,1 49 12,1 66 5,9 --- --- --- 0,5 10:51 12.05.2004
1011,9 19,4 51 12,4 63 5,5 --- --- --- 0,5 11:06 12.05.2004
1011,7 19,5 50 12,3 62 5,2 --- --- --- 0,5 11:21 12.05.2004
1011,6 19,5 50 12,6 63 5,7 --- --- --- 0,5 11:36 12.05.2004
1011,8 19,5 50 12,9 61 5,5 --- --- --- 0,5 11:51 12.05.2004
1011,5 19,7 51 13,1 60 5,5 --- --- --- 0,5 12:06 12.05.2004
1011,5 19,8 52 13,4 60 5,8 --- --- --- 0,5 12:21 12.05.2004
1011,5 20,0 52 13,9 60 6,2 --- --- --- 0,5 12:36 12.05.2004
1011,4 20,0 52 14,8 58 6,6 --- --- --- 0,5 12:51 12.05.2004
1011,2 20,1 51 15,9 56 7,1 --- --- --- 0,5 13:06 12.05.2004
1011,3 20,2 51 17,1 52 7,1 --- --- --- 0,5 13:21 12.05.2004
1011,1 20,3 51 18,3 50 7,7 --- --- --- 0,5 13:36 12.05.2004
1010,9 20,3 51 19,9 46 7,9 --- --- --- 0,5 13:51 12.05.2004
1010,8 20,3 51 20,7 44 8,0 --- --- --- 0,5 14:06 12.05.2004
1010,5 20,4 51 21,6 41 7,8 --- --- --- 0,5 14:21 12.05.2004
1010,5 20,5 51 22,7 39 8,0 --- --- --- 0,5 14:36 12.05.2004
1010,4 20,5 51 23,3 37 7,8 --- --- --- 0,5 14:51 12.05.2004
1010,2 20,6 50 23,9 36 7,9 --- --- --- 0,5 15:06 12.05.2004
1010,0 20,7 50 24,8 34 7,9 --- --- --- 0,5 15:21 12.05.2004
1010,0 20,8 49 25,5 32 7,6 --- --- --- 0,5 15:36 12.05.2004
1009,7 20,9 49 26,1 32 8,1 --- --- --- 0,5 15:51 12.05.2004
1009,7 21,1 48 26,9 32 8,8 --- --- --- 0,5 16:06 12.05.2004
1009,8 21,3 48 27,1 30 8,0 --- --- --- 0,5 16:21 12.05.2004
1009,5 21,4 48 27,1 30 8,0 --- --- --- 0,5 16:36 12.05.2004
1009,6 21,6 48 27,1 29 7,5 --- --- --- 0,5 16:51 12.05.2004
1009,5 21,7 48 26,6 29 7,1 --- --- --- 0,5 17:06 12.05.2004
1009,4 21,7 48 26,2 30 7,2 --- --- --- 0,5 17:21 12.05.2004
1009,4 21,8 47 25,7 31 7,3 --- --- --- 0,5 17:36 12.05.2004
1009,3 21,9 47 25,1 32 7,2 --- --- --- 0,5 17:51 12.05.2004
1009,4 21,8 46 24,7 33 7,3 --- --- --- 0,5 18:06 12.05.2004
1009,3 22,0 46 24,8 34 7,9 --- --- --- 0,5 18:21 12.05.2004
1009,2 22,1 46 24,6 34 7,7 --- --- --- 0,5 18:36 12.05.2004
1009,2 22,1 45 24,2 35 7,8 --- --- --- 0,5 18:51 12.05.2004
1009,3 22,0 44 22,8 36 6,9 --- --- --- 0,5 19:06 12.05.2004
1009,3 21,9 45 21,2 39 6,7 --- --- --- 0,5 19:21 12.05.2004
1009,4 21,8 45 19,9 41 6,2 --- --- --- 0,5 19:36 12.05.2004
1009,5 21,6 44 18,3 44 5,8 --- --- --- 0,5 19:51 12.05.2004
1009,6 21,6 44 17,4 47 5,9 --- --- --- 0,5 20:06 12.05.2004
1009,6 21,5 44 16,5 48 5,4 --- --- --- 0,5 20:21 12.05.2004
1009,8 21,4 44 15,7 49 5,0 --- --- --- 0,5 20:36 12.05.2004
1010,0 21,4 44 15,2 51 5,1 --- --- --- 0,5 20:51 12.05.2004
1010,1 21,3 43 14,3 54 5,1 --- --- --- 0,5 21:06 12.05.2004
1010,3 21,2 44 13,6 56 5,0 --- --- --- 0,5 21:21 12.05.2004
1010,2 21,3 45 12,9 59 5,0 --- --- --- 0,5 21:36 12.05.2004
1010,5 21,3 46 12,7 60 5,1 --- --- --- 0,5 21:51 12.05.2004
1010,5 21,3 47 12,5 61 5,1 --- --- --- 0,5 22:06 12.05.2004
1010,8 21,3 47 12,2 63 5,3 --- --- --- 0,5 22:21 12.05.2004
1011,0 21,3 47 11,9 65 5,5 --- --- --- 0,5 22:36 12.05.2004
1011,1 21,2 48 11,7 67 5,7 --- --- --- 0,5 22:51 12.05.2004
1011,0 21,2 48 11,4 69 5,9 --- --- --- 0,5 23:06 12.05.2004
1011,2 21,2 48 11,4 66 5,2 --- --- --- 0,5 23:21 12.05.2004
1011,2 21,2 48 11,4 66 5,2 --- --- --- 0,5 23:36 12.05.2004
1011,3 21,1 48 11,4 66 5,2 --- --- --- 0,5 23:51 12.05.2004
1011,3 21,0 48 11,3 66 5,1 --- --- --- 0,5 00:06 13.05.2004
1011,4 21,0 48 11,2 65 4,8 --- --- --- 0,5 00:21 13.05.2004
1011,4 21,0 48 11,1 65 4,7 --- --- --- 0,5 00:36 13.05.2004
1011,5 20,9 49 11,1 64 4,5 --- --- --- 0,5 00:51 13.05.2004
1011,4 20,9 49 11,0 63 4,2 --- --- --- 0,5 01:06 13.05.2004
1011,5 20,8 49 10,9 62 3,9 --- --- --- 0,5 01:21 13.05.2004
1011,2 20,8 49 10,9 62 3,9 --- --- --- 0,5 01:36 13.05.2004
1011,2 20,7 49 10,7 61 3,4 --- --- --- 0,5 01:51 13.05.2004
1011,3 20,7 49 10,4 62 3,4 --- --- --- 0,5 02:06 13.05.2004
1011,5 20,6 49 10,4 63 3,6 --- --- --- 0,5 02:21 13.05.2004
1011,5 20,5 49 10,3 64 3,8 --- --- --- 0,5 02:36 13.05.2004
1011,4 20,5 49 10,1 64 3,6 --- --- --- 0,5 02:51 13.05.2004
1011,2 20,5 49 9,5 65 3,2 --- --- --- 0,5 03:06 13.05.2004
1011,2 20,5 49 9,2 67 3,4 --- --- --- 0,5 03:21 13.05.2004
1011,0 20,4 49 8,9 68 3,3 --- --- --- 0,5 03:36 13.05.2004
1011,0 20,3 49 8,7 69 3,3 --- --- --- 0,5 03:51 13.05.2004
1011,1 20,3 49 8,5 71 3,5 --- --- --- 0,5 04:06 13.05.2004
1010,9 20,2 49 8,4 72 3,6 --- --- --- 0,5 04:21 13.05.2004
1010,8 20,2 49 8,6 72 3,8 --- --- --- 0,5 04:36 13.05.2004
1010,7 20,1 49 8,8 73 4,2 --- --- --- 0,5 04:51 13.05.2004
1010,6 20,1 49 9,1 74 4,7 --- --- --- 0,5 05:06 13.05.2004
1010,6 20,1 49 9,3 74 4,9 --- --- --- 0,5 05:21 13.05.2004
1010,5 20,0 49 9,3 74 4,9 --- --- --- 0,5 05:36 13.05.2004
1010,7 19,9 49 9,3 74 4,9 --- --- --- 0,5 05:51 13.05.2004
1010,7 19,8 49 9,3 73 4,7 --- --- --- 0,5 06:06 13.05.2004
1010,9 19,8 49 9,4 72 4,6 --- --- --- 0,5 06:21 13.05.2004
1010,9 19,8 49 9,4 72 4,6 --- --- --- 0,5 06:36 13.05.2004
1011,0 19,8 49 9,5 70 4,3 --- --- --- 0,5 06:51 13.05.2004
1011,1 19,8 50 9,5 70 4,3 --- --- --- 0,5 07:06 13.05.2004
1011,1 19,8 49 9,7 70 4,5 --- --- --- 0,5 07:21 13.05.2004
1011,3 19,7 49 10,0 70 4,7 --- --- --- 0,5 07:36 13.05.2004
1011,4 19,8 50 10,1 70 4,8 --- --- --- 0,5 07:51 13.05.2004
1011,5 19,7 50 10,1 70 4,8 --- --- --- 0,5 08:06 13.05.2004
1011,6 19,6 50 10,1 70 4,8 --- --- --- 0,5 08:21 13.05.2004
1011,8 19,6 49 10,1 70 4,8 --- --- --- 0,5 08:36 13.05.2004
1011,9 19,5 49 10,2 70 4,9 --- --- --- 0,5 08:51 13.05.2004
1012,0 19,4 49 10,3 70 5,0 --- --- --- 0,5 09:06 13.05.2004
1012,2 19,4 48 10,5 69 5,0 --- --- --- 0,5 09:21 13.05.2004
1012,3 19,4 49 10,7 68 5,0 --- --- --- 0,5 09:36 13.05.2004
1012,3 19,3 49 11,1 67 5,2 --- --- --- 0,5 09:51 13.05.2004
1012,3 19,3 49 11,2 66 5,0 --- --- --- 0,5 10:06 13.05.2004
1012,3 19,3 49 11,2 64 4,6 --- --- --- 0,5 10:21 13.05.2004
1012,3 19,3 49 11,2 63 4,4 --- --- --- 0,5 10:36 13.05.2004
1012,4 19,2 49 11,3 61 4,0 --- --- --- 0,5 10:51 13.05.2004
1012,5 19,2 49 11,5 58 3,5 --- --- --- 0,5 11:06 13.05.2004
1012,5 19,2 48 11,5 58 3,5 --- --- --- 0,5 11:21 13.05.2004
1012,5 19,2 48 11,5 59 3,7 --- --- --- 0,5 11:36 13.05.2004
1012,6 19,1 48 11,5 58 3,5 --- --- --- 0,5 11:51 13.05.2004
1012,5 19,3 48 11,7 58 3,7 --- --- --- 0,5 12:06 13.05.2004
1012,6 19,3 48 11,8 58 3,8 --- --- --- 0,5 12:21 13.05.2004
1012,6 19,4 48 11,9 57 3,6 --- --- --- 0,5 12:36 13.05.2004
1012,6 19,4 48 12,2 57 3,9 --- --- --- 0,5 12:51 13.05.2004
1012,5 19,4 48 12,4 57 4,1 --- --- --- 0,5 13:06 13.05.2004
1012,5 19,4 47 12,5 55 3,7 --- --- --- 0,5 13:21 13.05.2004
1012,6 19,4 47 12,7 55 3,9 --- --- --- 0,5 13:36 13.05.2004
1012,6 19,4 47 12,7 56 4,1 --- --- --- 0,5 13:51 13.05.2004
1012,7 19,4 47 12,8 56 4,2 --- --- --- 0,5 14:06 13.05.2004
1012,6 19,4 47 12,8 56 4,2 --- --- --- 0,5 14:21 13.05.2004
1012,5 19,5 47 12,8 56 4,2 --- --- --- 0,5 14:36 13.05.2004
1012,6 19,5 47 12,9 55 4,0 --- --- --- 0,5 14:51 13.05.2004
1012,6 19,5 47 13,0 56 4,4 --- --- --- 0,5 15:06 13.05.2004
1012,6 19,6 47 13,5 56 4,9 --- --- --- 0,5 15:21 13.05.2004
1012,7 19,6 46 14,0 53 4,5 --- --- --- 0,5 15:36 13.05.2004
1012,7 19,6 46 13,5 53 4,1 --- --- --- 0,5 15:51 13.05.2004
1012,7 19,6 46 13,1 54 4,0 --- --- --- 0,5 16:06 13.05.2004
1012,8 19,7 46 12,9 54 3,8 --- --- --- 0,5 16:21 13.05.2004
1012,7 19,6 46 12,8 55 4,0 --- --- --- 0,5 16:36 13.05.2004
1012,8 19,6 46 13,0 55 4,1 --- --- --- 0,5 16:51 13.05.2004
1012,7 19,6 46 13,1 55 4,2 --- --- --- 0,5 17:06 13.05.2004
1012,6 19,7 46 13,1 55 4,2 --- --- --- 0,5 17:21 13.05.2004
1012,8 19,7 46 13,1 55 4,2 --- --- --- 0,5 17:36 13.05.2004
1012,7 19,7 46 13,0 56 4,4 --- --- --- 0,5 17:51 13.05.2004
1012,5 19,8 46 13,4 56 4,8 --- --- --- 0,5 18:06 13.05.2004
1012,4 19,8 46 13,7 54 4,5 --- --- --- 0,5 18:21 13.05.2004
1012,5 19,9 47 14,1 54 4,9 --- --- --- 0,5 18:36 13.05.2004
1012,4 20,0 47 13,7 53 4,3 --- --- --- 0,5 18:51 13.05.2004
1012,6 20,0 48 13,2 54 4,1 --- --- --- 0,5 19:06 13.05.2004
1012,5 20,1 49 12,9 55 4,0 --- --- --- 0,5 19:21 13.05.2004
1012,5 20,1 49 12,8 54 3,7 --- --- --- 0,5 19:36 13.05.2004
1012,5 20,2 49 12,7 55 3,9 --- --- --- 0,5 19:51 13.05.2004
1012,5 20,2 49 12,5 55 3,7 --- --- --- 0,5 20:06 13.05.2004
1012,5 20,2 49 12,4 57 4,1 --- --- --- 0,5 20:21 13.05.2004
1012,6 20,2 50 12,3 57 4,0 --- --- --- 0,5 20:36 13.05.2004
1012,6 20,2 49 12,1 57 3,8 --- --- --- 0,5 20:51 13.05.2004
1012,6 20,2 50 12,0 57 3,7 --- --- --- 0,5 21:06 13.05.2004
1012,6 20,2 50 11,8 58 3,8 --- --- --- 0,5 21:21 13.05.2004
1012,9 20,2 50 11,8 59 4,0 --- --- --- 0,5 21:36 13.05.2004
1013,1 20,2 50 11,7 59 3,9 --- --- --- 0,5 21:51 13.05.2004
1013,3 20,2 50 11,6 60 4,1 --- --- --- 0,5 22:06 13.05.2004
1013,5 20,1 50 11,5 60 4,0 --- --- --- 0,5 22:21 13.05.2004
1013,6 20,0 50 11,5 62 4,4 --- --- --- 0,5 22:36 13.05.2004
1013,7 19,9 50 11,3 62 4,2 --- --- --- 0,5 22:51 13.05.2004
1013,8 20,0 50 11,3 63 4,5 --- --- --- 0,5 23:06 13.05.2004
1013,9 20,0 50 11,2 64 4,6 --- --- --- 0,5 23:21 13.05.2004
1013,8 20,0 50 11,1 65 4,7 --- --- --- 0,5 23:36 13.05.2004
1013,8 20,0 50 11,1 65 4,7 --- --- --- 0,5 23:51 13.05.2004
1013,9 20,0 50 11,1 65 4,7 --- --- --- 0,5 00:06 14.05.2004
1013,9 20,0 50 11,1 66 5,0 --- --- --- 0,5 00:21 14.05.2004
1014,0 19,9 50 10,9 66 4,8 --- --- --- 0,5 00:36 14.05.2004
1014,0 19,8 50 10,5 66 4,4 --- --- --- 0,5 00:51 14.05.2004
1014,1 19,8 50 10,1 68 4,4 --- --- --- 0,5 01:06 14.05.2004
1014,1 19,8 50 9,4 70 4,2 --- --- --- 0,5 01:21 14.05.2004
1014,1 19,8 50 8,8 71 3,8 --- --- --- 0,5 01:36 14.05.2004
1014,2 19,8 50 8,4 73 3,8 --- --- --- 0,5 01:51 14.05.2004
1014,2 19,7 50 8,1 74 3,7 --- --- --- 0,5 02:06 14.05.2004
1014,0 19,7 50 8,0 75 3,8 --- --- --- 0,5 02:21 14.05.2004
1014,1 19,6 50 8,1 76 4,1 --- --- --- 0,5 02:36 14.05.2004
1014,1 19,6 50 8,1 76 4,1 --- --- --- 0,5 02:51 14.05.2004
1014,0 19,5 50 7,8 76 3,8 --- --- --- 0,5 03:06 14.05.2004
1014,0 19,5 50 7,5 77 3,7 --- --- --- 0,5 03:21 14.05.2004
1014,0 19,4 50 7,5 77 3,7 --- --- --- 0,5 03:36 14.05.2004
1014,1 19,4 50 7,3 78 3,7 --- --- --- 0,5 03:51 14.05.2004
1014,1 19,2 50 7,2 78 3,6 --- --- --- 0,5 04:06 14.05.2004
1014,1 19,1 50 6,8 78 3,2 --- --- --- 0,5 04:21 14.05.2004
1014,2 19,1 50 6,5 79 3,1 --- --- --- 0,5 04:36 14.05.2004
1014,2 19,0 50 6,4 80 3,2 --- --- --- 0,5 04:51 14.05.2004
1014,3 19,0 50 6,1 80 2,9 --- --- --- 0,5 05:06 14.05.2004
1014,3 18,9 51 5,8 80 2,6 --- --- --- 0,5 05:21 14.05.2004
1014,3 18,8 51 5,5 80 2,3 --- --- --- 0,5 05:36 14.05.2004
1014,6 18,8 51 5,4 81 2,4 --- --- --- 0,5 05:51 14.05.2004
1014,6 18,7 51 5,2 82 2,3 --- --- --- 0,5 06:06 14.05.2004
1014,6 18,7 51 5,1 82 2,2 --- --- --- 0,5 06:21 14.05.2004
1014,5 18,7 50 5,0 82 2,1 --- --- --- 0,5 06:36 14.05.2004
1014,7 18,6 50 5,0 82 2,1 --- --- --- 0,5 06:51 14.05.2004
1014,8 18,6 50 5,0 83 2,3 --- --- --- 0,5 07:06 14.05.2004
1015,0 18,4 50 5,1 83 2,4 --- --- --- 0,5 07:21 14.05.2004
1015,2 18,4 50 5,4 84 2,9 --- --- --- 0,5 07:36 14.05.2004
1015,2 18,4 50 5,7 83 3,0 --- --- --- 0,5 07:51 14.05.2004
1015,2 18,3 50 6,2 84 3,7 --- --- --- 0,5 08:06 14.05.2004
1015,2 18,3 51 6,8 84 4,2 --- --- --- 0,5 08:21 14.05.2004
1015,6 18,2 52 7,5 83 4,8 --- --- --- 0,5 08:36 14.05.2004
1015,8 18,1 52 8,2 82 5,3 --- --- --- 0,5 08:51 14.05.2004
1015,8 18,1 51 8,8 80 5,5 --- --- --- 0,5 09:06 14.05.2004
1015,8 18,1 51 9,3 79 5,8 --- --- --- 0,5 09:21 14.05.2004
1015,9 18,2 51 10,0 77 6,1 --- --- --- 0,5 09:36 14.05.2004
1015,9 18,1 51 10,4 76 6,3 --- --- --- 0,5 09:51 14.05.2004
1015,9 18,1 51 10,8 74 6,3 --- --- --- 0,5 10:06 14.05.2004
1015,9 18,1 51 11,2 72 6,3 --- --- --- 0,5 10:21 14.05.2004
1015,9 18,1 51 11,5 70 6,2 --- --- --- 0,5 10:36 14.05.2004
1015,9 18,2 51 12,1 69 6,6 --- --- --- 0,5 10:51 14.05.2004
1016,1 18,2 51 12,4 68 6,6 --- --- --- 0,5 11:06 14.05.2004
1016,1 18,2 51 13,2 66 7,0 --- --- --- 0,5 11:21 14.05.2004
1016,1 18,2 51 14,0 64 7,3 --- --- --- 0,5 11:36 14.05.2004
1016,3 18,3 51 14,7 60 7,0 --- --- --- 0,5 11:51 14.05.2004
1016,2 18,3 51 14,7 57 6,2 --- --- --- 0,5 12:06 14.05.2004
1016,3 18,3 51 15,0 57 6,5 --- --- --- 0,5 12:21 14.05.2004
1016,2 18,3 51 15,5 55 6,5 --- --- --- 0,5 12:36 14.05.2004
1016,1 18,4 51 16,2 54 6,9 --- --- --- 0,5 12:51 14.05.2004
1016,0 18,4 50 17,6 52 7,6 --- --- --- 0,5 13:06 14.05.2004
1016,0 18,5 50 19,1 49 8,1 --- --- --- 0,5 13:21 14.05.2004
1016,0 18,5 50 19,5 45 7,2 --- --- --- 0,5 13:36 14.05.2004
1015,9 18,6 50 19,7 45 7,4 --- --- --- 0,5 13:51 14.05.2004
1016,1 18,7 50 21,9 41 8,0 --- --- --- 0,5 14:06 14.05.2004
1016,0 18,7 50 22,6 38 7,5 --- --- --- 0,5 14:21 14.05.2004
1016,1 18,7 50 21,1 38 6,2 --- --- --- 0,5 14:36 14.05.2004
1016,0 18,8 50 22,1 38 7,1 --- --- --- 0,5 14:51 14.05.2004
1016,1 18,9 50 24,1 33 6,8 --- --- --- 0,5 15:06 14.05.2004
1016,2 18,9 50 21,7 35 5,5 --- --- --- 0,5 15:21 14.05.2004
1016,0 18,9 50 22,5 36 6,7 --- --- --- 0,5 15:36 14.05.2004
1015,8 19,0 49 22,3 36 6,5 --- --- --- 0,5 15:51 14.05.2004
1015,7 19,1 49 26,1 31 7,6 --- --- --- 0,5 16:06 14.05.2004
1015,7 19,3 49 28,6 27 7,8 --- --- --- 0,5 16:21 14.05.2004
1015,5 19,4 49 29,7 26 8,1 --- --- --- 0,5 16:36 14.05.2004
1015,6 19,6 49 29,8 24 7,0 --- --- --- 0,5 16:51 14.05.2004
1015,5 19,8 49 30,5 24 7,6 --- --- --- 0,5 17:06 14.05.2004
1015,6 20,0 49 30,4 19 4,2 --- --- --- 0,5 17:21 14.05.2004
1015,5 20,1 49 30,0 22 6,0 --- --- --- 0,5 17:36 14.05.2004
1015,5 20,0 48 25,4 25 3,9 --- --- --- 0,5 17:51 14.05.2004
1015,5 20,2 48 26,6 27 6,1 --- --- --- 0,5 18:06 14.05.2004
1015,3 20,4 48 26,5 25 4,9 --- --- --- 0,5 18:21 14.05.2004
1015,4 20,7 49 26,3 26 5,3 --- --- --- 0,5 18:36 14.05.2004
1015,5 20,9 49 25,7 27 5,3 --- --- --- 0,5 18:51 14.05.2004
1015,7 21,1 48 24,5 26 3,7 --- --- --- 0,5 19:06 14.05.2004
1015,7 21,2 47 23,4 29 4,3 --- --- --- 0,5 19:21 14.05.2004
1015,9 21,2 47 23,2 30 4,6 --- --- --- 0,5 19:36 14.05.2004
1016,1 21,2 47 22,7 30 4,2 --- --- --- 0,5 19:51 14.05.2004
1016,2 21,2 47 21,7 31 3,8 --- --- --- 0,5 20:06 14.05.2004
1016,3 21,2 46 20,6 33 3,7 --- --- --- 0,5 20:21 14.05.2004
1016,4 21,2 47 19,5 35 3,6 --- --- --- 0,5 20:36 14.05.2004
1016,6 21,3 48 18,5 37 3,5 --- --- --- 0,5 20:51 14.05.2004
1016,6 21,4 48 17,7 38 3,2 --- --- --- 0,5 21:06 14.05.2004
1016,6 21,4 47 16,8 40 3,1 --- --- --- 0,5 21:21 14.05.2004
1016,7 21,2 48 15,9 43 3,3 --- --- --- 0,5 21:36 14.05.2004
1017,0 21,3 47 15,0 46 3,4 --- --- --- 0,5 21:51 14.05.2004
1017,1 21,3 47 14,2 48 3,3 --- --- --- 0,5 22:06 14.05.2004
1017,3 21,4 47 13,6 51 3,6 --- --- --- 0,5 22:21 14.05.2004
1017,4 21,4 48 13,1 53 3,7 --- --- --- 0,5 22:36 14.05.2004
1017,5 21,3 48 12,6 55 3,8 --- --- --- 0,5 22:51 14.05.2004
1017,5 21,3 48 12,2 57 3,9 --- --- --- 0,5 23:06 14.05.2004
1017,6 21,4 48 11,8 58 3,8 --- --- --- 0,5 23:21 14.05.2004
1017,6 21,3 48 11,5 59 3,7 --- --- --- 0,5 23:36 14.05.2004
1017,7 21,3 48 11,3 61 4,0 --- --- --- 0,5 23:51 14.05.2004
1017,8 21,2 48 11,1 63 4,3 --- --- --- 0,5 00:06 15.05.2004
1018,0 21,2 48 10,9 64 4,3 --- --- --- 0,5 00:21 15.05.2004
1017,8 21,1 48 10,8 65 4,4 --- --- --- 0,5 00:36 15.05.2004
1017,9 21,0 48 10,6 66 4,5 --- --- --- 0,5 00:51 15.05.2004
1017,8 21,0 49 10,6 67 4,7 --- --- --- 0,5 01:06 15.05.2004
1017,9 20,9 50 10,4 68 4,7 --- --- --- 0,5 01:21 15.05.2004
1018,1 20,9 50 10,2 69 4,7 --- --- --- 0,5 01:36 15.05.2004
1018,1 20,9 50 10,1 70 4,8 --- --- --- 0,5 01:51 15.05.2004
1018,0 20,9 50 10,0 70 4,7 --- --- --- 0,5 02:06 15.05.2004
1018,0 21,0 49 9,7 71 4,7 --- --- --- 0,5 02:21 15.05.2004
1017,9 20,9 50 9,5 71 4,5 --- --- --- 0,5 02:36 15.05.2004
1018,1 20,8 50 9,3 73 4,7 --- --- --- 0,5 02:51 15.05.2004
1018,0 20,7 50 9,1 74 4,7 --- --- --- 0,5 03:06 15.05.2004
1018,0 20,6 50 9,0 74 4,6 --- --- --- 0,5 03:21 15.05.2004
1017,9 20,6 50 8,7 75 4,5 --- --- --- 0,5 03:36 15.05.2004
1018,0 20,6 50 8,7 75 4,5 --- --- --- 0,5 03:51 15.05.2004
1018,1 20,6 51 8,5 76 4,5 --- --- --- 0,5 04:06 15.05.2004
1018,2 20,6 51 8,3 77 4,5 --- --- --- 0,5 04:21 15.05.2004
1018,2 20,6 50 8,2 78 4,6 --- --- --- 0,5 04:36 15.05.2004
1018,1 20,6 50 8,1 78 4,5 --- --- --- 0,5 04:51 15.05.2004
1018,2 20,5 50 7,8 78 4,2 --- --- --- 0,5 05:06 15.05.2004
1018,1 20,3 50 7,8 78 4,2 --- --- --- 0,5 05:21 15.05.2004
1018,1 20,2 50 7,6 78 4,0 --- --- --- 0,5 05:36 15.05.2004
1018,4 20,1 50 7,4 79 4,0 --- --- --- 0,5 05:51 15.05.2004
1018,5 19,9 50 7,2 79 3,8 --- --- --- 0,5 06:06 15.05.2004
1018,6 19,9 50 7,2 80 3,9 --- --- --- 0,5 06:21 15.05.2004
1018,9 19,8 49 7,2 80 3,9 --- --- --- 0,5 06:36 15.05.2004
1019,1 19,8 50 7,2 80 3,9 --- --- --- 0,5 06:51 15.05.2004
1019,3 19,7 50 7,4 81 4,3 --- --- --- 0,5 07:06 15.05.2004
1019,3 19,7 50 7,7 81 4,6 --- --- --- 0,5 07:21 15.05.2004
1019,5 19,7 50 7,9 81 4,8 --- --- --- 0,5 07:36 15.05.2004
1019,7 19,6 49 8,3 81 5,2 --- --- --- 0,5 07:51 15.05.2004
1019,7 19,6 50 8,7 81 5,6 --- --- --- 0,5 08:06 15.05.2004
1019,8 19,5 50 9,2 82 6,2 --- --- --- 0,5 08:21 15.05.2004
1019,7 19,4 51 9,8 81 6,7 --- --- --- 0,5 08:36 15.05.2004
1019,7 19,4 51 10,4 83 7,6 --- --- --- 0,5 08:51 15.05.2004
1019,7 19,4 51 11,1 82 8,1 --- --- --- 0,5 09:06 15.05.2004
1019,6 19,3 51 11,8 79 8,2 --- --- --- 0,5 09:21 15.05.2004
1019,7 19,3 51 12,3 76 8,2 --- --- --- 0,5 09:36 15.05.2004
1019,9 19,2 51 12,9 72 7,9 --- --- --- 0,5 09:51 15.05.2004
1020,1 19,2 51 13,4 69 7,8 --- --- --- 0,5 10:06 15.05.2004
1020,0 19,2 51 13,8 66 7,5 --- --- --- 0,5 10:21 15.05.2004
1019,9 19,3 50 14,3 65 7,8 --- --- --- 0,5 10:36 15.05.2004
1019,9 19,4 50 14,8 63 7,8 --- --- --- 0,5 10:51 15.05.2004
1019,9 19,3 49 15,3 60 7,6 --- --- --- 0,5 11:06 15.05.2004
1019,9 19,3 50 15,7 57 7,2 --- --- --- 0,5 11:21 15.05.2004
1019,9 19,3 49 16,2 58 7,9 --- --- --- 0,5 11:36 15.05.2004
1020,0 19,3 48 16,7 54 7,3 --- --- --- 0,5 11:51 15.05.2004
1020,0 19,3 48 17,2 55 8,1 --- --- --- 0,5 12:06 15.05.2004
1020,0 19,4 49 17,5 53 7,8 --- --- --- 0,5 12:21 15.05.2004
1019,9 19,5 51 18,2 53 8,4 --- --- --- 0,5 12:36 15.05.2004
1019,9 19,6 51 19,1 51 8,7 --- --- --- 0,5 12:51 15.05.2004
1019,8 19,7 50 20,2 48 8,8 --- --- --- 0,5 13:06 15.05.2004
1019,8 19,7 49 21,4 46 9,3 --- --- --- 0,5 13:21 15.05.2004
1019,4 19,8 49 22,8 43 9,5 --- --- --- 0,5 13:36 15.05.2004
1019,5 19,9 49 24,2 40 9,7 --- --- --- 0,5 13:51 15.05.2004
1019,5 20,1 49 24,6 39 9,7 --- --- --- 0,5 14:06 15.05.2004
1019,4 20,3 52 26,1 37 10,3 --- --- --- 0,5 14:21 15.05.2004
1019,4 20,7 51 26,1 34 9,0 --- --- --- 0,5 14:36 15.05.2004
1019,2 20,7 50 26,3 34 9,2 --- --- --- 0,5 14:51 15.05.2004
1019,0 20,9 50 27,5 32 9,3 --- --- --- 0,5 15:06 15.05.2004
1019,1 21,1 49 27,7 33 10,0 --- --- --- 0,5 15:21 15.05.2004
1018,8 21,3 49 29,3 31 10,4 --- --- --- 0,5 15:36 15.05.2004
1019,0 21,3 50 27,1 33 9,4 --- --- --- 0,5 15:51 15.05.2004
1018,8 21,5 50 26,8 34 9,6 --- --- --- 0,5 16:06 15.05.2004
1018,9 21,6 49 28,8 32 10,5 --- --- --- 0,5 16:21 15.05.2004
1018,8 21,5 49 26,7 32 8,6 --- --- --- 0,5 16:36 15.05.2004
1018,7 21,6 49 29,2 31 10,3 --- --- --- 0,5 16:51 15.05.2004
1018,5 21,8 50 31,6 26 9,7 --- --- --- 0,5 17:06 15.05.2004
1018,4 21,9 49 29,0 29 9,2 --- --- --- 0,5 17:21 15.05.2004
1018,4 22,1 48 29,3 31 10,4 --- --- --- 0,5 17:36 15.05.2004
1018,3 22,3 48 28,8 29 9,0 --- --- --- 0,5 17:51 15.05.2004
1018,4 22,4 49 28,3 31 9,5 --- --- --- 0,5 18:06 15.05.2004
1018,2 22,5 48 27,9 30 8,7 --- --- --- 0,5 18:21 15.05.2004
1018,2 22,5 48 26,5 32 8,4 --- --- --- 0,5 18:36 15.05.2004
1018,5 22,5 48 26,7 32 8,6 --- --- --- 0,5 18:51 15.05.2004
1018,6 22,5 48 27,1 33 9,4 --- --- --- 0,5 19:06 15.05.2004
1018,5 22,5 48 27,2 32 9,1 --- --- --- 0,5 19:21 15.05.2004
1018,6 22,6 48 26,5 32 8,4 --- --- --- 0,5 19:36 15.05.2004
1018,5 22,6 48 25,7 34 8,6 --- --- --- 0,5 19:51 15.05.2004
1018,4 22,5 48 25,1 35 8,5 --- --- --- 0,5 20:06 15.05.2004
1018,5 22,5 48 23,6 37 8,0 --- --- --- 0,5 20:21 15.05.2004
1018,6 22,5 48 22,5 39 7,8 --- --- --- 0,5 20:36 15.05.2004
1018,6 22,4 48 21,7 41 7,9 --- --- --- 0,5 20:51 15.05.2004
1018,7 22,3 48 20,9 43 7,8 --- --- --- 0,5 21:06 15.05.2004
1018,8 22,2 48 20,4 46 8,4 --- --- --- 0,5 21:21 15.05.2004
1019,0 22,1 48 19,6 48 8,3 --- --- --- 0,5 21:36 15.05.2004
1018,9 22,0 48 18,9 51 8,5 --- --- --- 0,5 21:51 15.05.2004
1019,2 21,9 49 18,5 53 8,7 --- --- --- 0,5 22:06 15.05.2004
1019,3 21,9 49 18,2 55 9,0 --- --- --- 0,5 22:21 15.05.2004
1019,4 21,9 49 17,9 57 9,2 --- --- --- 0,5 22:36 15.05.2004
1019,5 22,1 50 17,5 58 9,1 --- --- --- 0,5 22:51 15.05.2004
1019,5 22,2 50 17,1 59 9,0 --- --- --- 0,5 23:06 15.05.2004
1019,5 22,3 50 16,5 61 8,9 --- --- --- 0,5 23:21 15.05.2004
1019,5 22,3 50 16,2 63 9,1 --- --- --- 0,5 23:36 15.05.2004
1019,9 22,2 50 15,8 65 9,2 --- --- --- 0,5 23:51 15.05.2004
1019,9 22,3 51 15,5 67 9,4 --- --- --- 0,5 00:06 16.05.2004
1019,9 22,3 51 15,4 69 9,7 --- --- --- 0,5 00:21 16.05.2004
1019,9 22,2 50 15,4 70 9,9 --- --- --- 0,5 00:36 16.05.2004
1019,8 22,2 50 15,4 68 9,5 --- --- --- 0,5 00:51 16.05.2004
1019,9 22,2 51 15,5 67 9,4 --- --- --- 0,5 01:06 16.05.2004
1019,9 22,2 51 15,4 67 9,3 --- --- --- 0,5 01:21 16.05.2004
1020,0 22,1 50 15,2 67 9,1 --- --- --- 0,5 01:36 16.05.2004
1020,0 22,1 51 15,2 66 8,9 --- --- --- 0,5 01:51 16.05.2004
1019,9 22,0 50 15,2 66 8,9 --- --- --- 0,5 02:06 16.05.2004
1019,8 22,0 51 15,0 66 8,7 --- --- --- 0,5 02:21 16.05.2004
1019,8 22,0 51 14,8 66 8,5 --- --- --- 0,5 02:36 16.05.2004
1019,6 22,4 55 14,7 66 8,4 --- --- --- 0,5 02:51 16.05.2004
1019,6 22,5 56 14,4 68 8,5 --- --- --- 0,5 03:06 16.05.2004
1019,6 22,4 54 13,9 68 8,1 --- --- --- 0,5 03:21 16.05.2004
1019,5 22,1 53 13,7 70 8,3 --- --- --- 0,5 03:36 16.05.2004
1019,6 22,0 52 13,7 70 8,3 --- --- --- 0,5 03:51 16.05.2004
1019,5 21,9 53 13,6 70 8,2 --- --- --- 0,5 04:06 16.05.2004
1019,4 21,8 53 13,5 70 8,1 --- --- --- 0,5 04:21 16.05.2004
1019,4 21,8 53 13,4 71 8,2 --- --- --- 0,5 04:36 16.05.2004
1019,3 21,7 53 13,2 71 8,0 --- --- --- 0,5 04:51 16.05.2004
1019,3 21,6 52 12,8 72 7,8 --- --- --- 0,5 05:06 16.05.2004
1019,3 21,6 52 12,4 73 7,7 --- --- --- 0,5 05:21 16.05.2004
1019,4 21,5 52 12,2 74 7,7 --- --- --- 0,5 05:36 16.05.2004
1019,5 21,5 52 12,1 75 7,8 --- --- --- 0,5 05:51 16.05.2004
1019,5 21,4 52 11,9 75 7,6 --- --- --- 0,5 06:06 16.05.2004
1019,6 21,4 52 11,8 77 7,9 --- --- --- 0,5 06:21 16.05.2004
1019,7 21,3 52 11,8 77 7,9 --- --- --- 0,5 06:36 16.05.2004
1019,8 21,2 52 11,7 77 7,8 --- --- --- 0,5 06:51 16.05.2004
1019,7 21,2 52 11,5 77 7,6 --- --- --- 0,5 07:06 16.05.2004
1019,7 21,1 52 11,5 78 7,8 --- --- --- 0,5 07:21 16.05.2004
1019,7 21,1 52 11,7 78 8,0 --- --- --- 0,5 07:36 16.05.2004
1019,7 21,1 52 11,8 80 8,4 --- --- --- 0,5 07:51 16.05.2004
1019,8 21,1 52 12,2 80 8,8 --- --- --- 0,5 08:06 16.05.2004
1019,8 21,0 51 12,6 79 9,0 --- --- --- 0,5 08:21 16.05.2004
1020,0 20,9 52 13,1 78 9,3 --- --- --- 0,5 08:36 16.05.2004
1020,0 20,9 52 13,5 76 9,3 --- --- --- 0,5 08:51 16.05.2004
1020,2 20,5 51 14,1 75 9,7 --- --- --- 0,5 09:06 16.05.2004
1020,1 20,3 51 14,5 73 9,7 --- --- --- 0,5 09:21 16.05.2004
1020,3 20,1 50 14,8 71 9,6 --- --- --- 0,5 09:36 16.05.2004
1020,3 20,2 51 15,2 70 9,7 --- --- --- 0,5 09:51 16.05.2004
1020,3 20,3 52 15,5 68 9,6 --- --- --- 0,5 10:06 16.05.2004
1020,4 20,4 52 15,9 67 9,8 --- --- --- 0,5 10:21 16.05.2004
1020,2 20,4 52 16,2 66 9,8 --- --- --- 0,5 10:36 16.05.2004
1020,1 20,6 53 16,6 64 9,7 --- --- --- 0,5 10:51 16.05.2004
1020,0 20,7 52 16,9 64 10,0 --- --- --- 0,5 11:06 16.05.2004
1020,0 20,6 51 17,2 62 9,8 --- --- --- 0,5 11:21 16.05.2004
1020,1 20,6 51 17,5 62 10,1 --- --- --- 0,5 11:36 16.05.2004
1020,0 20,7 52 18,3 62 10,9 --- --- --- 0,5 11:51 16.05.2004
1020,0 20,9 52 18,5 58 10,1 --- --- --- 0,5 12:06 16.05.2004
1019,9 21,0 50 18,6 59 10,4 --- --- --- 0,5 12:21 16.05.2004
1019,7 21,1 50 19,2 58 10,7 --- --- --- 0,5 12:36 16.05.2004
1019,6 21,3 51 19,9 56 10,8 --- --- --- 0,5 12:51 16.05.2004
1019,6 21,5 51 20,8 52 10,6 --- --- --- 0,5 13:06 16.05.2004
1019,5 21,4 51 21,8 50 10,9 --- --- --- 0,5 13:21 16.05.2004
1019,3 21,3 51 22,9 48 11,3 --- --- --- 0,5 13:36 16.05.2004
1019,2 21,3 51 24,5 43 11,1 --- --- --- 0,5 13:51 16.05.2004
1019,1 21,3 51 25,4 40 10,8 --- --- --- 0,5 14:06 16.05.2004
1018,9 21,3 51 26,1 37 10,3 --- --- --- 0,5 14:21 16.05.2004
1018,8 21,4 51 27,3 37 11,3 --- --- --- 0,5 14:36 16.05.2004
1018,7 21,4 51 28,7 34 11,3 --- --- --- 0,5 14:51 16.05.2004
1018,7 21,4 51 30,1 31 11,1 --- --- --- 0,5 15:06 16.05.2004
1018,5 21,5 51 30,6 29 10,5 --- --- --- 0,5 15:21 16.05.2004
1018,3 21,6 51 31,1 27 9,9 --- --- --- 0,5 15:36 16.05.2004
1018,1 21,7 51 31,1 25 8,7 --- --- --- 0,5 15:51 16.05.2004
1018,0 21,9 51 31,5 25 9,1 --- --- --- 0,5 16:06 16.05.2004
1017,8 22,0 50 32,8 22 8,3 --- --- --- 0,5 16:21 16.05.2004
1017,9 22,2 51 33,7 21 8,3 --- --- --- 0,5 16:36 16.05.2004
1017,6 22,4 51 34,7 19 7,7 --- --- --- 0,5 16:51 16.05.2004
1017,4 22,6 50 35,3 19 8,2 --- --- --- 0,5 17:06 16.05.2004
1017,3 22,7 50 35,7 19 8,5 --- --- --- 0,5 17:21 16.05.2004
1017,1 22,9 50 35,1 19 8,0 --- --- --- 0,5 17:36 16.05.2004
1016,9 23,1 49 34,3 20 8,1 --- --- --- 0,5 17:51 16.05.2004
1016,8 23,3 49 34,0 22 9,3 --- --- --- 0,5 18:06 16.05.2004
1016,7 23,5 48 31,7 25 9,2 --- --- --- 0,5 18:21 16.05.2004
1016,7 23,9 48 31,0 27 9,8 --- --- --- 0,5 18:36 16.05.2004
1016,4 24,1 47 30,2 28 9,7 --- --- --- 0,5 18:51 16.05.2004
1016,3 24,4 47 29,7 29 9,8 --- --- --- 0,5 19:06 16.05.2004
1016,2 24,5 47 29,7 30 10,3 --- --- --- 0,5 19:21 16.05.2004
1016,3 24,5 46 29,2 31 10,3 --- --- --- 0,5 19:36 16.05.2004
1016,2 24,4 46 28,5 30 9,2 --- --- --- 0,5 19:51 16.05.2004
1016,3 24,3 46 27,5 31 8,8 --- --- --- 0,5 20:06 16.05.2004
1016,2 24,2 46 25,8 33 8,3 --- --- --- 0,5 20:21 16.05.2004
1016,1 24,1 47 24,3 37 8,7 --- --- --- 0,5 20:36 16.05.2004
1016,1 24,1 47 23,1 39 8,4 --- --- --- 0,5 20:51 16.05.2004
1016,1 24,0 48 22,2 40 7,9 --- --- --- 0,5 21:06 16.05.2004
1016,3 23,9 50 21,6 41 7,8 --- --- --- 0,5 21:21 16.05.2004
1016,4 23,8 49 21,0 43 7,9 --- --- --- 0,5 21:36 16.05.2004
1016,5 23,7 49 20,4 46 8,4 --- --- --- 0,5 21:51 16.05.2004
1016,3 23,6 49 19,8 47 8,1 --- --- --- 0,5 22:06 16.05.2004
1016,5 23,6 49 19,6 47 8,0 --- --- --- 0,5 22:21 16.05.2004
1016,7 23,5 49 19,2 49 8,2 --- --- --- 0,5 22:36 16.05.2004
1016,7 23,4 49 19,0 50 8,3 --- --- --- 0,5 22:51 16.05.2004
1016,7 23,4 49 18,6 51 8,2 --- --- --- 0,5 23:06 16.05.2004
1016,6 23,3 49 18,3 52 8,2 --- --- --- 0,5 23:21 16.05.2004
1016,7 23,4 49 18,1 54 8,6 --- --- --- 0,5 23:36 16.05.2004
1016,8 23,5 49 17,8 55 8,6 --- --- --- 0,5 23:51 16.05.2004
1016,9 23,6 49 17,6 55 8,4 --- --- --- 0,5 00:06 17.05.2004
1016,7 23,6 49 17,2 57 8,6 --- --- --- 0,5 00:21 17.05.2004
1016,7 23,7 49 16,9 57 8,3 --- --- --- 0,5 00:36 17.05.2004
1016,5 23,7 49 16,5 58 8,2 --- --- --- 0,5 00:51 17.05.2004
1016,5 23,8 49 16,2 60 8,4 --- --- --- 0,5 01:06 17.05.2004
1016,5 23,8 49 15,9 61 8,4 --- --- --- 0,5 01:21 17.05.2004
1016,6 23,8 49 15,5 62 8,2 --- --- --- 0,5 01:36 17.05.2004
1016,5 23,7 49 15,2 65 8,6 --- --- --- 0,5 01:51 17.05.2004
1016,3 23,6 49 14,9 65 8,3 --- --- --- 0,5 02:06 17.05.2004
1016,2 23,6 48 14,6 66 8,3 --- --- --- 0,5 02:21 17.05.2004
1016,1 23,5 48 14,4 68 8,5 --- --- --- 0,5 02:36 17.05.2004
1016,0 23,4 48 14,2 69 8,6 --- --- --- 0,5 02:51 17.05.2004
1016,1 23,3 48 13,9 70 8,5 --- --- --- 0,5 03:06 17.05.2004
1016,1 23,1 48 13,7 70 8,3 --- --- --- 0,5 03:21 17.05.2004
1016,1 23,1 48 13,5 71 8,3 --- --- --- 0,5 03:36 17.05.2004
1016,0 23,0 48 13,4 73 8,6 --- --- --- 0,5 03:51 17.05.2004
1016,2 22,9 49 13,3 73 8,5 --- --- --- 0,5 04:06 17.05.2004
1016,1 22,8 50 13,1 74 8,5 --- --- --- 0,5 04:21 17.05.2004
1016,0 22,7 50 12,8 74 8,2 --- --- --- 0,5 04:36 17.05.2004
1015,9 22,6 50 12,7 74 8,2 --- --- --- 0,5 04:51 17.05.2004
1016,1 22,5 50 12,5 75 8,2 --- --- --- 0,5 05:06 17.05.2004
1016,0 22,5 50 12,4 75 8,1 --- --- --- 0,5 05:21 17.05.2004
1015,9 22,4 50 12,2 75 7,9 --- --- --- 0,5 05:36 17.05.2004
1016,0 22,3 50 12,1 76 8,0 --- --- --- 0,5 05:51 17.05.2004
1016,0 22,2 50 11,9 76 7,8 --- --- --- 0,5 06:06 17.05.2004
1016,0 22,1 50 11,8 76 7,7 --- --- --- 0,5 06:21 17.05.2004
1016,0 22,1 50 11,7 77 7,8 --- --- --- 0,5 06:36 17.05.2004
1016,1 22,0 50 11,7 77 7,8 --- --- --- 0,5 06:51 17.05.2004
1016,1 21,9 51 11,6 77 7,7 --- --- --- 0,5 07:06 17.05.2004
1016,3 21,8 51 11,7 78 8,0 --- --- --- 0,5 07:21 17.05.2004
1016,2 21,7 51 11,8 78 8,1 --- --- --- 0,5 07:36 17.05.2004
1016,2 21,7 51 12,1 79 8,5 --- --- --- 0,5 07:51 17.05.2004
1016,3 21,6 51 12,3 79 8,7 --- --- --- 0,5 08:06 17.05.2004
1016,5 21,6 52 12,7 79 9,1 --- --- --- 0,5 08:21 17.05.2004
1016,6 21,5 52 13,1 80 9,7 --- --- --- 0,5 08:36 17.05.2004
1016,7 21,5 51 13,6 80 10,2 --- --- --- 0,5 08:51 17.05.2004
1016,6 21,5 51 14,3 80 10,9 --- --- --- 0,5 09:06 17.05.2004
1016,8 21,5 51 15,1 76 10,9 --- --- --- 0,5 09:21 17.05.2004
1016,7 21,5 50 15,8 72 10,7 --- --- --- 0,5 09:36 17.05.2004
1016,7 21,5 50 16,4 68 10,4 --- --- --- 0,5 09:51 17.05.2004
1016,5 21,5 49 17,0 64 10,1 --- --- --- 0,5 10:06 17.05.2004
1016,5 21,6 49 17,5 62 10,1 --- --- --- 0,5 10:21 17.05.2004
1016,2 21,6 49 18,2 60 10,3 --- --- --- 0,5 10:36 17.05.2004
1016,2 21,6 48 18,7 57 10,0 --- --- --- 0,5 10:51 17.05.2004
1016,2 21,6 49 19,4 56 10,4 --- --- --- 0,5 11:06 17.05.2004
1016,1 21,7 48 19,8 52 9,6 --- --- --- 0,5 11:21 17.05.2004
1016,1 21,7 48 20,4 53 10,5 --- --- --- 0,5 11:36 17.05.2004
1016,0 21,8 48 20,7 50 9,9 --- --- --- 0,5 11:51 17.05.2004
1015,8 21,9 47 21,1 49 9,9 --- --- --- 0,5 12:06 17.05.2004
1015,7 22,0 47 21,4 48 9,9 --- --- --- 0,5 12:21 17.05.2004
1015,7 22,1 46 21,8 46 9,6 --- --- --- 0,5 12:36 17.05.2004
1015,6 22,2 46 22,5 45 10,0 --- --- --- 0,5 12:51 17.05.2004
1015,5 22,3 46 23,5 45 10,9 --- --- --- 0,5 13:06 17.05.2004
1015,3 22,4 46 25,1 41 10,9 --- --- --- 0,5 13:21 17.05.2004
1015,4 22,5 46 26,7 37 10,8 --- --- --- 0,5 13:36 17.05.2004
1015,2 22,6 46 28,4 35 11,5 --- --- --- 0,5 13:51 17.05.2004
1015,1 22,7 46 30,0 33 12,0 --- --- --- 0,5 14:06 17.05.2004
1015,1 22,7 47 31,3 29 11,1 --- --- --- 0,5 14:21 17.05.2004
1015,0 22,8 47 32,1 27 10,7 --- --- --- 0,5 14:36 17.05.2004
1014,9 22,9 47 32,8 26 10,8 --- --- --- 0,5 14:51 17.05.2004
1014,8 23,0 47 34,1 25 11,3 --- --- --- 0,5 15:06 17.05.2004
1014,5 23,1 47 34,1 22 9,4 --- --- --- 0,5 15:21 17.05.2004
1014,5 23,3 47 34,7 23 10,5 --- --- --- 0,5 15:36 17.05.2004
1014,4 23,5 47 35,2 19 8,1 --- --- --- 0,5 15:51 17.05.2004
1014,3 23,6 47 36,4 21 10,6 --- --- --- 0,5 16:06 17.05.2004
1014,2 23,8 47 37,7 19 10,1 --- --- --- 0,5 16:21 17.05.2004
1014,0 24,0 46 38,5 19 10,8 --- --- --- 0,5 16:36 17.05.2004
1014,1 24,2 46 39,1 19 11,3 --- --- --- 0,5 16:51 17.05.2004
1014,0 24,4 46 39,3 19 11,4 --- --- --- 0,5 17:06 17.05.2004
1014,0 24,6 46 39,2 19 11,3 --- --- --- 0,5 17:21 17.05.2004
1013,9 24,8 46 39,4 19 11,5 --- --- --- 0,5 17:36 17.05.2004
1013,7 25,0 46 39,4 19 11,5 --- --- --- 0,5 17:51 17.05.2004
1013,6 25,2 46 38,4 19 10,7 --- --- --- 0,5 18:06 17.05.2004
1013,6 25,4 45 37,8 19 10,2 --- --- --- 0,5 18:21 17.05.2004
1013,3 25,5 45 36,2 19 8,9 --- --- --- 0,5 18:36 17.05.2004
1013,3 25,5 45 34,8 19 7,8 --- --- --- 0,5 18:51 17.05.2004
1013,3 25,5 45 34,1 22 9,4 --- --- --- 0,5 19:06 17.05.2004
1013,4 25,5 46 33,4 23 9,4 --- --- --- 0,5 19:21 17.05.2004
1013,4 25,5 46 32,6 25 10,0 --- --- --- 0,5 19:36 17.05.2004
1013,4 25,5 46 31,9 26 10,0 --- --- --- 0,5 19:51 17.05.2004
1013,5 25,5 46 31,1 28 10,4 --- --- --- 0,5 20:06 17.05.2004
1013,5 25,5 46 29,7 30 10,3 --- --- --- 0,5 20:21 17.05.2004
1013,6 25,4 46 27,7 32 9,5 --- --- --- 0,5 20:36 17.05.2004
1013,9 25,3 46 26,4 36 10,1 --- --- --- 0,5 20:51 17.05.2004
1013,8 25,2 47 25,2 40 10,6 --- --- --- 0,5 21:06 17.05.2004
1014,0 25,1 48 23,9 42 10,2 --- --- --- 0,5 21:21 17.05.2004
1014,1 25,1 48 22,9 45 10,3 --- --- --- 0,5 21:36 17.05.2004
1014,3 25,2 48 22,1 48 10,6 --- --- --- 0,5 21:51 17.05.2004
1014,4 25,1 48 21,4 50 10,5 --- --- --- 0,5 22:06 17.05.2004
1014,6 25,0 48 20,8 52 10,6 --- --- --- 0,5 22:21 17.05.2004
1014,8 25,1 49 20,4 54 10,8 --- --- --- 0,5 22:36 17.05.2004
1014,7 25,1 49 20,1 55 10,8 --- --- --- 0,5 22:51 17.05.2004
1014,8 25,1 49 19,4 57 10,6 --- --- --- 0,5 23:06 17.05.2004
1014,8 25,0 49 18,9 58 10,4 --- --- --- 0,5 23:21 17.05.2004
1014,7 24,9 50 18,4 60 10,5 --- --- --- 0,5 23:36 17.05.2004
1014,7 24,8 50 17,9 62 10,5 --- --- --- 0,5 23:51 17.05.2004
1014,7 24,7 50 17,4 63 10,3 --- --- --- 0,5 00:06 18.05.2004
1014,7 24,6 50 17,1 64 10,2 --- --- --- 0,5 00:21 18.05.2004
1014,7 24,5 50 16,7 65 10,1 --- --- --- 0,5 00:36 18.05.2004
1014,7 24,5 50 16,4 66 10,0 --- --- --- 0,5 00:51 18.05.2004
1014,8 24,5 51 16,1 67 9,9 --- --- --- 0,5 01:06 18.05.2004
1014,7 24,4 51 15,8 68 9,9 --- --- --- 0,5 01:21 18.05.2004
1014,6 24,4 51 15,5 68 9,6 --- --- --- 0,5 01:36 18.05.2004
1014,7 24,3 51 15,2 70 9,7 --- --- --- 0,5 01:51 18.05.2004
1014,7 24,3 51 15,1 71 9,9 --- --- --- 0,5 02:06 18.05.2004
1014,6 24,2 51 14,8 71 9,6 --- --- --- 0,5 02:21 18.05.2004
1014,6 24,2 51 14,6 72 9,6 --- --- --- 0,5 02:36 18.05.2004
1014,7 24,1 51 14,4 73 9,6 --- --- --- 0,5 02:51 18.05.2004
1014,5 24,1 51 14,3 74 9,7 --- --- --- 0,5 03:06 18.05.2004
1014,6 24,0 51 14,1 74 9,5 --- --- --- 0,5 03:21 18.05.2004
1014,5 24,0 51 13,8 74 9,2 --- --- --- 0,5 03:36 18.05.2004
1014,6 23,9 52 13,7 75 9,3 --- --- --- 0,5 03:51 18.05.2004
1014,7 23,9 52 13,5 75 9,1 --- --- --- 0,5 04:06 18.05.2004
1014,8 23,8 52 13,4 77 9,4 --- --- --- 0,5 04:21 18.05.2004
1014,8 23,8 52 13,3 77 9,3 --- --- --- 0,5 04:36 18.05.2004
1014,7 23,7 52 13,2 77 9,2 --- --- --- 0,5 04:51 18.05.2004
1014,8 23,6 52 13,1 77 9,1 --- --- --- 0,5 05:06 18.05.2004
1014,8 23,5 51 12,9 78 9,1 --- --- --- 0,5 05:21 18.05.2004
1015,0 23,5 51 12,7 78 8,9 --- --- --- 0,5 05:36 18.05.2004
1014,9 23,4 51 12,7 78 8,9 --- --- --- 0,5 05:51 18.05.2004
1015,0 23,3 51 12,7 78 8,9 --- --- --- 0,5 06:06 18.05.2004
1015,1 23,2 51 12,5 78 8,7 --- --- --- 0,5 06:21 18.05.2004
1015,3 23,2 51 12,5 79 8,9 --- --- --- 0,5 06:36 18.05.2004
1015,4 23,2 51 12,5 79 8,9 --- --- --- 0,5 06:51 18.05.2004
1015,5 23,1 51 12,5 79 8,9 --- --- --- 0,5 07:06 18.05.2004
1015,6 23,0 51 12,5 79 8,9 --- --- --- 0,5 07:21 18.05.2004
1015,6 23,0 51 12,7 80 9,3 --- --- --- 0,5 07:36 18.05.2004
1015,6 23,0 51 12,9 80 9,5 --- --- --- 0,5 07:51 18.05.2004
1015,7 23,0 51 13,3 81 10,1 --- --- --- 0,5 08:06 18.05.2004
1015,9 22,9 51 13,7 80 10,3 --- --- --- 0,5 08:21 18.05.2004
1016,0 22,7 51 14,2 81 11,0 --- --- --- 0,5 08:36 18.05.2004
1016,0 22,7 51 14,8 81 11,5 --- --- --- 0,5 08:51 18.05.2004
1016,2 22,6 51 15,5 80 12,0 --- --- --- 0,5 09:06 18.05.2004
1016,1 22,5 51 16,3 78 12,4 --- --- --- 0,5 09:21 18.05.2004
1016,2 22,5 52 17,0 75 12,5 --- --- --- 0,5 09:36 18.05.2004
1016,1 22,5 52 17,6 73 12,7 --- --- --- 0,5 09:51 18.05.2004
1016,3 22,6 52 18,3 71 12,9 --- --- --- 0,5 10:06 18.05.2004
1016,3 22,6 51 18,9 68 12,8 --- --- --- 0,5 10:21 18.05.2004
1016,2 22,7 51 19,5 64 12,5 --- --- --- 0,5 10:36 18.05.2004
1016,1 22,7 50 20,1 62 12,6 --- --- --- 0,5 10:51 18.05.2004
1016,3 22,7 50 20,4 61 12,6 --- --- --- 0,5 11:06 18.05.2004
1016,3 22,7 50 20,8 58 12,2 --- --- --- 0,5 11:21 18.05.2004
1016,1 22,7 50 21,3 57 12,4 --- --- --- 0,5 11:36 18.05.2004
1016,2 22,8 50 21,6 55 12,2 --- --- --- 0,5 11:51 18.05.2004
1016,1 22,9 50 22,1 54 12,3 --- --- --- 0,5 12:06 18.05.2004
1016,2 23,0 49 22,5 53 12,4 --- --- --- 0,5 12:21 18.05.2004
1016,0 23,1 50 23,0 53 12,9 --- --- --- 0,5 12:36 18.05.2004
1016,1 23,2 49 23,7 50 12,6 --- --- --- 0,5 12:51 18.05.2004
1016,0 23,3 50 24,8 47 12,7 --- --- --- 0,5 13:06 18.05.2004
1015,9 23,4 49 26,4 44 13,1 --- --- --- 0,5 13:21 18.05.2004
1016,1 23,5 49 28,2 41 13,7 --- --- --- 0,5 13:36 18.05.2004
1015,8 23,6 49 29,8 37 13,5 --- --- --- 0,5 13:51 18.05.2004
1015,6 23,7 49 30,3 33 12,2 --- --- --- 0,5 14:06 18.05.2004
1015,6 23,8 49 31,1 30 11,5 --- --- --- 0,5 14:21 18.05.2004
1015,5 23,9 48 31,5 29 11,3 --- --- --- 0,5 14:36 18.05.2004
1015,4 24,0 47 32,2 28 11,4 --- --- --- 0,5 14:51 18.05.2004
1015,3 24,1 47 33,1 28 12,1 --- --- --- 0,5 15:06 18.05.2004
1015,2 24,3 47 33,5 27 11,9 --- --- --- 0,5 15:21 18.05.2004
1015,1 24,4 47 32,8 28 11,9 --- --- --- 0,5 15:36 18.05.2004
1015,0 24,5 47 33,8 27 12,2 --- --- --- 0,5 15:51 18.05.2004
1015,0 24,6 47 35,1 25 12,1 --- --- --- 0,5 16:06 18.05.2004
1015,0 24,7 47 36,4 23 11,9 --- --- --- 0,5 16:21 18.05.2004
1014,9 24,8 47 36,5 22 11,3 --- --- --- 0,5 16:36 18.05.2004
1014,9 24,8 47 37,4 22 12,1 --- --- --- 0,5 16:51 18.05.2004
1014,8 25,0 48 38,5 19 10,8 --- --- --- 0,5 17:06 18.05.2004
1015,0 25,1 48 37,7 19 10,1 --- --- --- 0,5 17:21 18.05.2004
1014,8 25,2 48 37,6 19 10,0 --- --- --- 0,5 17:36 18.05.2004
1014,8 25,2 48 37,4 19 9,9 --- --- --- 0,5 17:51 18.05.2004
1014,8 25,3 48 37,5 19 10,0 --- --- --- 0,5 18:06 18.05.2004
1014,7 25,4 48 37,2 19 9,7 --- --- --- 0,5 18:21 18.05.2004
1014,6 25,5 48 35,5 19 8,3 --- --- --- 0,5 18:36 18.05.2004
1014,4 25,5 48 34,0 21 8,6 --- --- --- 0,5 18:51 18.05.2004
1014,5 25,6 47 33,3 23 9,4 --- --- --- 0,5 19:06 18.05.2004
1014,5 25,7 47 32,8 23 8,9 --- --- --- 0,5 19:21 18.05.2004
1014,6 25,7 46 31,9 24 8,8 --- --- --- 0,5 19:36 18.05.2004
1014,4 25,8 46 31,1 26 9,3 --- --- --- 0,5 19:51 18.05.2004
1014,5 25,8 46 30,2 28 9,7 --- --- --- 0,5 20:06 18.05.2004
1014,7 25,8 46 28,5 30 9,2 --- --- --- 0,5 20:21 18.05.2004
1014,8 25,7 46 26,8 33 9,2 --- --- --- 0,5 20:36 18.05.2004
1014,7 25,7 46 25,4 37 9,6 --- --- --- 0,5 20:51 18.05.2004
1014,7 25,6 46 24,2 40 9,7 --- --- --- 0,5 21:06 18.05.2004
1014,9 25,5 46 23,2 44 10,3 --- --- --- 0,5 21:21 18.05.2004
1015,2 25,4 46 22,3 46 10,1 --- --- --- 0,5 21:36 18.05.2004
1015,3 25,3 46 21,4 47 9,6 --- --- --- 0,5 21:51 18.05.2004
1015,3 25,2 47 20,7 50 9,9 --- --- --- 0,5 22:06 18.05.2004
1015,3 25,2 47 20,1 52 9,9 --- --- --- 0,5 22:21 18.05.2004
1015,5 25,2 48 19,4 54 9,8 --- --- --- 0,5 22:36 18.05.2004
1015,6 25,3 48 18,8 55 9,5 --- --- --- 0,5 22:51 18.05.2004
1015,7 25,4 48 18,4 57 9,7 --- --- --- 0,5 23:06 18.05.2004
1015,8 25,4 48 17,9 58 9,5 --- --- --- 0,5 23:21 18.05.2004
1015,7 25,4 48 17,4 59 9,3 --- --- --- 0,5 23:36 18.05.2004
1015,7 25,3 48 17,0 60 9,2 --- --- --- 0,5 23:51 18.05.2004
1016,0 25,1 48 16,7 61 9,1 --- --- --- 0,5 00:06 19.05.2004
1015,9 25,0 48 16,5 63 9,4 --- --- --- 0,5 00:21 19.05.2004
1016,0 25,1 48 16,2 64 9,4 --- --- --- 0,5 00:36 19.05.2004
1016,1 25,0 48 16,0 65 9,4 --- --- --- 0,5 00:51 19.05.2004
1016,0 25,0 48 15,7 65 9,1 --- --- --- 0,5 01:06 19.05.2004
1016,0 24,9 48 15,5 66 9,1 --- --- --- 0,5 01:21 19.05.2004
1016,0 24,8 48 15,2 68 9,3 --- --- --- 0,5 01:36 19.05.2004
1015,9 24,7 48 15,1 69 9,4 --- --- --- 0,5 01:51 19.05.2004
1015,9 24,7 48 14,9 70 9,4 --- --- --- 0,5 02:06 19.05.2004
1015,9 24,6 48 14,7 71 9,5 --- --- --- 0,5 02:21 19.05.2004
1015,9 24,6 49 14,5 72 9,5 --- --- --- 0,5 02:36 19.05.2004
1015,9 24,5 49 14,4 73 9,6 --- --- --- 0,5 02:51 19.05.2004
1015,9 24,4 50 14,2 73 9,4 --- --- --- 0,5 03:06 19.05.2004
1015,7 24,4 50 14,2 74 9,6 --- --- --- 0,5 03:21 19.05.2004
1015,7 24,4 50 14,0 74 9,4 --- --- --- 0,5 03:36 19.05.2004
1015,7 24,3 50 13,8 75 9,4 --- --- --- 0,5 03:51 19.05.2004
1015,6 24,4 50 13,7 75 9,3 --- --- --- 0,5 04:06 19.05.2004
1015,5 24,3 50 13,7 76 9,5 --- --- --- 0,5 04:21 19.05.2004
1015,4 24,3 50 13,5 76 9,3 --- --- --- 0,5 04:36 19.05.2004
1015,5 24,2 49 13,4 77 9,4 --- --- --- 0,5 04:51 19.05.2004
1015,7 24,1 49 13,3 77 9,3 --- --- --- 0,5 05:06 19.05.2004
1015,6 24,1 49 13,1 78 9,3 --- --- --- 0,5 05:21 19.05.2004
1015,7 24,0 49 13,0 78 9,2 --- --- --- 0,5 05:36 19.05.2004
1015,7 23,9 50 12,9 78 9,1 --- --- --- 0,5 05:51 19.05.2004
1015,7 23,9 50 12,8 78 9,0 --- --- --- 0,5 06:06 19.05.2004
1015,7 23,9 50 12,7 79 9,1 --- --- --- 0,5 06:21 19.05.2004
1015,7 23,8 50 12,7 79 9,1 --- --- --- 0,5 06:36 19.05.2004
1015,7 23,8 50 12,7 79 9,1 --- --- --- 0,5 06:51 19.05.2004
1015,9 23,7 50 12,7 80 9,3 --- --- --- 0,5 07:06 19.05.2004
1016,0 23,7 50 12,8 80 9,4 --- --- --- 0,5 07:21 19.05.2004
1016,0 23,6 50 13,0 80 9,6 --- --- --- 0,5 07:36 19.05.2004
1016,0 23,5 49 13,2 80 9,8 --- --- --- 0,5 07:51 19.05.2004
1015,9 23,4 50 13,5 80 10,1 --- --- --- 0,5 08:06 19.05.2004
1016,1 23,4 50 13,9 80 10,5 --- --- --- 0,5 08:21 19.05.2004
1016,2 23,4 50 14,3 81 11,1 --- --- --- 0,5 08:36 19.05.2004
1016,3 23,4 50 14,8 80 11,4 --- --- --- 0,5 08:51 19.05.2004
1016,3 23,5 51 15,4 80 11,9 --- --- --- 0,5 09:06 19.05.2004
1016,3 23,6 51 16,2 77 12,1 --- --- --- 0,5 09:21 19.05.2004
1016,4 23,7 51 16,8 73 11,9 --- --- --- 0,5 09:36 19.05.2004
1016,6 23,8 51 17,4 70 11,8 --- --- --- 0,5 09:51 19.05.2004
1016,6 23,8 51 17,9 68 11,9 --- --- --- 0,5 10:06 19.05.2004
1016,6 23,7 50 18,5 64 11,5 --- --- --- 0,5 10:21 19.05.2004
1016,6 23,8 50 19,1 63 11,9 --- --- --- 0,5 10:36 19.05.2004
1016,6 23,8 50 19,6 61 11,8 --- --- --- 0,5 10:51 19.05.2004
1016,6 23,9 50 20,1 60 12,1 --- --- --- 0,5 11:06 19.05.2004
1016,5 23,8 49 20,6 58 12,0 --- --- --- 0,5 11:21 19.05.2004
1016,6 23,8 48 20,9 58 12,3 --- --- --- 0,5 11:36 19.05.2004
1016,5 23,8 49 21,5 57 12,6 --- --- --- 0,5 11:51 19.05.2004
1016,5 23,7 48 21,9 52 11,6 --- --- --- 0,5 12:06 19.05.2004
1016,3 23,7 48 22,2 53 12,1 --- --- --- 0,5 12:21 19.05.2004
1016,1 23,7 48 22,8 51 12,1 --- --- --- 0,5 12:36 19.05.2004
1016,1 23,8 48 23,4 49 12,1 --- --- --- 0,5 12:51 19.05.2004
1016,0 23,8 48 24,4 47 12,3 --- --- --- 0,5 13:06 19.05.2004
1015,8 23,8 47 27,2 40 12,4 --- --- --- 0,5 13:21 19.05.2004
1015,7 23,8 46 31,4 32 12,7 --- --- --- 0,5 13:36 19.05.2004
1015,5 23,8 44 33,7 25 10,9 --- --- --- 0,5 13:51 19.05.2004
1015,3 23,9 45 34,4 24 10,9 --- --- --- 0,5 14:06 19.05.2004
1015,3 24,0 45 34,7 19 7,7 --- --- --- 0,5 14:21 19.05.2004
1015,1 24,1 42 33,1 21 7,8 --- --- --- 0,5 14:36 19.05.2004
1015,1 24,2 42 33,5 22 8,9 --- --- --- 0,5 14:51 19.05.2004
1015,1 24,3 39 33,6 19 6,8 --- --- --- 0,5 15:06 19.05.2004
1014,9 24,4 40 34,2 19 7,3 --- --- --- 0,5 15:21 19.05.2004
1015,0 24,6 38 33,5 19 6,7 --- --- --- 0,5 15:36 19.05.2004
1014,7 24,7 37 33,8 19 7,0 --- --- --- 0,5 15:51 19.05.2004
1014,8 24,9 37 34,5 19 7,5 --- --- --- 0,5 16:06 19.05.2004
1014,8 25,2 35 35,1 19 8,0 --- --- --- 0,5 16:21 19.05.2004
1014,6 25,4 33 35,3 19 8,2 --- --- --- 0,5 16:36 19.05.2004
1014,5 25,4 32 36,9 19 9,5 --- --- --- 0,5 16:51 19.05.2004
1014,4 25,6 32 37,8 19 10,2 --- --- --- 0,5 17:06 19.05.2004
1014,3 25,8 31 37,4 19 9,9 --- --- --- 0,5 17:21 19.05.2004
1014,1 26,1 31 37,5 19 10,0 --- --- --- 0,5 17:36 19.05.2004
1014,1 26,3 32 38,3 19 10,6 --- --- --- 0,5 17:51 19.05.2004
1013,9 26,4 31 37,2 19 9,7 --- --- --- 0,5 18:06 19.05.2004
1013,7 26,7 32 35,2 19 8,1 --- --- --- 0,5 18:21 19.05.2004
1013,5 26,8 32 34,4 19 7,4 --- --- --- 0,5 18:36 19.05.2004
1013,6 27,0 32 34,1 19 7,2 --- --- --- 0,5 18:51 19.05.2004
1013,5 26,9 33 34,2 19 7,3 --- --- --- 0,5 19:06 19.05.2004
1013,6 26,6 32 34,1 19 7,2 --- --- --- 0,5 19:21 19.05.2004
1013,5 26,4 33 33,3 19 6,5 --- --- --- 0,5 19:36 19.05.2004
1013,5 26,3 32 32,4 19 5,8 --- --- --- 0,5 19:51 19.05.2004
1013,4 26,3 34 31,6 19 5,2 --- --- --- 0,5 20:06 19.05.2004
1013,3 26,3 35 29,7 22 5,7 --- --- --- 0,5 20:21 19.05.2004
1013,4 26,3 36 27,4 28 7,3 --- --- --- 0,5 20:36 19.05.2004
1013,4 26,2 36 25,9 31 7,5 --- --- --- 0,5 20:51 19.05.2004
1013,5 26,0 36 24,5 35 8,0 --- --- --- 0,5 21:06 19.05.2004
1013,5 26,0 37 23,2 41 9,2 --- --- --- 0,5 21:21 19.05.2004
1013,6 26,1 39 22,1 44 9,3 --- --- --- 0,5 21:36 19.05.2004
1013,6 26,0 39 21,1 46 9,0 --- --- --- 0,5 21:51 19.05.2004
1013,7 26,0 40 20,4 50 9,6 --- --- --- 0,5 22:06 19.05.2004
1013,7 25,9 41 19,5 53 9,6 --- --- --- 0,5 22:21 19.05.2004
1013,8 25,9 41 18,7 54 9,2 --- --- --- 0,5 22:36 19.05.2004
1013,8 25,8 41 18,2 56 9,3 --- --- --- 0,5 22:51 19.05.2004
1014,0 25,7 41 17,6 57 9,0 --- --- --- 0,5 23:06 19.05.2004
1014,0 25,6 42 17,1 58 8,7 --- --- --- 0,5 23:21 19.05.2004
1013,9 25,5 42 16,7 59 8,6 --- --- --- 0,5 23:36 19.05.2004
1013,8 25,5 42 16,4 61 8,8 --- --- --- 0,5 23:51 19.05.2004
1013,8 25,5 42 16,1 63 9,0 --- --- --- 0,5 00:06 20.05.2004
1013,9 25,6 42 15,8 64 9,0 --- --- --- 0,5 00:21 20.05.2004
1014,0 25,6 43 15,6 66 9,2 --- --- --- 0,5 00:36 20.05.2004
1013,9 25,6 44 15,4 68 9,5 --- --- --- 0,5 00:51 20.05.2004
1013,9 25,6 44 15,2 69 9,5 --- --- --- 0,5 01:06 20.05.2004
1013,7 25,5 45 15,0 70 9,5 --- --- --- 0,5 01:21 20.05.2004
1013,8 25,5 45 14,7 72 9,7 --- --- --- 0,5 01:36 20.05.2004
1013,6 25,4 45 14,5 73 9,7 --- --- --- 0,5 01:51 20.05.2004
1013,5 25,3 45 14,4 75 10,0 --- --- --- 0,5 02:06 20.05.2004
1013,4 25,2 45 14,2 75 9,8 --- --- --- 0,5 02:21 20.05.2004
1013,5 25,2 45 13,9 76 9,7 --- --- --- 0,5 02:36 20.05.2004
1013,4 25,1 46 13,8 76 9,6 --- --- --- 0,5 02:51 20.05.2004
1013,4 25,1 46 13,5 76 9,3 --- --- --- 0,5 03:06 20.05.2004
1013,3 25,1 46 13,4 77 9,4 --- --- --- 0,5 03:21 20.05.2004
1013,2 25,0 46 13,2 78 9,4 --- --- --- 0,5 03:36 20.05.2004
1013,2 24,9 46 13,0 78 9,2 --- --- --- 0,5 03:51 20.05.2004
1013,0 24,9 46 12,7 78 8,9 --- --- --- 0,5 04:06 20.05.2004
1012,8 24,8 46 12,7 78 8,9 --- --- --- 0,5 04:21 20.05.2004
1012,8 24,7 46 12,5 79 8,9 --- --- --- 0,5 04:36 20.05.2004
1012,7 24,7 46 12,3 79 8,7 --- --- --- 0,5 04:51 20.05.2004
1012,5 24,6 46 12,2 80 8,8 --- --- --- 0,5 05:06 20.05.2004
1012,4 24,5 45 12,1 80 8,7 --- --- --- 0,5 05:21 20.05.2004
1012,2 24,4 45 11,8 80 8,4 --- --- --- 0,5 05:36 20.05.2004
1012,2 24,4 45 11,7 80 8,3 --- --- --- 0,5 05:51 20.05.2004
1012,1 24,4 45 11,5 80 8,1 --- --- --- 0,5 06:06 20.05.2004
1012,0 24,2 45 11,5 81 8,3 --- --- --- 0,5 06:21 20.05.2004
1011,9 24,2 45 11,5 81 8,3 --- --- --- 0,5 06:36 20.05.2004
1012,1 24,2 45 11,5 81 8,3 --- --- --- 0,5 06:51 20.05.2004
1012,0 24,1 45 11,6 82 8,6 --- --- --- 0,5 07:06 20.05.2004
1012,1 24,0 45 11,7 82 8,7 --- --- --- 0,5 07:21 20.05.2004
1012,1 24,0 45 11,8 82 8,8 --- --- --- 0,5 07:36 20.05.2004
1012,0 23,9 46 12,1 83 9,3 --- --- --- 0,5 07:51 20.05.2004
1011,9 23,9 46 12,5 83 9,7 --- --- --- 0,5 08:06 20.05.2004
1012,0 23,9 47 13,0 83 10,1 --- --- --- 0,5 08:21 20.05.2004
1011,8 23,9 47 13,4 83 10,5 --- --- --- 0,5 08:36 20.05.2004
1011,9 23,8 47 14,1 82 11,0 --- --- --- 0,5 08:51 20.05.2004
1011,8 23,9 48 14,7 80 11,3 --- --- --- 0,5 09:06 20.05.2004
1011,8 23,8 48 15,5 79 11,8 --- --- --- 0,5 09:21 20.05.2004
1011,8 23,7 47 16,3 77 12,2 --- --- --- 0,5 09:36 20.05.2004
1011,8 23,6 47 17,2 70 11,7 --- --- --- 0,5 09:51 20.05.2004
1011,9 23,6 46 17,8 62 10,4 --- --- --- 0,5 10:06 20.05.2004
1011,6 23,3 40 18,6 57 9,9 --- --- --- 0,5 10:21 20.05.2004
1011,6 22,9 40 19,2 53 9,4 --- --- --- 0,5 10:36 20.05.2004
1011,4 23,0 41 19,6 52 9,5 --- --- --- 0,5 10:51 20.05.2004
1011,3 23,0 40 20,2 51 9,7 --- --- --- 0,5 11:06 20.05.2004
1011,3 23,1 43 20,6 49 9,5 --- --- --- 0,5 11:21 20.05.2004
1011,5 23,3 44 21,1 47 9,3 --- --- --- 0,5 11:36 20.05.2004
1011,2 23,4 44 21,5 45 9,0 --- --- --- 0,5 11:51 20.05.2004
1011,1 23,5 45 22,0 45 9,5 --- --- --- 0,5 12:06 20.05.2004
1010,9 23,5 44 22,4 45 9,9 --- --- --- 0,5 12:21 20.05.2004
1010,8 23,5 43 22,8 44 9,9 --- --- --- 0,5 12:36 20.05.2004
1010,6 23,5 43 23,2 45 10,6 --- --- --- 0,5 12:51 20.05.2004
1010,4 23,6 43 24,1 43 10,7 --- --- --- 0,5 13:06 20.05.2004
1010,3 23,6 43 26,9 42 12,9 --- --- --- 0,5 13:21 20.05.2004
1010,1 23,8 44 29,3 34 11,8 --- --- --- 0,5 13:36 20.05.2004
1010,0 23,8 43 26,1 35 9,4 --- --- --- 0,5 13:51 20.05.2004
1009,7 23,9 42 24,6 38 9,3 --- --- --- 0,5 14:06 20.05.2004
1009,7 24,1 42 24,8 40 10,3 --- --- --- 0,5 14:21 20.05.2004
1009,7 24,2 44 26,3 38 10,8 --- --- --- 0,5 14:36 20.05.2004
1009,4 24,3 45 28,2 34 10,8 --- --- --- 0,5 14:51 20.05.2004
1009,2 24,3 45 29,2 33 11,3 --- --- --- 0,5 15:06 20.05.2004
1009,2 24,4 45 29,7 32 11,2 --- --- --- 0,5 15:21 20.05.2004
1009,0 24,4 45 29,5 31 10,6 --- --- --- 0,5 15:36 20.05.2004
1008,7 24,5 45 29,5 31 10,6 --- --- --- 0,5 15:51 20.05.2004
1008,8 24,7 45 28,8 29 9,0 --- --- --- 0,5 16:06 20.05.2004
1008,5 24,8 46 28,5 30 9,2 --- --- --- 0,5 16:21 20.05.2004
1008,2 24,9 46 28,1 31 9,4 --- --- --- 0,5 16:36 20.05.2004
1007,9 25,0 45 27,7 31 9,0 --- --- --- 0,5 16:51 20.05.2004
1007,7 25,1 45 27,4 31 8,8 --- --- --- 0,5 17:06 20.05.2004
1007,7 25,3 45 27,3 32 9,1 --- --- --- 0,5 17:21 20.05.2004
1007,6 25,4 45 27,1 33 9,4 --- --- --- 0,5 17:36 20.05.2004
1007,6 25,5 45 27,1 33 9,4 --- --- --- 0,5 17:51 20.05.2004
1007,5 25,6 45 26,8 33 9,2 --- --- --- 0,5 18:06 20.05.2004
1007,3 25,7 45 26,7 32 8,6 --- --- --- 0,5 18:21 20.05.2004
1007,4 25,9 45 26,5 32 8,4 --- --- --- 0,5 18:36 20.05.2004
1007,2 25,9 45 26,4 32 8,4 --- --- --- 0,5 18:51 20.05.2004
1007,0 26,0 43 26,2 32 8,2 --- --- --- 0,5 19:06 20.05.2004
1007,0 26,0 41 26,1 32 8,1 --- --- --- 0,5 19:21 20.05.2004
1006,9 26,0 39 25,8 32 7,8 --- --- --- 0,5 19:36 20.05.2004
1006,9 26,0 38 25,6 32 7,7 --- --- --- 0,5 19:51 20.05.2004
1006,8 25,9 38 25,4 32 7,5 --- --- --- 0,5 20:06 20.05.2004
1006,8 25,9 38 25,0 33 7,6 --- --- --- 0,5 20:21 20.05.2004
1007,0 25,8 39 24,6 34 7,7 --- --- --- 0,5 20:36 20.05.2004
1007,0 25,8 39 24,6 34 7,7 --- --- --- 0,5 20:36 20.04.2004
1007,0 25,8 39 24,2 37 8,6 --- --- --- 0,5 20:51 20.05.2004
1007,0 25,6 39 23,5 39 8,7 --- --- --- 0,5 21:06 20.05.2004
1007,1 25,3 40 23,1 42 9,5 --- --- --- 0,5 21:21 20.05.2004
1007,2 25,4 41 22,4 44 9,5 --- --- --- 0,5 21:36 20.05.2004
1007,3 25,4 42 21,7 46 9,6 --- --- --- 0,5 21:51 20.05.2004
1007,4 25,5 43 21,2 47 9,4 --- --- --- 0,5 22:06 20.05.2004
1007,5 25,5 43 20,7 48 9,3 --- --- --- 0,5 22:21 20.05.2004
1007,6 25,6 43 20,2 49 9,1 --- --- --- 0,5 22:36 20.05.2004
1007,5 25,6 43 19,8 50 9,1 --- --- --- 0,5 22:51 20.05.2004
1007,4 25,7 43 19,2 51 8,8 --- --- --- 0,5 23:06 20.05.2004
1007,2 25,7 43 18,8 51 8,4 --- --- --- 0,5 23:21 20.05.2004
1007,2 25,7 43 18,5 52 8,4 --- --- --- 0,5 23:36 20.05.2004
1007,2 25,7 43 18,2 52 8,2 --- --- --- 0,5 23:51 20.05.2004
1007,2 25,7 43 17,8 52 7,8 --- --- --- 0,5 00:06 21.05.2004
1007,2 25,7 43 17,5 51 7,2 --- --- --- 0,5 00:21 21.05.2004
1007,3 25,6 43 17,3 52 7,3 --- --- --- 0,5 00:36 21.05.2004
1007,2 25,5 43 17,1 53 7,4 --- --- --- 0,5 00:51 21.05.2004
1007,2 25,4 43 16,8 53 7,1 --- --- --- 0,5 01:06 21.05.2004
1007,1 25,4 43 16,6 54 7,2 --- --- --- 0,5 01:21 21.05.2004
1007,1 25,3 43 16,4 56 7,6 --- --- --- 0,5 01:36 21.05.2004
1007,0 25,2 43 16,3 57 7,7 --- --- --- 0,5 01:51 21.05.2004
1007,1 25,1 43 16,2 59 8,2 --- --- --- 0,5 02:06 21.05.2004
1007,0 25,1 44 16,1 59 8,1 --- --- --- 0,5 02:21 21.05.2004
1006,8 25,0 44 15,8 60 8,0 --- --- --- 0,5 02:36 21.05.2004
1006,7 25,0 44 15,8 61 8,3 --- --- --- 0,5 02:51 21.05.2004
1006,5 25,0 45 15,6 63 8,6 --- --- --- 0,5 03:06 21.05.2004
1006,4 24,9 45 15,5 63 8,5 --- --- --- 0,5 03:21 21.05.2004
1006,3 24,8 45 15,4 65 8,8 --- --- --- 0,5 03:36 21.05.2004
1006,2 24,8 45 15,3 66 9,0 --- --- --- 0,5 03:51 21.05.2004
1005,9 24,7 44 15,3 67 9,2 --- --- --- 0,5 04:06 21.05.2004
1006,1 24,7 45 15,2 67 9,1 --- --- --- 0,5 04:21 21.05.2004
1006,0 24,6 44 15,1 67 9,0 --- --- --- 0,5 04:36 21.05.2004
1006,0 24,5 44 15,1 68 9,2 --- --- --- 0,5 04:51 21.05.2004
1005,9 24,4 44 15,0 68 9,1 --- --- --- 0,5 05:06 21.05.2004
1006,0 24,4 45 15,2 69 9,5 --- --- --- 0,5 05:21 21.05.2004
1006,0 24,4 45 15,4 69 9,7 --- --- --- 0,5 05:36 21.05.2004
1005,8 24,2 45 15,4 68 9,5 --- --- --- 0,5 05:51 21.05.2004
1005,9 24,2 45 15,4 68 9,5 --- --- --- 0,5 06:06 21.05.2004
1006,1 24,2 45 15,4 68 9,5 --- --- --- 0,5 06:21 21.05.2004
1006,2 24,2 45 15,3 68 9,4 --- --- --- 0,5 06:36 21.05.2004
1006,3 24,1 45 15,3 68 9,4 --- --- --- 0,5 06:51 21.05.2004
1006,4 24,1 45 15,2 67 9,1 --- --- --- 0,5 07:06 21.05.2004
1006,5 24,1 45 15,2 66 8,9 --- --- --- 0,5 07:21 21.05.2004
1006,5 24,0 45 15,2 65 8,6 --- --- --- 0,5 07:36 21.05.2004
1006,6 24,0 45 15,2 63 8,2 --- --- --- 0,5 07:51 21.05.2004
1006,9 23,8 45 15,2 62 7,9 --- --- --- 0,5 08:06 21.05.2004
1006,8 23,3 42 15,3 62 8,0 --- --- --- 0,5 08:21 21.05.2004
1007,2 22,9 42 15,4 61 7,9 --- --- --- 0,5 08:36 21.05.2004
1007,1 22,5 41 15,6 60 7,8 --- --- --- 0,5 08:51 21.05.2004
1007,2 22,0 41 15,7 59 7,7 --- --- --- 0,5 09:06 21.05.2004
1007,4 22,1 43 15,7 59 7,7 --- --- --- 0,5 09:21 21.05.2004
1007,4 22,2 43 15,8 59 7,8 --- --- --- 0,5 09:36 21.05.2004
1007,4 22,3 44 16,0 59 8,0 --- --- --- 0,5 09:51 21.05.2004
1007,7 22,2 42 16,3 59 8,2 --- --- --- 0,5 10:06 21.05.2004
1007,9 21,6 42 16,6 58 8,3 --- --- --- 0,5 10:21 21.05.2004
1007,8 21,3 42 16,8 58 8,5 --- --- --- 0,5 10:36 21.05.2004
1007,9 21,0 43 17,1 59 9,0 --- --- --- 0,5 10:51 21.05.2004
1007,9 21,0 43 17,2 58 8,8 --- --- --- 0,5 11:06 21.05.2004
1008,1 21,2 44 17,4 58 9,0 --- --- --- 0,5 11:21 21.05.2004
1008,2 21,2 43 17,5 57 8,9 --- --- --- 0,5 11:36 21.05.2004
1008,2 21,3 43 17,5 56 8,6 --- --- --- 0,5 11:51 21.05.2004
1007,7 21,2 43 17,5 56 8,6 --- --- --- 0,5 12:06 21.05.2004
1008,1 21,2 43 17,5 56 8,6 --- --- --- 0,5 12:21 21.05.2004
1008,2 21,2 43 17,6 55 8,4 --- --- --- 0,5 12:36 21.05.2004
1008,3 21,3 44 17,9 55 8,7 --- --- --- 0,5 12:51 21.05.2004
1008,2 21,4 44 18,2 55 9,0 --- --- --- 0,5 13:06 21.05.2004
1008,1 21,7 44 18,4 54 8,9 --- --- --- 0,5 13:21 21.05.2004
1008,2 22,0 44 18,7 52 8,6 --- --- --- 0,5 13:36 21.05.2004
1008,3 22,2 44 18,8 51 8,4 --- --- --- 0,5 13:51 21.05.2004
1008,5 22,3 44 18,7 50 8,0 --- --- --- 0,5 14:06 21.05.2004
1008,6 22,4 44 18,4 50 7,8 --- --- --- 0,5 14:21 21.05.2004
1008,6 22,6 45 18,2 50 7,6 --- --- --- 0,5 14:36 21.05.2004
1008,7 22,7 45 18,1 50 7,5 --- --- --- 0,5 14:51 21.05.2004
1008,7 22,7 45 17,9 50 7,3 --- --- --- 0,5 15:06 21.05.2004
1008,8 22,8 45 17,9 50 7,3 --- --- --- 0,5 15:21 21.05.2004
1008,6 22,8 45 17,9 50 7,3 --- --- --- 0,5 15:36 21.05.2004
1008,6 22,8 45 17,8 50 7,2 --- --- --- 0,5 15:51 21.05.2004
1008,8 22,9 45 18,5 50 7,9 --- --- --- 0,5 16:06 21.05.2004
1008,6 22,9 45 18,8 49 7,8 --- --- --- 0,5 16:21 21.05.2004
1008,6 22,9 44 18,9 48 7,6 --- --- --- 0,5 16:36 21.05.2004
1008,7 23,0 43 19,1 48 7,8 --- --- --- 0,5 16:51 21.05.2004
1008,8 23,1 43 19,1 47 7,5 --- --- --- 0,5 17:06 21.05.2004
1008,8 23,1 42 18,9 46 7,0 --- --- --- 0,5 17:21 21.05.2004
1008,7 23,1 42 18,7 46 6,8 --- --- --- 0,5 17:36 21.05.2004
1008,7 23,3 42 19,0 46 7,1 --- --- --- 0,5 17:51 21.05.2004
1008,6 23,5 42 19,2 45 7,0 --- --- --- 0,5 18:06 21.05.2004
1008,6 23,5 42 19,1 45 6,9 --- --- --- 0,5 18:21 21.05.2004
1008,7 23,6 41 18,8 45 6,6 --- --- --- 0,5 18:36 21.05.2004
1008,7 23,6 41 18,6 44 6,1 --- --- --- 0,5 18:51 21.05.2004
1008,8 23,5 40 18,3 44 5,8 --- --- --- 0,5 19:06 21.05.2004
1008,7 23,4 39 18,1 44 5,6 --- --- --- 0,5 19:21 21.05.2004
1008,8 23,4 39 18,2 44 5,7 --- --- --- 0,5 19:36 21.05.2004
1008,8 23,6 39 18,4 44 5,9 --- --- --- 0,5 19:51 21.05.2004
1008,9 23,5 37 18,3 44 5,8 --- --- --- 0,5 20:06 21.05.2004
1009,0 23,5 37 18,2 43 5,4 --- --- --- 0,5 20:21 21.05.2004
1009,3 23,3 36 17,9 43 5,1 --- --- --- 0,5 20:36 21.05.2004
1009,5 23,1 36 17,7 43 4,9 --- --- --- 0,5 20:51 21.05.2004
1009,6 22,9 36 17,4 43 4,7 --- --- --- 0,5 21:06 21.05.2004
1009,8 22,9 38 17,1 44 4,7 --- --- --- 0,5 21:21 21.05.2004
1010,0 22,9 38 16,7 46 5,0 --- --- --- 0,5 21:36 21.05.2004
1010,4 23,0 38 16,5 47 5,1 --- --- --- 0,5 21:51 21.05.2004
1010,7 23,0 38 16,1 49 5,4 --- --- --- 0,5 22:06 21.05.2004
1010,7 23,0 39 15,8 50 5,4 --- --- --- 0,5 22:21 21.05.2004
1010,9 22,9 40 15,7 50 5,3 --- --- --- 0,5 22:36 21.05.2004
1011,2 22,9 40 15,5 51 5,4 --- --- --- 0,5 22:51 21.05.2004
1011,4 22,9 41 15,3 52 5,5 --- --- --- 0,5 23:06 21.05.2004
1011,6 22,9 41 15,1 52 5,3 --- --- --- 0,5 23:21 21.05.2004
1011,8 22,9 41 14,9 52 5,1 --- --- --- 0,5 23:36 21.05.2004
1011,8 22,9 41 14,7 53 5,2 --- --- --- 0,5 23:51 21.05.2004
1012,0 22,9 42 14,6 52 4,8 --- --- --- 0,5 00:06 22.05.2004
1012,2 22,8 42 14,4 54 5,2 --- --- --- 0,5 00:21 22.05.2004
1012,3 22,8 42 14,2 54 5,0 --- --- --- 0,5 00:36 22.05.2004
1012,4 22,8 43 14,1 54 4,9 --- --- --- 0,5 00:51 22.05.2004
1012,4 22,8 42 13,9 54 4,7 --- --- --- 0,5 01:06 22.05.2004
1012,4 22,7 42 13,7 55 4,8 --- --- --- 0,5 01:21 22.05.2004
1012,7 22,7 42 13,6 55 4,7 --- --- --- 0,5 01:36 22.05.2004
1012,7 22,6 43 13,5 57 5,1 --- --- --- 0,5 01:51 22.05.2004
1012,9 22,7 43 13,3 57 4,9 --- --- --- 0,5 02:06 22.05.2004
1012,8 22,8 43 13,2 57 4,8 --- --- --- 0,5 02:21 22.05.2004
1013,0 22,8 43 13,1 58 5,0 --- --- --- 0,5 02:36 22.05.2004
1013,2 22,8 43 13,0 58 4,9 --- --- --- 0,5 02:51 22.05.2004
1013,3 22,7 43 12,8 58 4,7 --- --- --- 0,5 03:06 22.05.2004
1013,4 22,6 43 12,8 58 4,7 --- --- --- 0,5 03:21 22.05.2004
1013,6 22,5 42 12,6 58 4,5 --- --- --- 0,5 03:36 22.05.2004
1013,6 22,4 42 12,5 58 4,4 --- --- --- 0,5 03:51 22.05.2004
1013,6 22,3 42 12,4 59 4,6 --- --- --- 0,5 04:06 22.05.2004
1013,5 22,2 42 12,4 59 4,6 --- --- --- 0,5 04:21 22.05.2004
1013,3 22,2 42 12,2 59 4,4 --- --- --- 0,5 04:36 22.05.2004
1013,5 22,1 42 12,1 58 4,1 --- --- --- 0,5 04:51 22.05.2004
1013,5 22,0 42 11,9 58 3,9 --- --- --- 0,5 05:06 22.05.2004
1013,6 21,9 43 11,8 58 3,8 --- --- --- 0,5 05:21 22.05.2004
1013,5 21,9 43 11,7 57 3,4 --- --- --- 0,5 05:36 22.05.2004
1013,7 21,8 42 11,6 57 3,3 --- --- --- 0,5 05:51 22.05.2004
1014,0 21,7 42 11,5 56 3,0 --- --- --- 0,5 06:06 22.05.2004
1014,0 21,7 42 11,4 56 2,9 --- --- --- 0,5 06:21 22.05.2004
1014,1 21,6 42 11,4 57 3,1 --- --- --- 0,5 06:36 22.05.2004
1014,1 21,5 42 11,3 56 2,8 --- --- --- 0,5 06:51 22.05.2004
1014,5 21,4 42 11,3 55 2,6 --- --- --- 0,5 07:06 22.05.2004
1014,4 21,4 42 11,2 55 2,5 --- --- --- 0,5 07:21 22.05.2004
1014,8 21,4 42 11,2 56 2,7 --- --- --- 0,5 07:36 22.05.2004
1015,0 21,4 42 11,2 56 2,7 --- --- --- 0,5 07:51 22.05.2004
1015,0 21,4 42 11,2 55 2,5 --- --- --- 0,5 08:06 22.05.2004
1015,2 21,4 42 11,3 54 2,3 --- --- --- 0,5 08:21 22.05.2004
1015,5 21,4 42 11,3 54 2,3 --- --- --- 0,5 08:36 22.05.2004
1015,7 21,5 42 11,4 54 2,4 --- --- --- 0,5 08:51 22.05.2004
1015,7 21,4 41 11,5 53 2,2 --- --- --- 0,5 09:06 22.05.2004
1015,8 21,4 40 11,7 53 2,4 --- --- --- 0,5 09:21 22.05.2004
1015,9 21,3 40 11,7 53 2,4 --- --- --- 0,5 09:36 22.05.2004
1016,2 21,3 40 11,9 53 2,6 --- --- --- 0,5 09:51 22.05.2004
1016,3 21,3 40 12,1 53 2,8 --- --- --- 0,5 10:06 22.05.2004
1016,2 21,2 40 12,3 53 3,0 --- --- --- 0,5 10:21 22.05.2004
1016,2 21,1 39 12,5 52 2,9 --- --- --- 0,5 10:36 22.05.2004
1016,1 21,0 39 12,5 52 2,9 --- --- --- 0,5 10:51 22.05.2004
1016,0 20,9 40 12,7 51 2,8 --- --- --- 0,5 11:06 22.05.2004
1016,2 20,9 39 12,8 50 2,6 --- --- --- 0,5 11:21 22.05.2004
1016,3 20,8 39 13,0 48 2,2 --- --- --- 0,5 11:36 22.05.2004
1016,4 20,7 36 13,2 49 2,7 --- --- --- 0,5 11:51 22.05.2004
1016,5 20,2 33 13,4 47 2,3 --- --- --- 0,5 12:06 22.05.2004
1016,4 19,8 33 13,7 47 2,6 --- --- --- 0,5 12:21 22.05.2004
1016,4 19,6 32 13,8 46 2,3 --- --- --- 0,5 12:36 22.05.2004
1016,4 19,4 32 14,1 46 2,6 --- --- --- 0,5 12:51 22.05.2004
1016,2 19,5 32 14,2 45 2,4 --- --- --- 0,5 13:06 22.05.2004
1016,3 19,4 31 14,4 44 2,3 --- --- --- 0,5 13:21 22.05.2004
1016,4 19,4 31 14,8 42 2,0 --- --- --- 0,5 13:36 22.05.2004
1016,3 19,5 32 15,2 43 2,7 --- --- --- 0,5 13:51 22.05.2004
1016,2 19,4 31 15,5 40 1,9 --- --- --- 0,5 14:06 22.05.2004
1016,2 19,4 31 16,1 40 2,5 --- --- --- 0,5 14:21 22.05.2004
1016,2 19,5 34 17,2 40 3,5 --- --- --- 0,5 14:36 22.05.2004
1016,2 19,8 35 18,6 36 3,2 --- --- --- 0,5 14:51 22.05.2004
1015,9 19,9 36 19,4 35 3,5 --- --- --- 0,5 15:06 22.05.2004
1016,1 20,1 37 20,1 32 2,9 --- --- --- 0,5 15:21 22.05.2004
1016,0 20,2 37 20,2 33 3,4 --- --- --- 0,5 15:36 22.05.2004
1016,0 20,3 36 19,7 33 3,0 --- --- --- 0,5 15:51 22.05.2004
1016,0 20,2 34 18,8 33 2,2 --- --- --- 0,5 16:06 22.05.2004
1016,0 20,1 33 18,1 33 1,5 --- --- --- 0,5 16:21 22.05.2004
1016,0 20,1 33 17,5 34 1,4 --- --- --- 0,5 16:36 22.05.2004
1015,8 20,6 36 17,5 35 1,8 --- --- --- 0,5 16:51 22.05.2004
1015,8 21,0 36 17,7 35 2,0 --- --- --- 0,5 17:06 22.05.2004
1016,0 21,4 37 17,8 34 1,7 --- --- --- 0,5 17:21 22.05.2004
1015,8 21,5 37 17,4 35 1,8 --- --- --- 0,5 17:36 22.05.2004
1016,0 21,7 37 17,2 35 1,6 --- --- --- 0,5 17:51 22.05.2004
1016,0 21,8 37 16,9 35 1,3 --- --- --- 0,5 18:06 22.05.2004
1015,8 22,1 36 16,8 35 1,2 --- --- --- 0,5 18:21 22.05.2004
1015,9 22,3 37 17,1 35 1,5 --- --- --- 0,5 18:36 22.05.2004
1015,7 22,5 37 17,2 35 1,6 --- --- --- 0,5 18:51 22.05.2004
1015,7 22,7 36 17,2 34 1,2 --- --- --- 0,5 19:06 22.05.2004
1015,8 22,7 36 17,1 34 1,1 --- --- --- 0,5 19:21 22.05.2004
1015,8 22,6 36 16,8 34 0,8 --- --- --- 0,5 19:36 22.05.2004
1016,0 22,5 36 16,6 34 0,6 --- --- --- 0,5 19:51 22.05.2004
1015,9 22,5 36 16,2 34 0,3 --- --- --- 0,5 20:06 22.05.2004
1015,8 22,4 36 15,8 34 0,0 --- --- --- 0,5 20:21 22.05.2004
1015,9 22,2 36 15,5 34 -0,2 --- --- --- 0,5 20:36 22.05.2004
1015,8 22,1 35 15,4 35 0,0 --- --- --- 0,5 20:51 22.05.2004
1015,9 21,5 30 15,2 35 -0,1 --- --- --- 0,5 21:06 22.05.2004
1015,9 20,9 30 15,1 35 -0,2 --- --- --- 0,5 21:21 22.05.2004
1016,2 20,3 28 14,8 35 -0,4 --- --- --- 0,5 21:36 22.05.2004
1016,3 20,0 28 14,7 36 -0,2 --- --- --- 0,5 21:51 22.05.2004
1016,5 19,6 28 14,5 36 -0,3 --- --- --- 0,5 22:06 22.05.2004
1016,6 19,6 30 14,4 37 0,0 --- --- --- 0,5 22:21 22.05.2004
1017,1 19,9 32 14,1 38 0,0 --- --- --- 0,5 22:36 22.05.2004
1016,9 20,0 34 13,8 39 0,0 --- --- --- 0,5 22:51 22.05.2004
1017,2 20,2 35 13,7 40 0,3 --- --- --- 0,5 23:06 22.05.2004
1017,3 20,3 35 13,5 41 0,5 --- --- --- 0,5 23:21 22.05.2004
1017,4 20,3 36 13,2 41 0,2 --- --- --- 0,5 23:36 22.05.2004
1017,5 20,4 36 13,1 41 0,1 --- --- --- 0,5 23:51 22.05.2004
1017,7 20,4 36 12,9 41 0,0 --- --- --- 0,5 00:06 23.05.2004
1017,8 20,4 36 12,7 42 0,1 --- --- --- 0,5 00:21 23.05.2004
1017,8 20,4 36 12,5 43 0,2 --- --- --- 0,5 00:36 23.05.2004
1017,9 20,4 36 12,4 44 0,5 --- --- --- 0,5 00:51 23.05.2004
1018,0 20,4 36 12,3 45 0,7 --- --- --- 0,5 01:06 23.05.2004
1017,9 20,3 37 12,1 46 0,8 --- --- --- 0,5 01:21 23.05.2004
1017,9 20,3 37 12,0 46 0,7 --- --- --- 0,5 01:36 23.05.2004
1018,0 20,3 37 11,8 47 0,8 --- --- --- 0,5 01:51 23.05.2004
1018,0 20,3 38 11,7 48 1,0 --- --- --- 0,5 02:06 23.05.2004
1017,9 20,3 38 11,5 49 1,1 --- --- --- 0,5 02:21 23.05.2004
1017,8 20,3 38 11,4 51 1,6 --- --- --- 0,5 02:36 23.05.2004
1017,8 20,2 38 11,3 52 1,8 --- --- --- 0,5 02:51 23.05.2004
1017,9 20,2 38 11,3 54 2,3 --- --- --- 0,5 03:06 23.05.2004
1018,0 20,2 39 11,1 54 2,1 --- --- --- 0,5 03:21 23.05.2004
1017,9 20,2 39 11,1 55 2,4 --- --- --- 0,5 03:36 23.05.2004
1017,9 20,2 39 10,9 56 2,4 --- --- --- 0,5 03:51 23.05.2004
1017,9 20,2 40 10,8 57 2,6 --- --- --- 0,5 04:06 23.05.2004
1017,9 20,1 40 10,7 58 2,7 --- --- --- 0,5 04:21 23.05.2004
1017,8 20,1 40 10,5 59 2,8 --- --- --- 0,5 04:36 23.05.2004
1017,9 20,0 40 10,5 59 2,8 --- --- --- 0,5 04:51 23.05.2004
1017,8 19,9 40 10,4 61 3,2 --- --- --- 0,5 05:06 23.05.2004
1017,8 19,8 40 10,3 62 3,3 --- --- --- 0,5 05:21 23.05.2004
1018,0 19,8 40 10,2 62 3,2 --- --- --- 0,5 05:36 23.05.2004
1018,0 19,7 40 10,2 62 3,2 --- --- --- 0,5 05:51 23.05.2004
1018,1 19,7 40 10,1 63 3,3 --- --- --- 0,5 06:06 23.05.2004
1018,3 19,7 40 10,1 63 3,3 --- --- --- 0,5 06:21 23.05.2004
1018,2 19,6 40 10,0 63 3,2 --- --- --- 0,5 06:36 23.05.2004
1018,2 19,6 40 10,1 63 3,3 --- --- --- 0,5 06:51 23.05.2004
1018,4 19,6 41 10,1 64 3,6 --- --- --- 0,5 07:06 23.05.2004
1018,5 19,5 41 10,1 64 3,6 --- --- --- 0,5 07:21 23.05.2004
1018,6 19,4 41 10,2 64 3,7 --- --- --- 0,5 07:36 23.05.2004
1018,6 19,4 41 10,3 64 3,8 --- --- --- 0,5 07:51 23.05.2004
1018,9 19,4 41 10,4 63 3,6 --- --- --- 0,5 08:06 23.05.2004
1018,9 19,4 41 10,5 62 3,5 --- --- --- 0,5 08:21 23.05.2004
1019,1 19,4 41 10,8 61 3,5 --- --- --- 0,5 08:36 23.05.2004
1019,1 19,5 41 10,9 60 3,4 --- --- --- 0,5 08:51 23.05.2004
1019,1 19,6 42 11,1 60 3,6 --- --- --- 0,5 09:06 23.05.2004
1019,2 19,6 42 11,3 60 3,8 --- --- --- 0,5 09:21 23.05.2004
1019,2 19,6 41 11,5 59 3,7 --- --- --- 0,5 09:36 23.05.2004
1019,1 19,7 41 11,8 59 4,0 --- --- --- 0,5 09:51 23.05.2004
1019,1 19,7 41 12,1 58 4,1 --- --- --- 0,5 10:06 23.05.2004
1019,2 19,7 41 12,2 58 4,1 --- --- --- 0,5 10:21 23.05.2004
1019,2 19,7 41 12,2 57 3,9 --- --- --- 0,5 10:36 23.05.2004
1019,2 19,8 41 12,4 57 4,1 --- --- --- 0,5 10:51 23.05.2004
1019,1 19,9 41 12,8 56 4,2 --- --- --- 0,5 11:06 23.05.2004
1019,2 19,9 41 13,1 55 4,2 --- --- --- 0,5 11:21 23.05.2004
1019,2 19,9 40 13,5 55 4,6 --- --- --- 0,5 11:36 23.05.2004
1019,1 19,9 40 13,6 53 4,2 --- --- --- 0,5 11:51 23.05.2004
1019,1 20,1 40 13,8 52 4,1 --- --- --- 0,5 12:06 23.05.2004
1019,1 20,2 41 14,0 52 4,3 --- --- --- 0,5 12:21 23.05.2004
1019,0 20,2 41 14,2 52 4,5 --- --- --- 0,5 12:36 23.05.2004
1019,0 20,3 41 14,5 51 4,5 --- --- --- 0,5 12:51 23.05.2004
1018,8 20,4 42 14,5 50 4,2 --- --- --- 0,5 13:06 23.05.2004
1018,6 20,4 43 14,6 50 4,3 --- --- --- 0,5 13:21 23.05.2004
1018,6 20,4 42 14,8 50 4,4 --- --- --- 0,5